<?xml version='1.0' encoding='UTF-8'?><gpx version="1.1" creator="JPX - https://github.com/jenetics/jpx" xmlns="http://www.topografix.com/GPX/1/1"><trk><trkseg><trkpt lat="40.5340044" lon="17.4279573"><ele>110.0</ele><time>2026-04-06T15:45:22.149Z</time></trkpt><trkpt lat="40.5339332" lon="17.427797"><ele>110.0</ele><time>2026-04-06T15:45:58.116Z</time></trkpt><trkpt lat="40.5337442" lon="17.4275849"><ele>110.0</ele><time>2026-04-06T15:46:11.697Z</time></trkpt><trkpt lat="40.5338289" lon="17.4277635"><ele>109.99999999999999</ele><time>2026-04-06T15:46:26.292Z</time></trkpt><trkpt lat="40.5337665" lon="17.4276429"><ele>110.0</ele><time>2026-04-06T15:48:00.171Z</time></trkpt><trkpt lat="40.533818" lon="17.4275799"><ele>110.0</ele><time>2026-04-06T15:48:05.925Z</time></trkpt><trkpt lat="40.5338264" lon="17.4276763"><ele>110.0</ele><time>2026-04-06T15:48:15.399Z</time></trkpt><trkpt lat="40.5338921" lon="17.4275923"><ele>109.99999999999999</ele><time>2026-04-06T15:48:18.399Z</time></trkpt><trkpt lat="40.533951" lon="17.4275581"><ele>110.0</ele><time>2026-04-06T15:48:19.399Z</time></trkpt><trkpt lat="40.5340142" lon="17.4275079"><ele>110.0</ele><time>2026-04-06T15:48:20.399Z</time></trkpt><trkpt lat="40.5340795" lon="17.427432"><ele>110.0</ele><time>2026-04-06T15:48:21.399Z</time></trkpt><trkpt lat="40.534176" lon="17.427316"><ele>110.0</ele><time>2026-04-06T15:48:22.399Z</time></trkpt><trkpt lat="40.534296" lon="17.4271923"><ele>110.0</ele><time>2026-04-06T15:48:23.399Z</time></trkpt><trkpt lat="40.5344143" lon="17.4270768"><ele>109.75</ele><time>2026-04-06T15:48:24.399Z</time></trkpt><trkpt lat="40.5345211" lon="17.4269617"><ele>109.5</ele><time>2026-04-06T15:48:25.399Z</time></trkpt><trkpt lat="40.5346203" lon="17.4268602"><ele>109.25</ele><time>2026-04-06T15:48:26.4Z</time></trkpt><trkpt lat="40.5347125" lon="17.4267584"><ele>109.0</ele><time>2026-04-06T15:48:27.399Z</time></trkpt><trkpt lat="40.5348061" lon="17.4266648"><ele>109.0</ele><time>2026-04-06T15:48:28.399Z</time></trkpt><trkpt lat="40.5349012" lon="17.4265675"><ele>109.0</ele><time>2026-04-06T15:48:29.399Z</time></trkpt><trkpt lat="40.5349932" lon="17.4264933"><ele>109.0</ele><time>2026-04-06T15:48:30.399Z</time></trkpt><trkpt lat="40.5350734" lon="17.4264213"><ele>109.0</ele><time>2026-04-06T15:48:31.399Z</time></trkpt><trkpt lat="40.5351463" lon="17.4263614"><ele>109.0</ele><time>2026-04-06T15:48:32.399Z</time></trkpt><trkpt lat="40.5352203" lon="17.426327"><ele>109.6</ele><time>2026-04-06T15:48:33.399Z</time></trkpt><trkpt lat="40.5353052" lon="17.4263041"><ele>110.2</ele><time>2026-04-06T15:48:34.399Z</time></trkpt><trkpt lat="40.5354021" lon="17.426294"><ele>110.79999999999998</ele><time>2026-04-06T15:48:35.399Z</time></trkpt><trkpt lat="40.535503" lon="17.4263055"><ele>111.39999999999999</ele><time>2026-04-06T15:48:36.399Z</time></trkpt><trkpt lat="40.5355771" lon="17.4263418"><ele>112.0</ele><time>2026-04-06T15:48:37.399Z</time></trkpt><trkpt lat="40.5356799" lon="17.4263522"><ele>110.6</ele><time>2026-04-06T15:48:39.399Z</time></trkpt><trkpt lat="40.535702" lon="17.4262641"><ele>109.19999999999999</ele><time>2026-04-06T15:48:41.399Z</time></trkpt><trkpt lat="40.5356506" lon="17.4261709"><ele>107.8</ele><time>2026-04-06T15:48:43.399Z</time></trkpt><trkpt lat="40.535546" lon="17.4261515"><ele>106.4</ele><time>2026-04-06T15:48:52.4Z</time></trkpt><trkpt lat="40.5354638" lon="17.4261427"><ele>105.0</ele><time>2026-04-06T15:48:54.399Z</time></trkpt><trkpt lat="40.5353507" lon="17.4260905"><ele>104.66666666666667</ele><time>2026-04-06T15:48:56.399Z</time></trkpt><trkpt lat="40.5352771" lon="17.4260489"><ele>104.33333333333334</ele><time>2026-04-06T15:48:57.399Z</time></trkpt><trkpt lat="40.5352077" lon="17.4260174"><ele>104.0</ele><time>2026-04-06T15:48:58.399Z</time></trkpt><trkpt lat="40.535136" lon="17.425968"><ele>103.66666666666667</ele><time>2026-04-06T15:49:00.4Z</time></trkpt><trkpt lat="40.5350795" lon="17.4259179"><ele>103.33333333333334</ele><time>2026-04-06T15:49:02.399Z</time></trkpt><trkpt lat="40.5351068" lon="17.425834"><ele>103.0</ele><time>2026-04-06T15:49:04.399Z</time></trkpt><trkpt lat="40.5352007" lon="17.4257758"><ele>103.00000000000001</ele><time>2026-04-06T15:49:06.399Z</time></trkpt><trkpt lat="40.5352736" lon="17.4257563"><ele>103.0</ele><time>2026-04-06T15:49:07.399Z</time></trkpt><trkpt lat="40.5353536" lon="17.4257343"><ele>103.0</ele><time>2026-04-06T15:49:08.399Z</time></trkpt><trkpt lat="40.5354268" lon="17.4257109"><ele>103.0</ele><time>2026-04-06T15:49:09.399Z</time></trkpt><trkpt lat="40.5354941" lon="17.4257516"><ele>103.00000000000001</ele><time>2026-04-06T15:49:11.399Z</time></trkpt><trkpt lat="40.5355256" lon="17.4258663"><ele>103.0</ele><time>2026-04-06T15:49:13.399Z</time></trkpt><trkpt lat="40.5355275" lon="17.4259541"><ele>103.00000000000001</ele><time>2026-04-06T15:49:14.4Z</time></trkpt><trkpt lat="40.5355159" lon="17.426041"><ele>103.0</ele><time>2026-04-06T15:49:15.399Z</time></trkpt><trkpt lat="40.5354354" lon="17.4261175"><ele>103.0</ele><time>2026-04-06T15:49:17.399Z</time></trkpt><trkpt lat="40.5353716" lon="17.4261132"><ele>103.0</ele><time>2026-04-06T15:49:18.4Z</time></trkpt><trkpt lat="40.53526" lon="17.4261062"><ele>103.00000000000001</ele><time>2026-04-06T15:49:20.399Z</time></trkpt><trkpt lat="40.535234" lon="17.4262009"><ele>103.0</ele><time>2026-04-06T15:49:22.399Z</time></trkpt><trkpt lat="40.5353103" lon="17.4262504"><ele>103.4</ele><time>2026-04-06T15:49:24.399Z</time></trkpt><trkpt lat="40.5354509" lon="17.426252"><ele>103.80000000000001</ele><time>2026-04-06T15:49:26.399Z</time></trkpt><trkpt lat="40.5355299" lon="17.4262762"><ele>104.2</ele><time>2026-04-06T15:49:27.399Z</time></trkpt><trkpt lat="40.5356239" lon="17.4263369"><ele>104.6</ele><time>2026-04-06T15:49:29.399Z</time></trkpt><trkpt lat="40.5356949" lon="17.4262824"><ele>105.0</ele><time>2026-04-06T15:49:32.399Z</time></trkpt><trkpt lat="40.5356313" lon="17.4261277"><ele>105.0</ele><time>2026-04-06T15:49:34.399Z</time></trkpt><trkpt lat="40.5355903" lon="17.4260147"><ele>105.0</ele><time>2026-04-06T15:49:35.399Z</time></trkpt><trkpt lat="40.5355652" lon="17.4259126"><ele>105.0</ele><time>2026-04-06T15:49:36.399Z</time></trkpt><trkpt lat="40.5355603" lon="17.4258288"><ele>105.0</ele><time>2026-04-06T15:49:37.399Z</time></trkpt><trkpt lat="40.5355443" lon="17.4257372"><ele>105.0</ele><time>2026-04-06T15:49:38.399Z</time></trkpt><trkpt lat="40.5355302" lon="17.4256193"><ele>105.0</ele><time>2026-04-06T15:49:39.4Z</time></trkpt><trkpt lat="40.5355438" lon="17.4254773"><ele>103.75</ele><time>2026-04-06T15:49:40.399Z</time></trkpt><trkpt lat="40.5355701" lon="17.4253392"><ele>102.5</ele><time>2026-04-06T15:49:41.399Z</time></trkpt><trkpt lat="40.5355837" lon="17.42519"><ele>101.25</ele><time>2026-04-06T15:49:42.4Z</time></trkpt><trkpt lat="40.5355919" lon="17.4250271"><ele>100.0</ele><time>2026-04-06T15:49:43.399Z</time></trkpt><trkpt lat="40.5356016" lon="17.4248508"><ele>100.0</ele><time>2026-04-06T15:49:44.399Z</time></trkpt><trkpt lat="40.5356078" lon="17.4246731"><ele>100.0</ele><time>2026-04-06T15:49:45.399Z</time></trkpt><trkpt lat="40.5356084" lon="17.4244889"><ele>100.0</ele><time>2026-04-06T15:49:46.399Z</time></trkpt><trkpt lat="40.5356102" lon="17.4242995"><ele>100.0</ele><time>2026-04-06T15:49:47.399Z</time></trkpt><trkpt lat="40.5356203" lon="17.4241134"><ele>98.33333333333334</ele><time>2026-04-06T15:49:48.399Z</time></trkpt><trkpt lat="40.5356282" lon="17.4239152"><ele>96.66666666666667</ele><time>2026-04-06T15:49:49.399Z</time></trkpt><trkpt lat="40.5356366" lon="17.4237062"><ele>95.0</ele><time>2026-04-06T15:49:50.399Z</time></trkpt><trkpt lat="40.5356463" lon="17.423478"><ele>94.33333333333334</ele><time>2026-04-06T15:49:51.399Z</time></trkpt><trkpt lat="40.5356519" lon="17.4232483"><ele>93.66666666666667</ele><time>2026-04-06T15:49:52.399Z</time></trkpt><trkpt lat="40.5356578" lon="17.42303"><ele>93.0</ele><time>2026-04-06T15:49:53.399Z</time></trkpt><trkpt lat="40.5356645" lon="17.4228121"><ele>92.0</ele><time>2026-04-06T15:49:54.4Z</time></trkpt><trkpt lat="40.5356747" lon="17.4225943"><ele>91.0</ele><time>2026-04-06T15:49:55.399Z</time></trkpt><trkpt lat="40.5356843" lon="17.4223741"><ele>90.0</ele><time>2026-04-06T15:49:56.4Z</time></trkpt><trkpt lat="40.5356918" lon="17.4221528"><ele>89.33333333333333</ele><time>2026-04-06T15:49:57.399Z</time></trkpt><trkpt lat="40.5356968" lon="17.4219323"><ele>88.66666666666666</ele><time>2026-04-06T15:49:58.399Z</time></trkpt><trkpt lat="40.5357068" lon="17.4217124"><ele>88.0</ele><time>2026-04-06T15:49:59.399Z</time></trkpt><trkpt lat="40.5357146" lon="17.4214946"><ele>87.33333333333333</ele><time>2026-04-06T15:50:00.399Z</time></trkpt><trkpt lat="40.5357244" lon="17.4212688"><ele>86.66666666666667</ele><time>2026-04-06T15:50:01.399Z</time></trkpt><trkpt lat="40.5357337" lon="17.4210403"><ele>86.0</ele><time>2026-04-06T15:50:02.399Z</time></trkpt><trkpt lat="40.5357411" lon="17.4208139"><ele>86.0</ele><time>2026-04-06T15:50:03.399Z</time></trkpt><trkpt lat="40.5357501" lon="17.4205862"><ele>86.0</ele><time>2026-04-06T15:50:04.399Z</time></trkpt><trkpt lat="40.5357577" lon="17.4203625"><ele>86.0</ele><time>2026-04-06T15:50:05.399Z</time></trkpt><trkpt lat="40.5357679" lon="17.4201481"><ele>85.4</ele><time>2026-04-06T15:50:06.399Z</time></trkpt><trkpt lat="40.5357777" lon="17.4199719"><ele>84.8</ele><time>2026-04-06T15:50:07.399Z</time></trkpt><trkpt lat="40.535782" lon="17.419837"><ele>84.2</ele><time>2026-04-06T15:50:08.399Z</time></trkpt><trkpt lat="40.535791" lon="17.4197295"><ele>83.60000000000001</ele><time>2026-04-06T15:50:09.399Z</time></trkpt><trkpt lat="40.5357943" lon="17.4196396"><ele>83.0</ele><time>2026-04-06T15:50:10.399Z</time></trkpt><trkpt lat="40.5358056" lon="17.4195165"><ele>83.0</ele><time>2026-04-06T15:50:12.4Z</time></trkpt><trkpt lat="40.5357433" lon="17.4195528"><ele>83.0</ele><time>2026-04-06T15:50:17.399Z</time></trkpt><trkpt lat="40.5357502" lon="17.4196407"><ele>83.0</ele><time>2026-04-06T15:50:18.399Z</time></trkpt><trkpt lat="40.5357462" lon="17.4197349"><ele>83.0</ele><time>2026-04-06T15:50:19.399Z</time></trkpt><trkpt lat="40.5357144" lon="17.4198436"><ele>83.0</ele><time>2026-04-06T15:50:21.4Z</time></trkpt><trkpt lat="40.5356486" lon="17.4198715"><ele>83.0</ele><time>2026-04-06T15:50:23.399Z</time></trkpt><trkpt lat="40.5355594" lon="17.4198678"><ele>83.0</ele><time>2026-04-06T15:50:25.399Z</time></trkpt><trkpt lat="40.5354257" lon="17.4198406"><ele>83.0</ele><time>2026-04-06T15:50:27.399Z</time></trkpt><trkpt lat="40.5353413" lon="17.4198306"><ele>83.0</ele><time>2026-04-06T15:50:28.399Z</time></trkpt><trkpt lat="40.5352535" lon="17.4198222"><ele>83.0</ele><time>2026-04-06T15:50:29.399Z</time></trkpt><trkpt lat="40.5351564" lon="17.4198071"><ele>83.0</ele><time>2026-04-06T15:50:30.399Z</time></trkpt><trkpt lat="40.5350639" lon="17.4197808"><ele>82.80000000000001</ele><time>2026-04-06T15:50:31.399Z</time></trkpt><trkpt lat="40.5349778" lon="17.4197362"><ele>82.6</ele><time>2026-04-06T15:50:32.399Z</time></trkpt><trkpt lat="40.5348862" lon="17.4196842"><ele>82.4</ele><time>2026-04-06T15:50:33.399Z</time></trkpt><trkpt lat="40.5347966" lon="17.4196268"><ele>82.19999999999999</ele><time>2026-04-06T15:50:34.399Z</time></trkpt><trkpt lat="40.5347037" lon="17.4195678"><ele>82.0</ele><time>2026-04-06T15:50:35.399Z</time></trkpt><trkpt lat="40.5346084" lon="17.4195059"><ele>82.0</ele><time>2026-04-06T15:50:36.399Z</time></trkpt><trkpt lat="40.5345155" lon="17.4194462"><ele>82.0</ele><time>2026-04-06T15:50:37.399Z</time></trkpt><trkpt lat="40.5344225" lon="17.419389"><ele>82.0</ele><time>2026-04-06T15:50:38.399Z</time></trkpt><trkpt lat="40.5343341" lon="17.4193358"><ele>82.0</ele><time>2026-04-06T15:50:39.399Z</time></trkpt><trkpt lat="40.5342496" lon="17.4192827"><ele>82.0</ele><time>2026-04-06T15:50:40.399Z</time></trkpt><trkpt lat="40.5341672" lon="17.419231"><ele>82.0</ele><time>2026-04-06T15:50:41.399Z</time></trkpt><trkpt lat="40.5340875" lon="17.4191794"><ele>82.0</ele><time>2026-04-06T15:50:42.399Z</time></trkpt><trkpt lat="40.5340106" lon="17.4191316"><ele>82.0</ele><time>2026-04-06T15:50:43.399Z</time></trkpt><trkpt lat="40.5339374" lon="17.4190862"><ele>82.0</ele><time>2026-04-06T15:50:44.399Z</time></trkpt><trkpt lat="40.5338712" lon="17.4190393"><ele>82.0</ele><time>2026-04-06T15:50:45.399Z</time></trkpt><trkpt lat="40.5338049" lon="17.4189993"><ele>82.0</ele><time>2026-04-06T15:50:46.399Z</time></trkpt><trkpt lat="40.5336961" lon="17.4189424"><ele>81.66666666666666</ele><time>2026-04-06T15:50:48.399Z</time></trkpt><trkpt lat="40.533621" lon="17.4189096"><ele>81.33333333333333</ele><time>2026-04-06T15:50:50.399Z</time></trkpt><trkpt lat="40.5335689" lon="17.4188404"><ele>81.0</ele><time>2026-04-06T15:50:54.399Z</time></trkpt><trkpt lat="40.5335503" lon="17.4187118"><ele>80.66666666666667</ele><time>2026-04-06T15:50:56.399Z</time></trkpt><trkpt lat="40.5335427" lon="17.4186285"><ele>80.33333333333334</ele><time>2026-04-06T15:50:57.399Z</time></trkpt><trkpt lat="40.5335356" lon="17.4185309"><ele>80.0</ele><time>2026-04-06T15:50:59.399Z</time></trkpt><trkpt lat="40.533524" lon="17.4184367"><ele>79.57142857142857</ele><time>2026-04-06T15:51:02.399Z</time></trkpt><trkpt lat="40.5335226" lon="17.4185316"><ele>79.14285714285714</ele><time>2026-04-06T15:51:15.399Z</time></trkpt><trkpt lat="40.5335265" lon="17.41862"><ele>78.71428571428572</ele><time>2026-04-06T15:51:17.4Z</time></trkpt><trkpt lat="40.5334357" lon="17.4186201"><ele>78.28571428571428</ele><time>2026-04-06T15:51:20.399Z</time></trkpt><trkpt lat="40.5333781" lon="17.4185843"><ele>77.85714285714286</ele><time>2026-04-06T15:51:21.399Z</time></trkpt><trkpt lat="40.5333092" lon="17.4185367"><ele>77.42857142857143</ele><time>2026-04-06T15:51:22.399Z</time></trkpt><trkpt lat="40.5332447" lon="17.4184938"><ele>77.0</ele><time>2026-04-06T15:51:23.399Z</time></trkpt><trkpt lat="40.5331739" lon="17.4184466"><ele>77.0</ele><time>2026-04-06T15:51:24.399Z</time></trkpt><trkpt lat="40.5331008" lon="17.4184024"><ele>77.0</ele><time>2026-04-06T15:51:25.399Z</time></trkpt><trkpt lat="40.533028" lon="17.4183553"><ele>77.0</ele><time>2026-04-06T15:51:26.399Z</time></trkpt><trkpt lat="40.5329543" lon="17.4183062"><ele>77.0</ele><time>2026-04-06T15:51:27.399Z</time></trkpt><trkpt lat="40.5328851" lon="17.4182552"><ele>77.0</ele><time>2026-04-06T15:51:28.4Z</time></trkpt><trkpt lat="40.5328204" lon="17.4182023"><ele>77.0</ele><time>2026-04-06T15:51:29.399Z</time></trkpt><trkpt lat="40.5327629" lon="17.4181529"><ele>77.16666666666667</ele><time>2026-04-06T15:51:30.399Z</time></trkpt><trkpt lat="40.5326749" lon="17.4180631"><ele>77.33333333333334</ele><time>2026-04-06T15:51:32.399Z</time></trkpt><trkpt lat="40.5326138" lon="17.417997"><ele>77.5</ele><time>2026-04-06T15:51:34.399Z</time></trkpt><trkpt lat="40.5325735" lon="17.41791"><ele>77.66666666666667</ele><time>2026-04-06T15:51:37.399Z</time></trkpt><trkpt lat="40.532608" lon="17.4179933"><ele>77.83333333333333</ele><time>2026-04-06T15:51:53.399Z</time></trkpt><trkpt lat="40.5326612" lon="17.4180457"><ele>78.0</ele><time>2026-04-06T15:51:54.399Z</time></trkpt><trkpt lat="40.532723" lon="17.4181047"><ele>78.0</ele><time>2026-04-06T15:51:55.399Z</time></trkpt><trkpt lat="40.532789" lon="17.4181637"><ele>78.0</ele><time>2026-04-06T15:51:56.399Z</time></trkpt><trkpt lat="40.5328593" lon="17.4182161"><ele>78.0</ele><time>2026-04-06T15:51:57.399Z</time></trkpt><trkpt lat="40.5329305" lon="17.4182723"><ele>78.0</ele><time>2026-04-06T15:51:58.4Z</time></trkpt><trkpt lat="40.5330054" lon="17.4183245"><ele>78.0</ele><time>2026-04-06T15:51:59.4Z</time></trkpt><trkpt lat="40.5330752" lon="17.4183718"><ele>78.0</ele><time>2026-04-06T15:52:00.399Z</time></trkpt><trkpt lat="40.5331465" lon="17.4184208"><ele>77.83333333333333</ele><time>2026-04-06T15:52:01.399Z</time></trkpt><trkpt lat="40.533215" lon="17.4184668"><ele>77.66666666666667</ele><time>2026-04-06T15:52:02.399Z</time></trkpt><trkpt lat="40.5332793" lon="17.418508"><ele>77.5</ele><time>2026-04-06T15:52:03.399Z</time></trkpt><trkpt lat="40.5333869" lon="17.4185739"><ele>77.33333333333334</ele><time>2026-04-06T15:52:05.399Z</time></trkpt><trkpt lat="40.5334766" lon="17.4186226"><ele>77.16666666666667</ele><time>2026-04-06T15:52:07.399Z</time></trkpt><trkpt lat="40.5335365" lon="17.4186498"><ele>77.0</ele><time>2026-04-06T15:52:10.399Z</time></trkpt><trkpt lat="40.533538" lon="17.4185588"><ele>77.0</ele><time>2026-04-06T15:52:13.399Z</time></trkpt><trkpt lat="40.5335133" lon="17.4184088"><ele>77.0</ele><time>2026-04-06T15:52:15.399Z</time></trkpt><trkpt lat="40.5335053" lon="17.4183227"><ele>77.0</ele><time>2026-04-06T15:52:16.399Z</time></trkpt><trkpt lat="40.5334937" lon="17.4182316"><ele>77.0</ele><time>2026-04-06T15:52:17.399Z</time></trkpt><trkpt lat="40.5334775" lon="17.4181357"><ele>77.0</ele><time>2026-04-06T15:52:18.399Z</time></trkpt><trkpt lat="40.5334674" lon="17.4180382"><ele>77.0</ele><time>2026-04-06T15:52:19.399Z</time></trkpt><trkpt lat="40.5334784" lon="17.417936"><ele>77.16666666666667</ele><time>2026-04-06T15:52:20.399Z</time></trkpt><trkpt lat="40.5335067" lon="17.4178322"><ele>77.33333333333334</ele><time>2026-04-06T15:52:21.399Z</time></trkpt><trkpt lat="40.5335524" lon="17.4177394"><ele>77.5</ele><time>2026-04-06T15:52:22.399Z</time></trkpt><trkpt lat="40.533598" lon="17.4176484"><ele>77.66666666666667</ele><time>2026-04-06T15:52:23.399Z</time></trkpt><trkpt lat="40.533632" lon="17.4175502"><ele>77.83333333333333</ele><time>2026-04-06T15:52:24.399Z</time></trkpt><trkpt lat="40.5336373" lon="17.4174401"><ele>78.0</ele><time>2026-04-06T15:52:25.399Z</time></trkpt><trkpt lat="40.5336187" lon="17.417317"><ele>78.0</ele><time>2026-04-06T15:52:26.399Z</time></trkpt><trkpt lat="40.5336008" lon="17.4171732"><ele>78.0</ele><time>2026-04-06T15:52:27.399Z</time></trkpt><trkpt lat="40.5335862" lon="17.4170242"><ele>78.0</ele><time>2026-04-06T15:52:28.399Z</time></trkpt><trkpt lat="40.5335749" lon="17.4168556"><ele>78.0</ele><time>2026-04-06T15:52:29.399Z</time></trkpt><trkpt lat="40.5335593" lon="17.4166544"><ele>77.25</ele><time>2026-04-06T15:52:30.399Z</time></trkpt><trkpt lat="40.5335397" lon="17.4164732"><ele>76.5</ele><time>2026-04-06T15:52:31.399Z</time></trkpt><trkpt lat="40.5335275" lon="17.416323"><ele>75.75</ele><time>2026-04-06T15:52:32.399Z</time></trkpt><trkpt lat="40.5335115" lon="17.4161842"><ele>75.0</ele><time>2026-04-06T15:52:33.399Z</time></trkpt><trkpt lat="40.5334944" lon="17.4160328"><ele>75.0</ele><time>2026-04-06T15:52:34.399Z</time></trkpt><trkpt lat="40.5334843" lon="17.4158681"><ele>75.0</ele><time>2026-04-06T15:52:35.4Z</time></trkpt><trkpt lat="40.533477" lon="17.4157015"><ele>75.0</ele><time>2026-04-06T15:52:36.399Z</time></trkpt><trkpt lat="40.5334596" lon="17.4155305"><ele>75.0</ele><time>2026-04-06T15:52:37.399Z</time></trkpt><trkpt lat="40.5334393" lon="17.4153637"><ele>75.0</ele><time>2026-04-06T15:52:38.399Z</time></trkpt><trkpt lat="40.5334201" lon="17.4151885"><ele>75.0</ele><time>2026-04-06T15:52:39.399Z</time></trkpt><trkpt lat="40.5334027" lon="17.4150007"><ele>75.0</ele><time>2026-04-06T15:52:40.4Z</time></trkpt><trkpt lat="40.5333899" lon="17.4147896"><ele>75.0</ele><time>2026-04-06T15:52:41.399Z</time></trkpt><trkpt lat="40.5333761" lon="17.4145803"><ele>75.0</ele><time>2026-04-06T15:52:42.4Z</time></trkpt><trkpt lat="40.5333655" lon="17.4143773"><ele>75.0</ele><time>2026-04-06T15:52:43.399Z</time></trkpt><trkpt lat="40.5333579" lon="17.4141725"><ele>75.0</ele><time>2026-04-06T15:52:44.399Z</time></trkpt><trkpt lat="40.5333532" lon="17.4139655"><ele>75.25</ele><time>2026-04-06T15:52:45.399Z</time></trkpt><trkpt lat="40.5333487" lon="17.4137652"><ele>75.5</ele><time>2026-04-06T15:52:46.399Z</time></trkpt><trkpt lat="40.5333459" lon="17.4135755"><ele>75.75</ele><time>2026-04-06T15:52:47.399Z</time></trkpt><trkpt lat="40.533343" lon="17.4133903"><ele>76.0</ele><time>2026-04-06T15:52:48.399Z</time></trkpt><trkpt lat="40.5333383" lon="17.413218"><ele>76.0</ele><time>2026-04-06T15:52:49.399Z</time></trkpt><trkpt lat="40.5333251" lon="17.4130464"><ele>76.0</ele><time>2026-04-06T15:52:50.399Z</time></trkpt><trkpt lat="40.533311" lon="17.4128668"><ele>76.0</ele><time>2026-04-06T15:52:51.399Z</time></trkpt><trkpt lat="40.5332929" lon="17.4126915"><ele>76.0</ele><time>2026-04-06T15:52:52.399Z</time></trkpt><trkpt lat="40.5332796" lon="17.4125147"><ele>76.5</ele><time>2026-04-06T15:52:53.399Z</time></trkpt><trkpt lat="40.5332672" lon="17.4123442"><ele>77.0</ele><time>2026-04-06T15:52:54.399Z</time></trkpt><trkpt lat="40.5332524" lon="17.4121766"><ele>77.5</ele><time>2026-04-06T15:52:55.399Z</time></trkpt><trkpt lat="40.5332329" lon="17.412012"><ele>78.0</ele><time>2026-04-06T15:52:56.4Z</time></trkpt><trkpt lat="40.5332112" lon="17.4118425"><ele>78.0</ele><time>2026-04-06T15:52:57.4Z</time></trkpt><trkpt lat="40.5331895" lon="17.41167"><ele>78.0</ele><time>2026-04-06T15:52:58.4Z</time></trkpt><trkpt lat="40.5331675" lon="17.4114936"><ele>78.0</ele><time>2026-04-06T15:52:59.399Z</time></trkpt><trkpt lat="40.5331351" lon="17.4113218"><ele>78.0</ele><time>2026-04-06T15:53:00.399Z</time></trkpt><trkpt lat="40.5330996" lon="17.4111655"><ele>78.75</ele><time>2026-04-06T15:53:01.399Z</time></trkpt><trkpt lat="40.5330609" lon="17.4110079"><ele>79.5</ele><time>2026-04-06T15:53:02.399Z</time></trkpt><trkpt lat="40.5330233" lon="17.41084"><ele>80.25</ele><time>2026-04-06T15:53:03.399Z</time></trkpt><trkpt lat="40.5329865" lon="17.4106711"><ele>81.0</ele><time>2026-04-06T15:53:04.4Z</time></trkpt><trkpt lat="40.5329479" lon="17.4105044"><ele>81.5</ele><time>2026-04-06T15:53:05.399Z</time></trkpt><trkpt lat="40.5329106" lon="17.4103455"><ele>82.0</ele><time>2026-04-06T15:53:06.399Z</time></trkpt><trkpt lat="40.5328733" lon="17.4101936"><ele>82.5</ele><time>2026-04-06T15:53:07.399Z</time></trkpt><trkpt lat="40.5328238" lon="17.4100643"><ele>83.0</ele><time>2026-04-06T15:53:08.399Z</time></trkpt><trkpt lat="40.5327679" lon="17.4099366"><ele>83.0</ele><time>2026-04-06T15:53:09.399Z</time></trkpt><trkpt lat="40.5327062" lon="17.4098261"><ele>83.0</ele><time>2026-04-06T15:53:10.399Z</time></trkpt><trkpt lat="40.5326444" lon="17.4097326"><ele>83.0</ele><time>2026-04-06T15:53:11.399Z</time></trkpt><trkpt lat="40.5325972" lon="17.4096282"><ele>83.0</ele><time>2026-04-06T15:53:12.399Z</time></trkpt><trkpt lat="40.532573" lon="17.4094986"><ele>83.0</ele><time>2026-04-06T15:53:13.399Z</time></trkpt><trkpt lat="40.5325584" lon="17.4093464"><ele>83.4</ele><time>2026-04-06T15:53:14.399Z</time></trkpt><trkpt lat="40.5325411" lon="17.4091931"><ele>83.80000000000001</ele><time>2026-04-06T15:53:15.399Z</time></trkpt><trkpt lat="40.5325248" lon="17.4090489"><ele>84.2</ele><time>2026-04-06T15:53:16.399Z</time></trkpt><trkpt lat="40.532509" lon="17.4089275"><ele>84.6</ele><time>2026-04-06T15:53:17.399Z</time></trkpt><trkpt lat="40.5324788" lon="17.4088173"><ele>85.0</ele><time>2026-04-06T15:53:18.399Z</time></trkpt><trkpt lat="40.5324462" lon="17.408702"><ele>85.66666666666666</ele><time>2026-04-06T15:53:19.399Z</time></trkpt><trkpt lat="40.5324208" lon="17.4085999"><ele>86.33333333333333</ele><time>2026-04-06T15:53:20.399Z</time></trkpt><trkpt lat="40.5323939" lon="17.4085193"><ele>87.0</ele><time>2026-04-06T15:53:21.399Z</time></trkpt><trkpt lat="40.5323432" lon="17.408424"><ele>87.66666666666667</ele><time>2026-04-06T15:53:23.399Z</time></trkpt><trkpt lat="40.5323272" lon="17.408317"><ele>88.33333333333334</ele><time>2026-04-06T15:53:30.399Z</time></trkpt><trkpt lat="40.5323172" lon="17.4081962"><ele>89.0</ele><time>2026-04-06T15:53:32.399Z</time></trkpt><trkpt lat="40.5323085" lon="17.4080763"><ele>89.0</ele><time>2026-04-06T15:53:34.399Z</time></trkpt><trkpt lat="40.532296" lon="17.4079514"><ele>89.0</ele><time>2026-04-06T15:53:36.399Z</time></trkpt><trkpt lat="40.532274" lon="17.4078682"><ele>89.0</ele><time>2026-04-06T15:53:39.399Z</time></trkpt><trkpt lat="40.5323022" lon="17.407973"><ele>89.0</ele><time>2026-04-06T15:54:18.399Z</time></trkpt><trkpt lat="40.5323132" lon="17.4080626"><ele>89.0</ele><time>2026-04-06T15:54:19.399Z</time></trkpt><trkpt lat="40.5323196" lon="17.4082255"><ele>89.0</ele><time>2026-04-06T15:54:21.399Z</time></trkpt><trkpt lat="40.5323378" lon="17.408366"><ele>89.0</ele><time>2026-04-06T15:54:23.4Z</time></trkpt><trkpt lat="40.5323772" lon="17.4085055"><ele>89.0</ele><time>2026-04-06T15:54:25.399Z</time></trkpt><trkpt lat="40.5324103" lon="17.4086055"><ele>89.0</ele><time>2026-04-06T15:54:26.399Z</time></trkpt><trkpt lat="40.5324451" lon="17.4087016"><ele>89.0</ele><time>2026-04-06T15:54:27.399Z</time></trkpt><trkpt lat="40.532479" lon="17.4088002"><ele>89.0</ele><time>2026-04-06T15:54:28.399Z</time></trkpt><trkpt lat="40.5325027" lon="17.4089049"><ele>89.0</ele><time>2026-04-06T15:54:29.399Z</time></trkpt><trkpt lat="40.5325238" lon="17.4090167"><ele>88.33333333333334</ele><time>2026-04-06T15:54:30.399Z</time></trkpt><trkpt lat="40.5325389" lon="17.4091444"><ele>87.66666666666667</ele><time>2026-04-06T15:54:31.4Z</time></trkpt><trkpt lat="40.5325492" lon="17.4092732"><ele>87.0</ele><time>2026-04-06T15:54:32.399Z</time></trkpt><trkpt lat="40.5325632" lon="17.409387"><ele>86.33333333333333</ele><time>2026-04-06T15:54:33.399Z</time></trkpt><trkpt lat="40.532578" lon="17.4094897"><ele>85.66666666666666</ele><time>2026-04-06T15:54:34.399Z</time></trkpt><trkpt lat="40.5325954" lon="17.4095808"><ele>85.0</ele><time>2026-04-06T15:54:35.399Z</time></trkpt><trkpt lat="40.5326219" lon="17.4096658"><ele>84.6</ele><time>2026-04-06T15:54:36.398Z</time></trkpt><trkpt lat="40.5326656" lon="17.4097519"><ele>84.2</ele><time>2026-04-06T15:54:37.398Z</time></trkpt><trkpt lat="40.5327241" lon="17.4098472"><ele>83.80000000000001</ele><time>2026-04-06T15:54:38.398Z</time></trkpt><trkpt lat="40.5327853" lon="17.4099501"><ele>83.4</ele><time>2026-04-06T15:54:39.398Z</time></trkpt><trkpt lat="40.532832" lon="17.4100573"><ele>83.0</ele><time>2026-04-06T15:54:40.398Z</time></trkpt><trkpt lat="40.5328676" lon="17.4101771"><ele>83.25</ele><time>2026-04-06T15:54:41.398Z</time></trkpt><trkpt lat="40.5329012" lon="17.4103198"><ele>83.5</ele><time>2026-04-06T15:54:42.398Z</time></trkpt><trkpt lat="40.5329377" lon="17.4104672"><ele>83.75</ele><time>2026-04-06T15:54:43.398Z</time></trkpt><trkpt lat="40.5329798" lon="17.4106226"><ele>84.0</ele><time>2026-04-06T15:54:44.398Z</time></trkpt><trkpt lat="40.5330155" lon="17.4107899"><ele>83.25</ele><time>2026-04-06T15:54:45.398Z</time></trkpt><trkpt lat="40.5330504" lon="17.4109603"><ele>82.5</ele><time>2026-04-06T15:54:46.398Z</time></trkpt><trkpt lat="40.5330852" lon="17.4111303"><ele>81.75</ele><time>2026-04-06T15:54:47.399Z</time></trkpt><trkpt lat="40.533126" lon="17.4113187"><ele>81.0</ele><time>2026-04-06T15:54:48.398Z</time></trkpt><trkpt lat="40.5331652" lon="17.4115463"><ele>80.0</ele><time>2026-04-06T15:54:49.398Z</time></trkpt><trkpt lat="40.5331937" lon="17.4117614"><ele>79.0</ele><time>2026-04-06T15:54:50.398Z</time></trkpt><trkpt lat="40.5332167" lon="17.4119657"><ele>78.0</ele><time>2026-04-06T15:54:51.398Z</time></trkpt><trkpt lat="40.5332401" lon="17.4121631"><ele>78.0</ele><time>2026-04-06T15:54:52.399Z</time></trkpt><trkpt lat="40.5332592" lon="17.4123504"><ele>78.0</ele><time>2026-04-06T15:54:53.399Z</time></trkpt><trkpt lat="40.5332757" lon="17.412527"><ele>78.0</ele><time>2026-04-06T15:54:54.399Z</time></trkpt><trkpt lat="40.5332854" lon="17.4126755"><ele>78.0</ele><time>2026-04-06T15:54:55.398Z</time></trkpt><trkpt lat="40.5332961" lon="17.4127955"><ele>78.0</ele><time>2026-04-06T15:54:56.398Z</time></trkpt><trkpt lat="40.533301" lon="17.4128965"><ele>78.0</ele><time>2026-04-06T15:54:57.398Z</time></trkpt><trkpt lat="40.5333345" lon="17.4130386"><ele>78.0</ele><time>2026-04-06T15:54:59.398Z</time></trkpt><trkpt lat="40.5334192" lon="17.4131298"><ele>78.0</ele><time>2026-04-06T15:55:01.398Z</time></trkpt><trkpt lat="40.533493" lon="17.4131777"><ele>78.0</ele><time>2026-04-06T15:55:02.398Z</time></trkpt><trkpt lat="40.5336181" lon="17.4132246"><ele>77.66666666666667</ele><time>2026-04-06T15:55:03.398Z</time></trkpt><trkpt lat="40.5337599" lon="17.4132746"><ele>77.33333333333334</ele><time>2026-04-06T15:55:04.398Z</time></trkpt><trkpt lat="40.5339057" lon="17.4133269"><ele>77.0</ele><time>2026-04-06T15:55:05.398Z</time></trkpt><trkpt lat="40.5340556" lon="17.4133862"><ele>77.0</ele><time>2026-04-06T15:55:06.398Z</time></trkpt><trkpt lat="40.53421" lon="17.4134441"><ele>77.0</ele><time>2026-04-06T15:55:07.398Z</time></trkpt><trkpt lat="40.5343544" lon="17.4134975"><ele>77.0</ele><time>2026-04-06T15:55:08.398Z</time></trkpt><trkpt lat="40.5344956" lon="17.4135506"><ele>77.0</ele><time>2026-04-06T15:55:09.398Z</time></trkpt><trkpt lat="40.5346361" lon="17.4136018"><ele>77.0</ele><time>2026-04-06T15:55:10.398Z</time></trkpt><trkpt lat="40.5347713" lon="17.41365"><ele>77.0</ele><time>2026-04-06T15:55:11.398Z</time></trkpt><trkpt lat="40.5348946" lon="17.4137004"><ele>77.0</ele><time>2026-04-06T15:55:12.398Z</time></trkpt><trkpt lat="40.5350191" lon="17.4137445"><ele>77.0</ele><time>2026-04-06T15:55:13.398Z</time></trkpt><trkpt lat="40.5351664" lon="17.4137956"><ele>77.0</ele><time>2026-04-06T15:55:14.398Z</time></trkpt><trkpt lat="40.5353115" lon="17.4138477"><ele>77.0</ele><time>2026-04-06T15:55:15.398Z</time></trkpt><trkpt lat="40.5354401" lon="17.4138852"><ele>77.0</ele><time>2026-04-06T15:55:16.398Z</time></trkpt><trkpt lat="40.5355476" lon="17.4139274"><ele>77.0</ele><time>2026-04-06T15:55:17.399Z</time></trkpt><trkpt lat="40.5356437" lon="17.413962"><ele>77.0</ele><time>2026-04-06T15:55:18.398Z</time></trkpt><trkpt lat="40.5357277" lon="17.4139927"><ele>77.0</ele><time>2026-04-06T15:55:19.398Z</time></trkpt><trkpt lat="40.5357961" lon="17.4140187"><ele>77.0</ele><time>2026-04-06T15:55:20.398Z</time></trkpt><trkpt lat="40.5358894" lon="17.414038"><ele>77.0</ele><time>2026-04-06T15:55:22.398Z</time></trkpt><trkpt lat="40.5359724" lon="17.4139742"><ele>77.0</ele><time>2026-04-06T15:55:30.399Z</time></trkpt><trkpt lat="40.5359841" lon="17.4137703"><ele>77.0</ele><time>2026-04-06T15:55:32.399Z</time></trkpt><trkpt lat="40.5359797" lon="17.4135934"><ele>77.0</ele><time>2026-04-06T15:55:33.399Z</time></trkpt><trkpt lat="40.5359896" lon="17.4133814"><ele>77.0</ele><time>2026-04-06T15:55:34.399Z</time></trkpt><trkpt lat="40.5360006" lon="17.4131495"><ele>77.0</ele><time>2026-04-06T15:55:35.398Z</time></trkpt><trkpt lat="40.5360094" lon="17.4129068"><ele>77.0</ele><time>2026-04-06T15:55:36.398Z</time></trkpt><trkpt lat="40.5360198" lon="17.4126594"><ele>77.0</ele><time>2026-04-06T15:55:37.398Z</time></trkpt><trkpt lat="40.5360361" lon="17.4124076"><ele>77.66666666666667</ele><time>2026-04-06T15:55:38.398Z</time></trkpt><trkpt lat="40.5360526" lon="17.4121287"><ele>78.33333333333333</ele><time>2026-04-06T15:55:39.398Z</time></trkpt><trkpt lat="40.5360641" lon="17.4118472"><ele>79.0</ele><time>2026-04-06T15:55:40.398Z</time></trkpt><trkpt lat="40.5360735" lon="17.4115628"><ele>79.66666666666666</ele><time>2026-04-06T15:55:41.398Z</time></trkpt><trkpt lat="40.5360854" lon="17.4112884"><ele>80.33333333333333</ele><time>2026-04-06T15:55:42.398Z</time></trkpt><trkpt lat="40.5360984" lon="17.4110494"><ele>81.0</ele><time>2026-04-06T15:55:43.398Z</time></trkpt><trkpt lat="40.5361114" lon="17.410824"><ele>81.0</ele><time>2026-04-06T15:55:44.399Z</time></trkpt><trkpt lat="40.5361226" lon="17.4106081"><ele>81.0</ele><time>2026-04-06T15:55:45.398Z</time></trkpt><trkpt lat="40.5361272" lon="17.4103958"><ele>81.0</ele><time>2026-04-06T15:55:46.398Z</time></trkpt><trkpt lat="40.5361333" lon="17.4101843"><ele>81.0</ele><time>2026-04-06T15:55:47.398Z</time></trkpt><trkpt lat="40.5361399" lon="17.4099689"><ele>81.0</ele><time>2026-04-06T15:55:48.398Z</time></trkpt><trkpt lat="40.5361463" lon="17.4097456"><ele>81.0</ele><time>2026-04-06T15:55:49.399Z</time></trkpt><trkpt lat="40.5361537" lon="17.4095098"><ele>82.33333333333333</ele><time>2026-04-06T15:55:50.399Z</time></trkpt><trkpt lat="40.5361621" lon="17.4092644"><ele>83.66666666666666</ele><time>2026-04-06T15:55:51.398Z</time></trkpt><trkpt lat="40.5361734" lon="17.409007"><ele>85.0</ele><time>2026-04-06T15:55:52.398Z</time></trkpt><trkpt lat="40.5361839" lon="17.4087494"><ele>85.66666666666666</ele><time>2026-04-06T15:55:53.398Z</time></trkpt><trkpt lat="40.5361955" lon="17.4085008"><ele>86.33333333333333</ele><time>2026-04-06T15:55:54.398Z</time></trkpt><trkpt lat="40.5362059" lon="17.408258"><ele>87.0</ele><time>2026-04-06T15:55:55.398Z</time></trkpt><trkpt lat="40.5362148" lon="17.4080197"><ele>87.0</ele><time>2026-04-06T15:55:56.398Z</time></trkpt><trkpt lat="40.5362186" lon="17.4077777"><ele>87.0</ele><time>2026-04-06T15:55:57.398Z</time></trkpt><trkpt lat="40.5362254" lon="17.4075114"><ele>87.0</ele><time>2026-04-06T15:55:58.398Z</time></trkpt><trkpt lat="40.536233" lon="17.4072379"><ele>87.66666666666667</ele><time>2026-04-06T15:55:59.398Z</time></trkpt><trkpt lat="40.5362431" lon="17.4069659"><ele>88.33333333333334</ele><time>2026-04-06T15:56:00.398Z</time></trkpt><trkpt lat="40.5362547" lon="17.4067123"><ele>89.0</ele><time>2026-04-06T15:56:01.398Z</time></trkpt><trkpt lat="40.5362609" lon="17.406491"><ele>89.4</ele><time>2026-04-06T15:56:02.398Z</time></trkpt><trkpt lat="40.5362652" lon="17.4063082"><ele>89.80000000000001</ele><time>2026-04-06T15:56:03.398Z</time></trkpt><trkpt lat="40.5362696" lon="17.4061571"><ele>90.19999999999999</ele><time>2026-04-06T15:56:04.398Z</time></trkpt><trkpt lat="40.5362823" lon="17.4060252"><ele>90.6</ele><time>2026-04-06T15:56:05.398Z</time></trkpt><trkpt lat="40.5362891" lon="17.4059053"><ele>91.0</ele><time>2026-04-06T15:56:06.398Z</time></trkpt><trkpt lat="40.5362879" lon="17.4057968"><ele>91.0</ele><time>2026-04-06T15:56:07.399Z</time></trkpt><trkpt lat="40.5362901" lon="17.4056835"><ele>91.0</ele><time>2026-04-06T15:56:08.398Z</time></trkpt><trkpt lat="40.5362966" lon="17.4055643"><ele>91.0</ele><time>2026-04-06T15:56:09.398Z</time></trkpt><trkpt lat="40.536305" lon="17.4054466"><ele>91.0</ele><time>2026-04-06T15:56:10.398Z</time></trkpt><trkpt lat="40.5363103" lon="17.4053303"><ele>91.0</ele><time>2026-04-06T15:56:11.398Z</time></trkpt><trkpt lat="40.5363125" lon="17.4052093"><ele>91.0</ele><time>2026-04-06T15:56:12.398Z</time></trkpt><trkpt lat="40.5363175" lon="17.4050823"><ele>91.4</ele><time>2026-04-06T15:56:13.398Z</time></trkpt><trkpt lat="40.5363257" lon="17.4049601"><ele>91.8</ele><time>2026-04-06T15:56:14.398Z</time></trkpt><trkpt lat="40.5363308" lon="17.4048417"><ele>92.2</ele><time>2026-04-06T15:56:15.398Z</time></trkpt><trkpt lat="40.5363297" lon="17.4047139"><ele>92.60000000000001</ele><time>2026-04-06T15:56:16.398Z</time></trkpt><trkpt lat="40.5363346" lon="17.4045657"><ele>93.0</ele><time>2026-04-06T15:56:17.398Z</time></trkpt><trkpt lat="40.5363403" lon="17.4044095"><ele>93.25</ele><time>2026-04-06T15:56:18.398Z</time></trkpt><trkpt lat="40.5363418" lon="17.4042507"><ele>93.5</ele><time>2026-04-06T15:56:19.398Z</time></trkpt><trkpt lat="40.5363481" lon="17.4040848"><ele>93.75</ele><time>2026-04-06T15:56:20.398Z</time></trkpt><trkpt lat="40.5363574" lon="17.4039172"><ele>94.0</ele><time>2026-04-06T15:56:21.398Z</time></trkpt><trkpt lat="40.5363617" lon="17.40375"><ele>94.5</ele><time>2026-04-06T15:56:22.398Z</time></trkpt><trkpt lat="40.5363652" lon="17.4035726"><ele>95.0</ele><time>2026-04-06T15:56:23.398Z</time></trkpt><trkpt lat="40.5363678" lon="17.4033871"><ele>95.5</ele><time>2026-04-06T15:56:24.398Z</time></trkpt><trkpt lat="40.5363776" lon="17.4032018"><ele>96.0</ele><time>2026-04-06T15:56:25.398Z</time></trkpt><trkpt lat="40.5363846" lon="17.4030216"><ele>96.0</ele><time>2026-04-06T15:56:26.398Z</time></trkpt><trkpt lat="40.5363936" lon="17.4028396"><ele>96.0</ele><time>2026-04-06T15:56:27.399Z</time></trkpt><trkpt lat="40.5363995" lon="17.4026601"><ele>96.0</ele><time>2026-04-06T15:56:28.398Z</time></trkpt><trkpt lat="40.5364069" lon="17.4024871"><ele>96.0</ele><time>2026-04-06T15:56:29.398Z</time></trkpt><trkpt lat="40.5364131" lon="17.4023209"><ele>96.0</ele><time>2026-04-06T15:56:30.398Z</time></trkpt><trkpt lat="40.5364223" lon="17.4021632"><ele>96.0</ele><time>2026-04-06T15:56:31.398Z</time></trkpt><trkpt lat="40.5364286" lon="17.4020158"><ele>96.0</ele><time>2026-04-06T15:56:32.398Z</time></trkpt><trkpt lat="40.5364274" lon="17.4018693"><ele>96.0</ele><time>2026-04-06T15:56:33.398Z</time></trkpt><trkpt lat="40.5364296" lon="17.4017193"><ele>96.0</ele><time>2026-04-06T15:56:34.398Z</time></trkpt><trkpt lat="40.5364377" lon="17.4015562"><ele>96.0</ele><time>2026-04-06T15:56:35.398Z</time></trkpt><trkpt lat="40.5364448" lon="17.401386"><ele>96.0</ele><time>2026-04-06T15:56:36.398Z</time></trkpt><trkpt lat="40.5364514" lon="17.4012112"><ele>96.0</ele><time>2026-04-06T15:56:37.398Z</time></trkpt><trkpt lat="40.5364639" lon="17.4010487"><ele>95.5</ele><time>2026-04-06T15:56:38.398Z</time></trkpt><trkpt lat="40.5364719" lon="17.4009101"><ele>95.0</ele><time>2026-04-06T15:56:39.398Z</time></trkpt><trkpt lat="40.5364818" lon="17.4007842"><ele>94.5</ele><time>2026-04-06T15:56:40.398Z</time></trkpt><trkpt lat="40.5364953" lon="17.4006742"><ele>94.0</ele><time>2026-04-06T15:56:41.398Z</time></trkpt><trkpt lat="40.5365059" lon="17.4005885"><ele>93.5</ele><time>2026-04-06T15:56:42.398Z</time></trkpt><trkpt lat="40.5365215" lon="17.4004813"><ele>93.0</ele><time>2026-04-06T15:56:44.398Z</time></trkpt><trkpt lat="40.5365497" lon="17.4003287"><ele>92.5</ele><time>2026-04-06T15:57:48.398Z</time></trkpt><trkpt lat="40.5365642" lon="17.4002297"><ele>92.0</ele><time>2026-04-06T15:57:49.399Z</time></trkpt><trkpt lat="40.5365879" lon="17.4000941"><ele>91.5</ele><time>2026-04-06T15:57:50.398Z</time></trkpt><trkpt lat="40.5366312" lon="17.3999307"><ele>91.0</ele><time>2026-04-06T15:57:51.398Z</time></trkpt><trkpt lat="40.5366894" lon="17.3997269"><ele>90.66666666666666</ele><time>2026-04-06T15:57:52.398Z</time></trkpt><trkpt lat="40.5367538" lon="17.3994714"><ele>90.33333333333333</ele><time>2026-04-06T15:57:53.398Z</time></trkpt><trkpt lat="40.5368296" lon="17.3992045"><ele>90.0</ele><time>2026-04-06T15:57:54.398Z</time></trkpt><trkpt lat="40.5368987" lon="17.3989591"><ele>89.33333333333333</ele><time>2026-04-06T15:57:55.398Z</time></trkpt><trkpt lat="40.5369694" lon="17.3987183"><ele>88.66666666666666</ele><time>2026-04-06T15:57:56.398Z</time></trkpt><trkpt lat="40.5370359" lon="17.3984805"><ele>88.0</ele><time>2026-04-06T15:57:57.399Z</time></trkpt><trkpt lat="40.5371012" lon="17.3982384"><ele>87.66666666666666</ele><time>2026-04-06T15:57:58.398Z</time></trkpt><trkpt lat="40.5371659" lon="17.3979971"><ele>87.33333333333333</ele><time>2026-04-06T15:57:59.399Z</time></trkpt><trkpt lat="40.5372348" lon="17.397763"><ele>87.0</ele><time>2026-04-06T15:58:00.398Z</time></trkpt><trkpt lat="40.5373026" lon="17.3975162"><ele>87.0</ele><time>2026-04-06T15:58:01.398Z</time></trkpt><trkpt lat="40.5373736" lon="17.3972437"><ele>87.0</ele><time>2026-04-06T15:58:02.398Z</time></trkpt><trkpt lat="40.5374525" lon="17.3969607"><ele>87.0</ele><time>2026-04-06T15:58:03.398Z</time></trkpt><trkpt lat="40.5375261" lon="17.3966889"><ele>86.33333333333333</ele><time>2026-04-06T15:58:04.398Z</time></trkpt><trkpt lat="40.5375952" lon="17.396431"><ele>85.66666666666666</ele><time>2026-04-06T15:58:05.399Z</time></trkpt><trkpt lat="40.5376631" lon="17.3961745"><ele>85.0</ele><time>2026-04-06T15:58:06.398Z</time></trkpt><trkpt lat="40.5377358" lon="17.3959174"><ele>84.66666666666666</ele><time>2026-04-06T15:58:07.398Z</time></trkpt><trkpt lat="40.5378067" lon="17.3956617"><ele>84.33333333333333</ele><time>2026-04-06T15:58:08.398Z</time></trkpt><trkpt lat="40.5378709" lon="17.3954268"><ele>84.0</ele><time>2026-04-06T15:58:09.398Z</time></trkpt><trkpt lat="40.5379305" lon="17.3952065"><ele>83.33333333333333</ele><time>2026-04-06T15:58:10.398Z</time></trkpt><trkpt lat="40.537993" lon="17.3949913"><ele>82.66666666666666</ele><time>2026-04-06T15:58:11.398Z</time></trkpt><trkpt lat="40.5380531" lon="17.3947772"><ele>82.0</ele><time>2026-04-06T15:58:12.398Z</time></trkpt><trkpt lat="40.5381139" lon="17.3945385"><ele>82.0</ele><time>2026-04-06T15:58:13.398Z</time></trkpt><trkpt lat="40.5381824" lon="17.394286"><ele>82.0</ele><time>2026-04-06T15:58:14.398Z</time></trkpt><trkpt lat="40.5382532" lon="17.3940297"><ele>82.0</ele><time>2026-04-06T15:58:15.398Z</time></trkpt><trkpt lat="40.5383283" lon="17.3937578"><ele>80.33333333333333</ele><time>2026-04-06T15:58:16.398Z</time></trkpt><trkpt lat="40.5383985" lon="17.3934942"><ele>78.66666666666667</ele><time>2026-04-06T15:58:17.398Z</time></trkpt><trkpt lat="40.5384643" lon="17.3932533"><ele>77.0</ele><time>2026-04-06T15:58:18.398Z</time></trkpt><trkpt lat="40.5385259" lon="17.3930294"><ele>76.0</ele><time>2026-04-06T15:58:19.399Z</time></trkpt><trkpt lat="40.5385876" lon="17.3928165"><ele>75.0</ele><time>2026-04-06T15:58:20.398Z</time></trkpt><trkpt lat="40.5386439" lon="17.392612"><ele>74.0</ele><time>2026-04-06T15:58:21.398Z</time></trkpt><trkpt lat="40.5387005" lon="17.3924124"><ele>74.25</ele><time>2026-04-06T15:58:22.398Z</time></trkpt><trkpt lat="40.5387538" lon="17.3922238"><ele>74.5</ele><time>2026-04-06T15:58:23.398Z</time></trkpt><trkpt lat="40.5388035" lon="17.3920385"><ele>74.75</ele><time>2026-04-06T15:58:24.398Z</time></trkpt><trkpt lat="40.538847" lon="17.3918655"><ele>75.0</ele><time>2026-04-06T15:58:25.398Z</time></trkpt><trkpt lat="40.5388926" lon="17.3917021"><ele>74.8</ele><time>2026-04-06T15:58:26.398Z</time></trkpt><trkpt lat="40.5389336" lon="17.3915542"><ele>74.6</ele><time>2026-04-06T15:58:27.398Z</time></trkpt><trkpt lat="40.5389721" lon="17.3914194"><ele>74.4</ele><time>2026-04-06T15:58:28.399Z</time></trkpt><trkpt lat="40.5390022" lon="17.3913005"><ele>74.2</ele><time>2026-04-06T15:58:29.398Z</time></trkpt><trkpt lat="40.539028" lon="17.3912106"><ele>74.0</ele><time>2026-04-06T15:58:30.398Z</time></trkpt><trkpt lat="40.5390342" lon="17.3910716"><ele>74.0</ele><time>2026-04-06T15:58:32.398Z</time></trkpt><trkpt lat="40.5389693" lon="17.3910034"><ele>74.0</ele><time>2026-04-06T15:58:34.399Z</time></trkpt><trkpt lat="40.5388473" lon="17.3909385"><ele>74.0</ele><time>2026-04-06T15:58:36.398Z</time></trkpt><trkpt lat="40.5387708" lon="17.3909107"><ele>74.0</ele><time>2026-04-06T15:58:37.398Z</time></trkpt><trkpt lat="40.538688" lon="17.3908807"><ele>74.0</ele><time>2026-04-06T15:58:38.398Z</time></trkpt><trkpt lat="40.538594" lon="17.3908543"><ele>73.60000000000001</ele><time>2026-04-06T15:58:39.398Z</time></trkpt><trkpt lat="40.5384942" lon="17.390829"><ele>73.2</ele><time>2026-04-06T15:58:40.398Z</time></trkpt><trkpt lat="40.5383909" lon="17.3908076"><ele>72.80000000000001</ele><time>2026-04-06T15:58:41.398Z</time></trkpt><trkpt lat="40.5382868" lon="17.3907793"><ele>72.4</ele><time>2026-04-06T15:58:42.398Z</time></trkpt><trkpt lat="40.5381819" lon="17.3907524"><ele>72.0</ele><time>2026-04-06T15:58:43.398Z</time></trkpt><trkpt lat="40.5380802" lon="17.3907226"><ele>72.0</ele><time>2026-04-06T15:58:44.399Z</time></trkpt><trkpt lat="40.5379885" lon="17.3906937"><ele>72.0</ele><time>2026-04-06T15:58:45.398Z</time></trkpt><trkpt lat="40.5379138" lon="17.3906571"><ele>72.0</ele><time>2026-04-06T15:58:46.398Z</time></trkpt><trkpt lat="40.5378446" lon="17.390626"><ele>72.0</ele><time>2026-04-06T15:58:47.398Z</time></trkpt><trkpt lat="40.5377772" lon="17.3905911"><ele>72.0</ele><time>2026-04-06T15:58:48.398Z</time></trkpt><trkpt lat="40.5377063" lon="17.3905554"><ele>72.0</ele><time>2026-04-06T15:58:49.398Z</time></trkpt><trkpt lat="40.5376347" lon="17.3905158"><ele>72.0</ele><time>2026-04-06T15:58:50.399Z</time></trkpt><trkpt lat="40.5375649" lon="17.3904741"><ele>72.0</ele><time>2026-04-06T15:58:51.398Z</time></trkpt><trkpt lat="40.5374932" lon="17.3904212"><ele>72.0</ele><time>2026-04-06T15:58:52.398Z</time></trkpt><trkpt lat="40.5374163" lon="17.3903563"><ele>72.0</ele><time>2026-04-06T15:58:53.398Z</time></trkpt><trkpt lat="40.5373391" lon="17.390288"><ele>72.0</ele><time>2026-04-06T15:58:54.398Z</time></trkpt><trkpt lat="40.5372605" lon="17.3902141"><ele>72.0</ele><time>2026-04-06T15:58:55.398Z</time></trkpt><trkpt lat="40.5371776" lon="17.3901304"><ele>72.0</ele><time>2026-04-06T15:58:56.398Z</time></trkpt><trkpt lat="40.5371015" lon="17.3900386"><ele>72.0</ele><time>2026-04-06T15:58:57.398Z</time></trkpt><trkpt lat="40.5370293" lon="17.3899512"><ele>72.0</ele><time>2026-04-06T15:58:58.399Z</time></trkpt><trkpt lat="40.5369551" lon="17.3898651"><ele>72.0</ele><time>2026-04-06T15:58:59.398Z</time></trkpt><trkpt lat="40.5368824" lon="17.3897683"><ele>72.0</ele><time>2026-04-06T15:59:00.398Z</time></trkpt><trkpt lat="40.5368072" lon="17.3896732"><ele>71.8</ele><time>2026-04-06T15:59:01.398Z</time></trkpt><trkpt lat="40.5367295" lon="17.3895728"><ele>71.6</ele><time>2026-04-06T15:59:02.398Z</time></trkpt><trkpt lat="40.5366542" lon="17.3894745"><ele>71.39999999999999</ele><time>2026-04-06T15:59:03.398Z</time></trkpt><trkpt lat="40.5365833" lon="17.3893772"><ele>71.2</ele><time>2026-04-06T15:59:04.399Z</time></trkpt><trkpt lat="40.5365185" lon="17.3892798"><ele>71.0</ele><time>2026-04-06T15:59:05.398Z</time></trkpt><trkpt lat="40.536454" lon="17.3891766"><ele>71.0</ele><time>2026-04-06T15:59:06.398Z</time></trkpt><trkpt lat="40.5363817" lon="17.3890767"><ele>71.0</ele><time>2026-04-06T15:59:07.398Z</time></trkpt><trkpt lat="40.5363014" lon="17.3889803"><ele>71.0</ele><time>2026-04-06T15:59:08.399Z</time></trkpt><trkpt lat="40.5362163" lon="17.3888704"><ele>71.0</ele><time>2026-04-06T15:59:09.398Z</time></trkpt><trkpt lat="40.536133" lon="17.3887603"><ele>70.6</ele><time>2026-04-06T15:59:10.398Z</time></trkpt><trkpt lat="40.5360487" lon="17.3886588"><ele>70.19999999999999</ele><time>2026-04-06T15:59:11.398Z</time></trkpt><trkpt lat="40.5359726" lon="17.388559"><ele>69.80000000000001</ele><time>2026-04-06T15:59:12.398Z</time></trkpt><trkpt lat="40.5358907" lon="17.3884575"><ele>69.4</ele><time>2026-04-06T15:59:13.398Z</time></trkpt><trkpt lat="40.535812" lon="17.3883498"><ele>69.0</ele><time>2026-04-06T15:59:14.398Z</time></trkpt><trkpt lat="40.5357368" lon="17.3882436"><ele>69.0</ele><time>2026-04-06T15:59:15.398Z</time></trkpt><trkpt lat="40.5356638" lon="17.3881466"><ele>69.0</ele><time>2026-04-06T15:59:16.398Z</time></trkpt><trkpt lat="40.5355974" lon="17.3880583"><ele>69.0</ele><time>2026-04-06T15:59:17.398Z</time></trkpt><trkpt lat="40.5355295" lon="17.3879721"><ele>69.0</ele><time>2026-04-06T15:59:18.398Z</time></trkpt><trkpt lat="40.5354593" lon="17.3878778"><ele>69.0</ele><time>2026-04-06T15:59:19.398Z</time></trkpt><trkpt lat="40.5353838" lon="17.3877758"><ele>69.0</ele><time>2026-04-06T15:59:20.398Z</time></trkpt><trkpt lat="40.5353076" lon="17.3876696"><ele>69.0</ele><time>2026-04-06T15:59:21.398Z</time></trkpt><trkpt lat="40.53522" lon="17.3875654"><ele>69.0</ele><time>2026-04-06T15:59:22.398Z</time></trkpt><trkpt lat="40.5351298" lon="17.3874548"><ele>69.0</ele><time>2026-04-06T15:59:23.398Z</time></trkpt><trkpt lat="40.5350544" lon="17.3873597"><ele>69.0</ele><time>2026-04-06T15:59:24.399Z</time></trkpt><trkpt lat="40.5349918" lon="17.387279"><ele>69.0</ele><time>2026-04-06T15:59:25.399Z</time></trkpt><trkpt lat="40.5349371" lon="17.3872142"><ele>69.0</ele><time>2026-04-06T15:59:26.398Z</time></trkpt><trkpt lat="40.5348557" lon="17.3871273"><ele>69.0</ele><time>2026-04-06T15:59:28.398Z</time></trkpt><trkpt lat="40.5347946" lon="17.3870647"><ele>69.0</ele><time>2026-04-06T16:00:08.398Z</time></trkpt><trkpt lat="40.5347775" lon="17.3869529"><ele>69.0</ele><time>2026-04-06T16:00:10.398Z</time></trkpt><trkpt lat="40.5347727" lon="17.3868633"><ele>69.0</ele><time>2026-04-06T16:00:11.398Z</time></trkpt><trkpt lat="40.5347541" lon="17.3867454"><ele>69.0</ele><time>2026-04-06T16:00:12.398Z</time></trkpt><trkpt lat="40.5347144" lon="17.3866016"><ele>69.0</ele><time>2026-04-06T16:00:13.398Z</time></trkpt><trkpt lat="40.5346534" lon="17.3864414"><ele>69.0</ele><time>2026-04-06T16:00:14.399Z</time></trkpt><trkpt lat="40.5345898" lon="17.3862712"><ele>68.75</ele><time>2026-04-06T16:00:15.398Z</time></trkpt><trkpt lat="40.5345259" lon="17.3861045"><ele>68.5</ele><time>2026-04-06T16:00:16.398Z</time></trkpt><trkpt lat="40.534466" lon="17.3859414"><ele>68.25</ele><time>2026-04-06T16:00:17.398Z</time></trkpt><trkpt lat="40.5344022" lon="17.3857682"><ele>68.0</ele><time>2026-04-06T16:00:18.398Z</time></trkpt><trkpt lat="40.5343291" lon="17.3855771"><ele>68.0</ele><time>2026-04-06T16:00:19.398Z</time></trkpt><trkpt lat="40.5342505" lon="17.3853751"><ele>68.0</ele><time>2026-04-06T16:00:20.398Z</time></trkpt><trkpt lat="40.5341665" lon="17.385166"><ele>68.0</ele><time>2026-04-06T16:00:21.399Z</time></trkpt><trkpt lat="40.5340946" lon="17.3849631"><ele>68.0</ele><time>2026-04-06T16:00:22.398Z</time></trkpt><trkpt lat="40.5340329" lon="17.3847697"><ele>68.0</ele><time>2026-04-06T16:00:23.398Z</time></trkpt><trkpt lat="40.5339801" lon="17.3845809"><ele>68.0</ele><time>2026-04-06T16:00:24.398Z</time></trkpt><trkpt lat="40.5339244" lon="17.3843764"><ele>68.0</ele><time>2026-04-06T16:00:25.398Z</time></trkpt><trkpt lat="40.5338694" lon="17.384138"><ele>68.0</ele><time>2026-04-06T16:00:26.398Z</time></trkpt><trkpt lat="40.5338096" lon="17.3838902"><ele>68.0</ele><time>2026-04-06T16:00:27.398Z</time></trkpt><trkpt lat="40.5337519" lon="17.3836298"><ele>67.66666666666667</ele><time>2026-04-06T16:00:28.398Z</time></trkpt><trkpt lat="40.533699" lon="17.3833882"><ele>67.33333333333333</ele><time>2026-04-06T16:00:29.398Z</time></trkpt><trkpt lat="40.5336538" lon="17.3831608"><ele>67.0</ele><time>2026-04-06T16:00:30.398Z</time></trkpt><trkpt lat="40.5336141" lon="17.3829484"><ele>66.66666666666666</ele><time>2026-04-06T16:00:31.398Z</time></trkpt><trkpt lat="40.5335724" lon="17.3827416"><ele>66.33333333333333</ele><time>2026-04-06T16:00:32.398Z</time></trkpt><trkpt lat="40.5335288" lon="17.3825334"><ele>66.0</ele><time>2026-04-06T16:00:33.398Z</time></trkpt><trkpt lat="40.533493" lon="17.3823361"><ele>65.75</ele><time>2026-04-06T16:00:34.398Z</time></trkpt><trkpt lat="40.5334654" lon="17.382137"><ele>65.5</ele><time>2026-04-06T16:00:35.398Z</time></trkpt><trkpt lat="40.5334486" lon="17.3819471"><ele>65.25</ele><time>2026-04-06T16:00:36.398Z</time></trkpt><trkpt lat="40.5334504" lon="17.3818052"><ele>65.0</ele><time>2026-04-06T16:00:37.399Z</time></trkpt><trkpt lat="40.5334497" lon="17.3816962"><ele>65.0</ele><time>2026-04-06T16:00:38.398Z</time></trkpt><trkpt lat="40.5334573" lon="17.3815731"><ele>65.0</ele><time>2026-04-06T16:00:40.398Z</time></trkpt><trkpt lat="40.5334271" lon="17.3816522"><ele>65.0</ele><time>2026-04-06T16:00:47.398Z</time></trkpt><trkpt lat="40.5334322" lon="17.3817375"><ele>65.0</ele><time>2026-04-06T16:00:48.398Z</time></trkpt><trkpt lat="40.5333382" lon="17.3817999"><ele>65.0</ele><time>2026-04-06T16:00:51.398Z</time></trkpt><trkpt lat="40.5332549" lon="17.3817788"><ele>65.0</ele><time>2026-04-06T16:00:52.399Z</time></trkpt><trkpt lat="40.5331364" lon="17.3817352"><ele>65.0</ele><time>2026-04-06T16:00:53.398Z</time></trkpt><trkpt lat="40.5329881" lon="17.3816912"><ele>65.0</ele><time>2026-04-06T16:00:54.398Z</time></trkpt><trkpt lat="40.532847" lon="17.3816492"><ele>65.0</ele><time>2026-04-06T16:00:55.398Z</time></trkpt><trkpt lat="40.5327249" lon="17.3816063"><ele>65.0</ele><time>2026-04-06T16:00:56.398Z</time></trkpt><trkpt lat="40.5326096" lon="17.3815684"><ele>65.25</ele><time>2026-04-06T16:00:57.398Z</time></trkpt><trkpt lat="40.5324954" lon="17.3815243"><ele>65.5</ele><time>2026-04-06T16:00:58.398Z</time></trkpt><trkpt lat="40.5323829" lon="17.3814851"><ele>65.75</ele><time>2026-04-06T16:00:59.398Z</time></trkpt><trkpt lat="40.5322716" lon="17.3814464"><ele>66.0</ele><time>2026-04-06T16:01:00.398Z</time></trkpt><trkpt lat="40.5321556" lon="17.3814109"><ele>65.5</ele><time>2026-04-06T16:01:01.398Z</time></trkpt><trkpt lat="40.5320394" lon="17.3813785"><ele>65.0</ele><time>2026-04-06T16:01:02.398Z</time></trkpt><trkpt lat="40.5319232" lon="17.3813414"><ele>64.5</ele><time>2026-04-06T16:01:03.398Z</time></trkpt><trkpt lat="40.5318013" lon="17.3813056"><ele>64.0</ele><time>2026-04-06T16:01:04.398Z</time></trkpt><trkpt lat="40.5316822" lon="17.3812683"><ele>63.800000000000004</ele><time>2026-04-06T16:01:05.398Z</time></trkpt><trkpt lat="40.5315684" lon="17.3812282"><ele>63.60000000000001</ele><time>2026-04-06T16:01:06.398Z</time></trkpt><trkpt lat="40.5314581" lon="17.3811956"><ele>63.4</ele><time>2026-04-06T16:01:07.399Z</time></trkpt><trkpt lat="40.5313485" lon="17.3811602"><ele>63.2</ele><time>2026-04-06T16:01:08.398Z</time></trkpt><trkpt lat="40.5312511" lon="17.3811223"><ele>63.0</ele><time>2026-04-06T16:01:09.399Z</time></trkpt><trkpt lat="40.531164" lon="17.3810889"><ele>62.4</ele><time>2026-04-06T16:01:10.398Z</time></trkpt><trkpt lat="40.531085" lon="17.3810778"><ele>61.8</ele><time>2026-04-06T16:01:11.398Z</time></trkpt><trkpt lat="40.530965" lon="17.3811199"><ele>61.2</ele><time>2026-04-06T16:01:13.398Z</time></trkpt><trkpt lat="40.5308895" lon="17.3812091"><ele>60.6</ele><time>2026-04-06T16:01:15.398Z</time></trkpt><trkpt lat="40.5308142" lon="17.3811939"><ele>60.0</ele><time>2026-04-06T16:01:17.398Z</time></trkpt><trkpt lat="40.5307285" lon="17.3810854"><ele>60.0</ele><time>2026-04-06T16:01:19.398Z</time></trkpt><trkpt lat="40.5306706" lon="17.3810274"><ele>60.0</ele><time>2026-04-06T16:01:20.399Z</time></trkpt><trkpt lat="40.5306059" lon="17.3809858"><ele>60.0</ele><time>2026-04-06T16:01:21.399Z</time></trkpt><trkpt lat="40.5305406" lon="17.3809505"><ele>60.0</ele><time>2026-04-06T16:01:22.398Z</time></trkpt><trkpt lat="40.5304221" lon="17.3808851"><ele>60.0</ele><time>2026-04-06T16:01:24.398Z</time></trkpt><trkpt lat="40.5303534" lon="17.3808447"><ele>60.0</ele><time>2026-04-06T16:01:25.399Z</time></trkpt><trkpt lat="40.530281" lon="17.3808024"><ele>60.0</ele><time>2026-04-06T16:01:26.398Z</time></trkpt><trkpt lat="40.5302018" lon="17.3807536"><ele>60.0</ele><time>2026-04-06T16:01:27.398Z</time></trkpt><trkpt lat="40.5301079" lon="17.3806992"><ele>60.0</ele><time>2026-04-06T16:01:28.398Z</time></trkpt><trkpt lat="40.5300072" lon="17.3806405"><ele>60.0</ele><time>2026-04-06T16:01:29.398Z</time></trkpt><trkpt lat="40.5299035" lon="17.3805862"><ele>60.0</ele><time>2026-04-06T16:01:30.398Z</time></trkpt><trkpt lat="40.5298079" lon="17.3805351"><ele>60.0</ele><time>2026-04-06T16:01:31.398Z</time></trkpt><trkpt lat="40.5297283" lon="17.3804857"><ele>60.0</ele><time>2026-04-06T16:01:32.398Z</time></trkpt><trkpt lat="40.5296591" lon="17.3804444"><ele>60.0</ele><time>2026-04-06T16:01:33.398Z</time></trkpt><trkpt lat="40.5295935" lon="17.3804107"><ele>60.0</ele><time>2026-04-06T16:01:34.398Z</time></trkpt><trkpt lat="40.529517" lon="17.3803719"><ele>60.0</ele><time>2026-04-06T16:01:35.399Z</time></trkpt><trkpt lat="40.5294539" lon="17.3803218"><ele>60.0</ele><time>2026-04-06T16:01:36.399Z</time></trkpt><trkpt lat="40.529398" lon="17.3802776"><ele>60.0</ele><time>2026-04-06T16:01:37.398Z</time></trkpt><trkpt lat="40.5293149" lon="17.3801315"><ele>60.0</ele><time>2026-04-06T16:01:39.398Z</time></trkpt><trkpt lat="40.5292857" lon="17.3800103"><ele>60.0</ele><time>2026-04-06T16:01:40.398Z</time></trkpt><trkpt lat="40.5292569" lon="17.3798754"><ele>60.0</ele><time>2026-04-06T16:01:41.398Z</time></trkpt><trkpt lat="40.5292345" lon="17.3797362"><ele>59.8</ele><time>2026-04-06T16:01:42.398Z</time></trkpt><trkpt lat="40.5292152" lon="17.379603"><ele>59.6</ele><time>2026-04-06T16:01:43.398Z</time></trkpt><trkpt lat="40.5291969" lon="17.3794692"><ele>59.400000000000006</ele><time>2026-04-06T16:01:44.398Z</time></trkpt><trkpt lat="40.5291831" lon="17.3793366"><ele>59.2</ele><time>2026-04-06T16:01:45.398Z</time></trkpt><trkpt lat="40.5291671" lon="17.3792105"><ele>59.0</ele><time>2026-04-06T16:01:46.398Z</time></trkpt><trkpt lat="40.5291511" lon="17.3790902"><ele>59.00000000000001</ele><time>2026-04-06T16:01:47.398Z</time></trkpt><trkpt lat="40.5291411" lon="17.3789666"><ele>59.0</ele><time>2026-04-06T16:01:48.398Z</time></trkpt><trkpt lat="40.5291277" lon="17.3788409"><ele>59.0</ele><time>2026-04-06T16:01:49.399Z</time></trkpt><trkpt lat="40.5291134" lon="17.3787225"><ele>59.0</ele><time>2026-04-06T16:01:50.398Z</time></trkpt><trkpt lat="40.5291004" lon="17.3786172"><ele>59.00000000000001</ele><time>2026-04-06T16:01:51.398Z</time></trkpt><trkpt lat="40.5290861" lon="17.3785268"><ele>59.0</ele><time>2026-04-06T16:01:52.398Z</time></trkpt><trkpt lat="40.5290794" lon="17.3784379"><ele>59.00000000000001</ele><time>2026-04-06T16:01:53.398Z</time></trkpt><trkpt lat="40.5290704" lon="17.3783549"><ele>59.0</ele><time>2026-04-06T16:01:54.398Z</time></trkpt><trkpt lat="40.529061" lon="17.3782648"><ele>59.0</ele><time>2026-04-06T16:01:55.399Z</time></trkpt><trkpt lat="40.5290487" lon="17.3781679"><ele>59.0</ele><time>2026-04-06T16:01:56.398Z</time></trkpt><trkpt lat="40.5290226" lon="17.3780624"><ele>59.00000000000001</ele><time>2026-04-06T16:01:57.398Z</time></trkpt><trkpt lat="40.5289879" lon="17.3779538"><ele>59.0</ele><time>2026-04-06T16:01:58.398Z</time></trkpt><trkpt lat="40.528946" lon="17.3778557"><ele>59.0</ele><time>2026-04-06T16:01:59.398Z</time></trkpt><trkpt lat="40.5288924" lon="17.3777524"><ele>59.00000000000001</ele><time>2026-04-06T16:02:00.398Z</time></trkpt><trkpt lat="40.5288354" lon="17.3776369"><ele>59.00000000000001</ele><time>2026-04-06T16:02:01.399Z</time></trkpt><trkpt lat="40.5287811" lon="17.3775135"><ele>59.0</ele><time>2026-04-06T16:02:02.398Z</time></trkpt><trkpt lat="40.5287194" lon="17.3773805"><ele>59.0</ele><time>2026-04-06T16:02:03.398Z</time></trkpt><trkpt lat="40.5286518" lon="17.377259"><ele>58.800000000000004</ele><time>2026-04-06T16:02:04.398Z</time></trkpt><trkpt lat="40.5285999" lon="17.3771397"><ele>58.60000000000001</ele><time>2026-04-06T16:02:05.398Z</time></trkpt><trkpt lat="40.5285643" lon="17.3770156"><ele>58.4</ele><time>2026-04-06T16:02:06.398Z</time></trkpt><trkpt lat="40.5285385" lon="17.3768645"><ele>58.2</ele><time>2026-04-06T16:02:07.398Z</time></trkpt><trkpt lat="40.5285103" lon="17.3767214"><ele>58.0</ele><time>2026-04-06T16:02:08.398Z</time></trkpt><trkpt lat="40.5284797" lon="17.3765714"><ele>58.0</ele><time>2026-04-06T16:02:09.398Z</time></trkpt><trkpt lat="40.5284457" lon="17.3764199"><ele>58.0</ele><time>2026-04-06T16:02:10.398Z</time></trkpt><trkpt lat="40.528403" lon="17.3762715"><ele>58.0</ele><time>2026-04-06T16:02:11.398Z</time></trkpt><trkpt lat="40.5283533" lon="17.3761338"><ele>58.0</ele><time>2026-04-06T16:02:12.398Z</time></trkpt><trkpt lat="40.5282989" lon="17.3760045"><ele>58.0</ele><time>2026-04-06T16:02:13.398Z</time></trkpt><trkpt lat="40.528234" lon="17.3758822"><ele>58.0</ele><time>2026-04-06T16:02:14.398Z</time></trkpt><trkpt lat="40.5281565" lon="17.3757686"><ele>58.0</ele><time>2026-04-06T16:02:15.398Z</time></trkpt><trkpt lat="40.5280725" lon="17.3756661"><ele>58.0</ele><time>2026-04-06T16:02:16.398Z</time></trkpt><trkpt lat="40.5279848" lon="17.3755682"><ele>58.0</ele><time>2026-04-06T16:02:17.398Z</time></trkpt><trkpt lat="40.5278959" lon="17.3754737"><ele>58.0</ele><time>2026-04-06T16:02:18.399Z</time></trkpt><trkpt lat="40.5278101" lon="17.3753798"><ele>58.0</ele><time>2026-04-06T16:02:19.398Z</time></trkpt><trkpt lat="40.5277168" lon="17.3753042"><ele>58.0</ele><time>2026-04-06T16:02:20.398Z</time></trkpt><trkpt lat="40.5276249" lon="17.3752439"><ele>58.0</ele><time>2026-04-06T16:02:21.398Z</time></trkpt><trkpt lat="40.5275384" lon="17.3751933"><ele>57.99999999999999</ele><time>2026-04-06T16:02:22.398Z</time></trkpt><trkpt lat="40.52746" lon="17.3751481"><ele>58.0</ele><time>2026-04-06T16:02:23.398Z</time></trkpt><trkpt lat="40.5273974" lon="17.375122"><ele>58.0</ele><time>2026-04-06T16:02:24.398Z</time></trkpt><trkpt lat="40.5272881" lon="17.3751217"><ele>58.0</ele><time>2026-04-06T16:02:26.399Z</time></trkpt><trkpt lat="40.5271833" lon="17.3751387"><ele>57.99999999999999</ele><time>2026-04-06T16:02:28.398Z</time></trkpt><trkpt lat="40.5271012" lon="17.3751325"><ele>58.0</ele><time>2026-04-06T16:02:30.398Z</time></trkpt><trkpt lat="40.5270469" lon="17.3749975"><ele>58.0</ele><time>2026-04-06T16:02:32.398Z</time></trkpt><trkpt lat="40.5270071" lon="17.374875"><ele>58.0</ele><time>2026-04-06T16:02:33.398Z</time></trkpt><trkpt lat="40.5269694" lon="17.3747317"><ele>58.0</ele><time>2026-04-06T16:02:34.398Z</time></trkpt><trkpt lat="40.5269294" lon="17.3745796"><ele>58.0</ele><time>2026-04-06T16:02:35.398Z</time></trkpt><trkpt lat="40.5268844" lon="17.3744137"><ele>57.75</ele><time>2026-04-06T16:02:36.398Z</time></trkpt><trkpt lat="40.5268418" lon="17.3742521"><ele>57.5</ele><time>2026-04-06T16:02:37.398Z</time></trkpt><trkpt lat="40.5267948" lon="17.3740954"><ele>57.25</ele><time>2026-04-06T16:02:38.398Z</time></trkpt><trkpt lat="40.5267413" lon="17.3739271"><ele>57.0</ele><time>2026-04-06T16:02:39.398Z</time></trkpt><trkpt lat="40.5266838" lon="17.3737522"><ele>57.0</ele><time>2026-04-06T16:02:40.398Z</time></trkpt><trkpt lat="40.5266193" lon="17.3735549"><ele>57.0</ele><time>2026-04-06T16:02:41.398Z</time></trkpt><trkpt lat="40.526536" lon="17.3733179"><ele>57.0</ele><time>2026-04-06T16:02:42.398Z</time></trkpt><trkpt lat="40.5264388" lon="17.3730544"><ele>56.66666666666667</ele><time>2026-04-06T16:02:43.398Z</time></trkpt><trkpt lat="40.5263404" lon="17.3727959"><ele>56.333333333333336</ele><time>2026-04-06T16:02:44.398Z</time></trkpt><trkpt lat="40.5262463" lon="17.3725552"><ele>56.0</ele><time>2026-04-06T16:02:45.398Z</time></trkpt><trkpt lat="40.5261573" lon="17.3723189"><ele>55.66666666666667</ele><time>2026-04-06T16:02:46.398Z</time></trkpt><trkpt lat="40.52607" lon="17.3720953"><ele>55.33333333333333</ele><time>2026-04-06T16:02:47.399Z</time></trkpt><trkpt lat="40.5259881" lon="17.3718829"><ele>55.0</ele><time>2026-04-06T16:02:48.398Z</time></trkpt><trkpt lat="40.5259115" lon="17.3716813"><ele>55.0</ele><time>2026-04-06T16:02:49.398Z</time></trkpt><trkpt lat="40.5258346" lon="17.3714926"><ele>55.0</ele><time>2026-04-06T16:02:50.398Z</time></trkpt><trkpt lat="40.5257659" lon="17.3713083"><ele>55.0</ele><time>2026-04-06T16:02:51.398Z</time></trkpt><trkpt lat="40.5257085" lon="17.3711191"><ele>55.0</ele><time>2026-04-06T16:02:52.398Z</time></trkpt><trkpt lat="40.5256535" lon="17.3709275"><ele>55.0</ele><time>2026-04-06T16:02:53.398Z</time></trkpt><trkpt lat="40.5256085" lon="17.3707255"><ele>55.0</ele><time>2026-04-06T16:02:54.398Z</time></trkpt><trkpt lat="40.5255725" lon="17.3705144"><ele>55.0</ele><time>2026-04-06T16:02:55.398Z</time></trkpt><trkpt lat="40.525552" lon="17.3702936"><ele>55.0</ele><time>2026-04-06T16:02:56.398Z</time></trkpt><trkpt lat="40.5255348" lon="17.3700493"><ele>55.0</ele><time>2026-04-06T16:02:57.398Z</time></trkpt><trkpt lat="40.5255124" lon="17.369796"><ele>55.0</ele><time>2026-04-06T16:02:58.398Z</time></trkpt><trkpt lat="40.5254861" lon="17.3695222"><ele>55.0</ele><time>2026-04-06T16:02:59.398Z</time></trkpt><trkpt lat="40.5254593" lon="17.3692495"><ele>55.0</ele><time>2026-04-06T16:03:00.398Z</time></trkpt><trkpt lat="40.5254342" lon="17.3689996"><ele>55.33333333333333</ele><time>2026-04-06T16:03:01.398Z</time></trkpt><trkpt lat="40.5254108" lon="17.3687709"><ele>55.66666666666667</ele><time>2026-04-06T16:03:02.398Z</time></trkpt><trkpt lat="40.5253926" lon="17.3685528"><ele>56.0</ele><time>2026-04-06T16:03:03.398Z</time></trkpt><trkpt lat="40.5253716" lon="17.3683477"><ele>56.0</ele><time>2026-04-06T16:03:04.399Z</time></trkpt><trkpt lat="40.52535" lon="17.3681391"><ele>56.0</ele><time>2026-04-06T16:03:05.398Z</time></trkpt><trkpt lat="40.5253295" lon="17.3679207"><ele>56.0</ele><time>2026-04-06T16:03:06.398Z</time></trkpt><trkpt lat="40.5253064" lon="17.3677034"><ele>55.333333333333336</ele><time>2026-04-06T16:03:07.398Z</time></trkpt><trkpt lat="40.5252831" lon="17.3674846"><ele>54.66666666666667</ele><time>2026-04-06T16:03:08.398Z</time></trkpt><trkpt lat="40.5252616" lon="17.3672742"><ele>54.0</ele><time>2026-04-06T16:03:09.398Z</time></trkpt><trkpt lat="40.525241" lon="17.3670658"><ele>53.66666666666667</ele><time>2026-04-06T16:03:10.398Z</time></trkpt><trkpt lat="40.5252182" lon="17.3668721"><ele>53.333333333333336</ele><time>2026-04-06T16:03:11.398Z</time></trkpt><trkpt lat="40.5251979" lon="17.3666747"><ele>53.0</ele><time>2026-04-06T16:03:12.398Z</time></trkpt><trkpt lat="40.5251721" lon="17.366469"><ele>52.66666666666667</ele><time>2026-04-06T16:03:13.398Z</time></trkpt><trkpt lat="40.5251369" lon="17.3662609"><ele>52.33333333333333</ele><time>2026-04-06T16:03:14.399Z</time></trkpt><trkpt lat="40.5250962" lon="17.366053"><ele>52.0</ele><time>2026-04-06T16:03:15.398Z</time></trkpt><trkpt lat="40.5250433" lon="17.3658473"><ele>52.0</ele><time>2026-04-06T16:03:16.398Z</time></trkpt><trkpt lat="40.5249797" lon="17.3656441"><ele>52.0</ele><time>2026-04-06T16:03:17.398Z</time></trkpt><trkpt lat="40.5249107" lon="17.3654535"><ele>52.0</ele><time>2026-04-06T16:03:18.398Z</time></trkpt><trkpt lat="40.5248418" lon="17.3652775"><ele>52.25</ele><time>2026-04-06T16:03:19.398Z</time></trkpt><trkpt lat="40.5247822" lon="17.365121"><ele>52.5</ele><time>2026-04-06T16:03:20.398Z</time></trkpt><trkpt lat="40.5247302" lon="17.3649754"><ele>52.75</ele><time>2026-04-06T16:03:21.398Z</time></trkpt><trkpt lat="40.5246802" lon="17.3648455"><ele>53.0</ele><time>2026-04-06T16:03:22.398Z</time></trkpt><trkpt lat="40.5246386" lon="17.3647282"><ele>53.2</ele><time>2026-04-06T16:03:23.398Z</time></trkpt><trkpt lat="40.5246086" lon="17.3646183"><ele>53.4</ele><time>2026-04-06T16:03:24.398Z</time></trkpt><trkpt lat="40.5245897" lon="17.3645115"><ele>53.60000000000001</ele><time>2026-04-06T16:03:25.398Z</time></trkpt><trkpt lat="40.5245943" lon="17.3643627"><ele>53.800000000000004</ele><time>2026-04-06T16:03:27.399Z</time></trkpt><trkpt lat="40.5245772" lon="17.3642402"><ele>54.0</ele><time>2026-04-06T16:03:29.398Z</time></trkpt><trkpt lat="40.5245722" lon="17.3641116"><ele>54.0</ele><time>2026-04-06T16:03:42.398Z</time></trkpt><trkpt lat="40.5245798" lon="17.3640157"><ele>54.00000000000001</ele><time>2026-04-06T16:03:43.398Z</time></trkpt><trkpt lat="40.5245929" lon="17.363897"><ele>54.00000000000001</ele><time>2026-04-06T16:03:44.398Z</time></trkpt><trkpt lat="40.524615" lon="17.3637793"><ele>54.0</ele><time>2026-04-06T16:03:45.398Z</time></trkpt><trkpt lat="40.5246409" lon="17.3636534"><ele>54.0</ele><time>2026-04-06T16:03:46.398Z</time></trkpt><trkpt lat="40.5246656" lon="17.3635061"><ele>54.0</ele><time>2026-04-06T16:03:47.398Z</time></trkpt><trkpt lat="40.5246897" lon="17.3633476"><ele>54.00000000000001</ele><time>2026-04-06T16:03:48.398Z</time></trkpt><trkpt lat="40.5247224" lon="17.3632034"><ele>54.00000000000001</ele><time>2026-04-06T16:03:49.398Z</time></trkpt><trkpt lat="40.5247653" lon="17.3630838"><ele>54.0</ele><time>2026-04-06T16:03:50.398Z</time></trkpt><trkpt lat="40.524834" lon="17.3630012"><ele>54.0</ele><time>2026-04-06T16:03:51.398Z</time></trkpt><trkpt lat="40.5249272" lon="17.3629531"><ele>54.0</ele><time>2026-04-06T16:03:52.398Z</time></trkpt><trkpt lat="40.5250133" lon="17.3629605"><ele>54.0</ele><time>2026-04-06T16:03:53.398Z</time></trkpt><trkpt lat="40.5250906" lon="17.3630004"><ele>54.0</ele><time>2026-04-06T16:03:54.398Z</time></trkpt><trkpt lat="40.525156" lon="17.3630645"><ele>54.0</ele><time>2026-04-06T16:03:55.398Z</time></trkpt><trkpt lat="40.5251961" lon="17.3631456"><ele>54.0</ele><time>2026-04-06T16:03:56.399Z</time></trkpt><trkpt lat="40.5252088" lon="17.3632475"><ele>54.0</ele><time>2026-04-06T16:03:57.398Z</time></trkpt><trkpt lat="40.5251898" lon="17.3633643"><ele>54.0</ele><time>2026-04-06T16:03:58.398Z</time></trkpt><trkpt lat="40.5251388" lon="17.3634995"><ele>54.0</ele><time>2026-04-06T16:03:59.398Z</time></trkpt><trkpt lat="40.5250636" lon="17.3636622"><ele>54.0</ele><time>2026-04-06T16:04:00.398Z</time></trkpt><trkpt lat="40.5249761" lon="17.3638604"><ele>54.0</ele><time>2026-04-06T16:04:01.398Z</time></trkpt><trkpt lat="40.5248861" lon="17.3640683"><ele>54.0</ele><time>2026-04-06T16:04:02.398Z</time></trkpt><trkpt lat="40.5248011" lon="17.3642433"><ele>54.0</ele><time>2026-04-06T16:04:03.398Z</time></trkpt><trkpt lat="40.5247177" lon="17.3643924"><ele>54.0</ele><time>2026-04-06T16:04:04.398Z</time></trkpt><trkpt lat="40.5246194" lon="17.3645237"><ele>54.0</ele><time>2026-04-06T16:04:05.398Z</time></trkpt><trkpt lat="40.5245047" lon="17.364631"><ele>54.66666666666667</ele><time>2026-04-06T16:04:06.398Z</time></trkpt><trkpt lat="40.5243774" lon="17.3647153"><ele>55.333333333333336</ele><time>2026-04-06T16:04:07.398Z</time></trkpt><trkpt lat="40.5242331" lon="17.3647884"><ele>56.0</ele><time>2026-04-06T16:04:08.398Z</time></trkpt><trkpt lat="40.5240687" lon="17.364862"><ele>56.0</ele><time>2026-04-06T16:04:09.398Z</time></trkpt><trkpt lat="40.5238992" lon="17.3649367"><ele>56.0</ele><time>2026-04-06T16:04:10.398Z</time></trkpt><trkpt lat="40.5237322" lon="17.3650181"><ele>56.0</ele><time>2026-04-06T16:04:11.398Z</time></trkpt><trkpt lat="40.5235765" lon="17.3650981"><ele>55.66666666666667</ele><time>2026-04-06T16:04:12.398Z</time></trkpt><trkpt lat="40.5234301" lon="17.3651722"><ele>55.33333333333333</ele><time>2026-04-06T16:04:13.399Z</time></trkpt><trkpt lat="40.5232778" lon="17.3652526"><ele>55.0</ele><time>2026-04-06T16:04:14.398Z</time></trkpt><trkpt lat="40.5231217" lon="17.3653387"><ele>55.0</ele><time>2026-04-06T16:04:15.398Z</time></trkpt><trkpt lat="40.5229595" lon="17.3654376"><ele>55.0</ele><time>2026-04-06T16:04:16.399Z</time></trkpt><trkpt lat="40.5227747" lon="17.3655623"><ele>55.0</ele><time>2026-04-06T16:04:17.398Z</time></trkpt><trkpt lat="40.5225894" lon="17.3656997"><ele>54.0</ele><time>2026-04-06T16:04:18.398Z</time></trkpt><trkpt lat="40.5224087" lon="17.3658272"><ele>53.0</ele><time>2026-04-06T16:04:19.398Z</time></trkpt><trkpt lat="40.5222245" lon="17.3659324"><ele>52.0</ele><time>2026-04-06T16:04:20.398Z</time></trkpt><trkpt lat="40.5220592" lon="17.36604"><ele>51.666666666666664</ele><time>2026-04-06T16:04:21.398Z</time></trkpt><trkpt lat="40.5218981" lon="17.3661535"><ele>51.33333333333333</ele><time>2026-04-06T16:04:22.399Z</time></trkpt><trkpt lat="40.5217444" lon="17.3662635"><ele>51.0</ele><time>2026-04-06T16:04:23.398Z</time></trkpt><trkpt lat="40.5215794" lon="17.3663733"><ele>51.0</ele><time>2026-04-06T16:04:24.399Z</time></trkpt><trkpt lat="40.521406" lon="17.3664944"><ele>51.0</ele><time>2026-04-06T16:04:25.399Z</time></trkpt><trkpt lat="40.5212226" lon="17.3666221"><ele>51.0</ele><time>2026-04-06T16:04:26.399Z</time></trkpt><trkpt lat="40.5210225" lon="17.3667654"><ele>51.0</ele><time>2026-04-06T16:04:27.398Z</time></trkpt><trkpt lat="40.5208047" lon="17.3669057"><ele>51.0</ele><time>2026-04-06T16:04:28.398Z</time></trkpt><trkpt lat="40.5205897" lon="17.3670403"><ele>51.5</ele><time>2026-04-06T16:04:29.398Z</time></trkpt><trkpt lat="40.5203766" lon="17.3671655"><ele>52.0</ele><time>2026-04-06T16:04:30.398Z</time></trkpt><trkpt lat="40.5201696" lon="17.3672981"><ele>52.0</ele><time>2026-04-06T16:04:31.398Z</time></trkpt><trkpt lat="40.5199671" lon="17.3674253"><ele>52.0</ele><time>2026-04-06T16:04:32.398Z</time></trkpt><trkpt lat="40.5197689" lon="17.3675563"><ele>52.0</ele><time>2026-04-06T16:04:33.398Z</time></trkpt><trkpt lat="40.5195695" lon="17.3676821"><ele>52.0</ele><time>2026-04-06T16:04:34.398Z</time></trkpt><trkpt lat="40.5193626" lon="17.3678152"><ele>52.0</ele><time>2026-04-06T16:04:35.398Z</time></trkpt><trkpt lat="40.5191461" lon="17.3679596"><ele>52.0</ele><time>2026-04-06T16:04:36.398Z</time></trkpt><trkpt lat="40.5189243" lon="17.3681104"><ele>52.0</ele><time>2026-04-06T16:04:37.398Z</time></trkpt><trkpt lat="40.5187056" lon="17.3682583"><ele>52.0</ele><time>2026-04-06T16:04:38.398Z</time></trkpt><trkpt lat="40.5184904" lon="17.3683981"><ele>52.0</ele><time>2026-04-06T16:04:39.398Z</time></trkpt><trkpt lat="40.5182799" lon="17.3685274"><ele>52.0</ele><time>2026-04-06T16:04:40.398Z</time></trkpt><trkpt lat="40.5180695" lon="17.3686552"><ele>52.0</ele><time>2026-04-06T16:04:41.398Z</time></trkpt><trkpt lat="40.517859" lon="17.3687762"><ele>53.0</ele><time>2026-04-06T16:04:42.398Z</time></trkpt><trkpt lat="40.517652" lon="17.3689028"><ele>54.0</ele><time>2026-04-06T16:04:43.398Z</time></trkpt><trkpt lat="40.5174458" lon="17.3690231"><ele>54.0</ele><time>2026-04-06T16:04:44.398Z</time></trkpt><trkpt lat="40.5172294" lon="17.3691526"><ele>54.0</ele><time>2026-04-06T16:04:45.398Z</time></trkpt><trkpt lat="40.5170132" lon="17.3692766"><ele>54.5</ele><time>2026-04-06T16:04:46.398Z</time></trkpt><trkpt lat="40.5167937" lon="17.3693937"><ele>55.0</ele><time>2026-04-06T16:04:47.398Z</time></trkpt><trkpt lat="40.5165801" lon="17.3695024"><ele>55.0</ele><time>2026-04-06T16:04:48.398Z</time></trkpt><trkpt lat="40.5163743" lon="17.3696029"><ele>55.0</ele><time>2026-04-06T16:04:49.398Z</time></trkpt><trkpt lat="40.516183" lon="17.3696907"><ele>55.0</ele><time>2026-04-06T16:04:50.398Z</time></trkpt><trkpt lat="40.5160055" lon="17.3697776"><ele>54.666666666666664</ele><time>2026-04-06T16:04:51.398Z</time></trkpt><trkpt lat="40.515837" lon="17.3698541"><ele>54.33333333333333</ele><time>2026-04-06T16:04:52.398Z</time></trkpt><trkpt lat="40.5156901" lon="17.3699192"><ele>54.0</ele><time>2026-04-06T16:04:53.399Z</time></trkpt><trkpt lat="40.5155529" lon="17.3699851"><ele>54.0</ele><time>2026-04-06T16:04:54.398Z</time></trkpt><trkpt lat="40.5154294" lon="17.3700428"><ele>54.0</ele><time>2026-04-06T16:04:55.398Z</time></trkpt><trkpt lat="40.5153091" lon="17.3701042"><ele>54.0</ele><time>2026-04-06T16:04:56.398Z</time></trkpt><trkpt lat="40.515191" lon="17.370165"><ele>54.0</ele><time>2026-04-06T16:04:57.398Z</time></trkpt><trkpt lat="40.5150675" lon="17.3702174"><ele>54.0</ele><time>2026-04-06T16:04:58.398Z</time></trkpt><trkpt lat="40.5149403" lon="17.3702703"><ele>54.0</ele><time>2026-04-06T16:04:59.398Z</time></trkpt><trkpt lat="40.5148087" lon="17.3703293"><ele>54.0</ele><time>2026-04-06T16:05:00.398Z</time></trkpt><trkpt lat="40.5146761" lon="17.3703885"><ele>54.0</ele><time>2026-04-06T16:05:01.398Z</time></trkpt><trkpt lat="40.5145473" lon="17.3704499"><ele>54.0</ele><time>2026-04-06T16:05:02.399Z</time></trkpt><trkpt lat="40.514417" lon="17.3705154"><ele>54.0</ele><time>2026-04-06T16:05:03.398Z</time></trkpt><trkpt lat="40.5142873" lon="17.3705742"><ele>54.0</ele><time>2026-04-06T16:05:04.398Z</time></trkpt><trkpt lat="40.514157" lon="17.3706327"><ele>54.0</ele><time>2026-04-06T16:05:05.398Z</time></trkpt><trkpt lat="40.5140297" lon="17.3706851"><ele>54.0</ele><time>2026-04-06T16:05:06.398Z</time></trkpt><trkpt lat="40.5139083" lon="17.37074"><ele>54.0</ele><time>2026-04-06T16:05:07.398Z</time></trkpt><trkpt lat="40.513797" lon="17.3707933"><ele>54.0</ele><time>2026-04-06T16:05:08.398Z</time></trkpt><trkpt lat="40.5136936" lon="17.3708368"><ele>54.0</ele><time>2026-04-06T16:05:09.398Z</time></trkpt><trkpt lat="40.5135929" lon="17.3708829"><ele>54.0</ele><time>2026-04-06T16:05:10.399Z</time></trkpt><trkpt lat="40.5134883" lon="17.3709306"><ele>54.00000000000001</ele><time>2026-04-06T16:05:11.398Z</time></trkpt><trkpt lat="40.5133793" lon="17.3709789"><ele>54.00000000000001</ele><time>2026-04-06T16:05:12.398Z</time></trkpt><trkpt lat="40.5132748" lon="17.3710206"><ele>54.0</ele><time>2026-04-06T16:05:13.398Z</time></trkpt><trkpt lat="40.5131777" lon="17.3710596"><ele>54.0</ele><time>2026-04-06T16:05:14.398Z</time></trkpt><trkpt lat="40.5130817" lon="17.3710974"><ele>54.0</ele><time>2026-04-06T16:05:15.398Z</time></trkpt><trkpt lat="40.5129963" lon="17.3711354"><ele>54.0</ele><time>2026-04-06T16:05:16.398Z</time></trkpt><trkpt lat="40.5129204" lon="17.3711669"><ele>54.0</ele><time>2026-04-06T16:05:17.398Z</time></trkpt><trkpt lat="40.5128152" lon="17.3712113"><ele>54.0</ele><time>2026-04-06T16:05:19.398Z</time></trkpt><trkpt lat="40.512734" lon="17.3712506"><ele>54.0</ele><time>2026-04-06T16:05:21.398Z</time></trkpt><trkpt lat="40.5126641" lon="17.3712787"><ele>54.0</ele><time>2026-04-06T16:05:23.398Z</time></trkpt><trkpt lat="40.5125858" lon="17.3713028"><ele>53.666666666666664</ele><time>2026-04-06T16:05:25.398Z</time></trkpt><trkpt lat="40.5125229" lon="17.3713402"><ele>53.33333333333333</ele><time>2026-04-06T16:05:27.398Z</time></trkpt><trkpt lat="40.5124375" lon="17.3713844"><ele>53.0</ele><time>2026-04-06T16:05:30.398Z</time></trkpt><trkpt lat="40.5124247" lon="17.3714761"><ele>52.666666666666664</ele><time>2026-04-06T16:05:33.399Z</time></trkpt><trkpt lat="40.5125007" lon="17.3714662"><ele>52.33333333333333</ele><time>2026-04-06T16:05:35.398Z</time></trkpt><trkpt lat="40.5125591" lon="17.3714289"><ele>52.0</ele><time>2026-04-06T16:05:36.398Z</time></trkpt><trkpt lat="40.5126331" lon="17.3713913"><ele>52.0</ele><time>2026-04-06T16:05:37.398Z</time></trkpt><trkpt lat="40.5127167" lon="17.3713564"><ele>52.0</ele><time>2026-04-06T16:05:38.398Z</time></trkpt><trkpt lat="40.5128099" lon="17.3713226"><ele>52.0</ele><time>2026-04-06T16:05:39.398Z</time></trkpt><trkpt lat="40.5129192" lon="17.371272"><ele>52.0</ele><time>2026-04-06T16:05:40.398Z</time></trkpt><trkpt lat="40.5130279" lon="17.3712188"><ele>52.0</ele><time>2026-04-06T16:05:41.398Z</time></trkpt><trkpt lat="40.5131472" lon="17.371161"><ele>52.666666666666664</ele><time>2026-04-06T16:05:42.398Z</time></trkpt><trkpt lat="40.5132813" lon="17.3711061"><ele>53.33333333333333</ele><time>2026-04-06T16:05:43.398Z</time></trkpt><trkpt lat="40.5134324" lon="17.3710378"><ele>54.0</ele><time>2026-04-06T16:05:44.398Z</time></trkpt><trkpt lat="40.5135877" lon="17.3709731"><ele>54.0</ele><time>2026-04-06T16:05:45.399Z</time></trkpt><trkpt lat="40.5137464" lon="17.3709004"><ele>54.0</ele><time>2026-04-06T16:05:46.398Z</time></trkpt><trkpt lat="40.5139164" lon="17.3708222"><ele>54.0</ele><time>2026-04-06T16:05:47.399Z</time></trkpt><trkpt lat="40.5140918" lon="17.3707383"><ele>54.0</ele><time>2026-04-06T16:05:48.398Z</time></trkpt><trkpt lat="40.5142762" lon="17.3706515"><ele>54.0</ele><time>2026-04-06T16:05:49.398Z</time></trkpt><trkpt lat="40.514458" lon="17.3705688"><ele>54.0</ele><time>2026-04-06T16:05:50.398Z</time></trkpt><trkpt lat="40.5146326" lon="17.3704906"><ele>54.0</ele><time>2026-04-06T16:05:51.398Z</time></trkpt><trkpt lat="40.5148129" lon="17.3704074"><ele>54.0</ele><time>2026-04-06T16:05:52.399Z</time></trkpt><trkpt lat="40.5149919" lon="17.370325"><ele>54.0</ele><time>2026-04-06T16:05:53.398Z</time></trkpt><trkpt lat="40.515163" lon="17.3702485"><ele>54.0</ele><time>2026-04-06T16:05:54.398Z</time></trkpt><trkpt lat="40.5153188" lon="17.370172"><ele>54.0</ele><time>2026-04-06T16:05:55.398Z</time></trkpt><trkpt lat="40.5154679" lon="17.3701023"><ele>54.0</ele><time>2026-04-06T16:05:56.398Z</time></trkpt><trkpt lat="40.5156123" lon="17.3700356"><ele>54.0</ele><time>2026-04-06T16:05:57.398Z</time></trkpt><trkpt lat="40.5157534" lon="17.3699734"><ele>54.0</ele><time>2026-04-06T16:05:58.398Z</time></trkpt><trkpt lat="40.5158912" lon="17.3699117"><ele>54.0</ele><time>2026-04-06T16:05:59.398Z</time></trkpt><trkpt lat="40.5160206" lon="17.3698435"><ele>54.0</ele><time>2026-04-06T16:06:00.398Z</time></trkpt><trkpt lat="40.5161507" lon="17.3697818"><ele>54.25</ele><time>2026-04-06T16:06:01.398Z</time></trkpt><trkpt lat="40.5162808" lon="17.3697235"><ele>54.5</ele><time>2026-04-06T16:06:02.398Z</time></trkpt><trkpt lat="40.5164159" lon="17.3696594"><ele>54.75</ele><time>2026-04-06T16:06:03.398Z</time></trkpt><trkpt lat="40.5165456" lon="17.3695928"><ele>55.0</ele><time>2026-04-06T16:06:04.398Z</time></trkpt><trkpt lat="40.5166702" lon="17.3695208"><ele>55.0</ele><time>2026-04-06T16:06:05.398Z</time></trkpt><trkpt lat="40.5167926" lon="17.3694601"><ele>55.0</ele><time>2026-04-06T16:06:06.398Z</time></trkpt><trkpt lat="40.5169199" lon="17.3693983"><ele>55.0</ele><time>2026-04-06T16:06:07.398Z</time></trkpt><trkpt lat="40.5170513" lon="17.3693284"><ele>55.0</ele><time>2026-04-06T16:06:08.398Z</time></trkpt><trkpt lat="40.5171866" lon="17.3692534"><ele>54.666666666666664</ele><time>2026-04-06T16:06:09.398Z</time></trkpt><trkpt lat="40.5173274" lon="17.3691729"><ele>54.33333333333333</ele><time>2026-04-06T16:06:10.398Z</time></trkpt><trkpt lat="40.517472" lon="17.369088"><ele>54.0</ele><time>2026-04-06T16:06:11.398Z</time></trkpt><trkpt lat="40.5176231" lon="17.3690026"><ele>54.0</ele><time>2026-04-06T16:06:12.398Z</time></trkpt><trkpt lat="40.5177787" lon="17.368913"><ele>54.0</ele><time>2026-04-06T16:06:13.398Z</time></trkpt><trkpt lat="40.5179364" lon="17.3688165"><ele>54.0</ele><time>2026-04-06T16:06:14.398Z</time></trkpt><trkpt lat="40.5180973" lon="17.3687173"><ele>53.33333333333333</ele><time>2026-04-06T16:06:15.398Z</time></trkpt><trkpt lat="40.5182619" lon="17.3686203"><ele>52.666666666666664</ele><time>2026-04-06T16:06:16.398Z</time></trkpt><trkpt lat="40.5184198" lon="17.368522"><ele>52.0</ele><time>2026-04-06T16:06:17.398Z</time></trkpt><trkpt lat="40.5185754" lon="17.3684229"><ele>52.0</ele><time>2026-04-06T16:06:18.398Z</time></trkpt><trkpt lat="40.5187284" lon="17.3683219"><ele>52.0</ele><time>2026-04-06T16:06:19.398Z</time></trkpt><trkpt lat="40.5188814" lon="17.3682245"><ele>52.0</ele><time>2026-04-06T16:06:20.398Z</time></trkpt><trkpt lat="40.5190364" lon="17.3681209"><ele>52.0</ele><time>2026-04-06T16:06:21.399Z</time></trkpt><trkpt lat="40.5191829" lon="17.3680209"><ele>52.0</ele><time>2026-04-06T16:06:22.398Z</time></trkpt><trkpt lat="40.5193266" lon="17.3679249"><ele>52.0</ele><time>2026-04-06T16:06:23.398Z</time></trkpt><trkpt lat="40.5194691" lon="17.3678242"><ele>52.0</ele><time>2026-04-06T16:06:24.398Z</time></trkpt><trkpt lat="40.519607" lon="17.367722"><ele>52.0</ele><time>2026-04-06T16:06:25.399Z</time></trkpt><trkpt lat="40.5197426" lon="17.3676284"><ele>52.0</ele><time>2026-04-06T16:06:26.398Z</time></trkpt><trkpt lat="40.5198744" lon="17.3675347"><ele>52.0</ele><time>2026-04-06T16:06:27.398Z</time></trkpt><trkpt lat="40.5200077" lon="17.3674461"><ele>52.0</ele><time>2026-04-06T16:06:28.398Z</time></trkpt><trkpt lat="40.5201406" lon="17.3673597"><ele>52.0</ele><time>2026-04-06T16:06:29.398Z</time></trkpt><trkpt lat="40.5202631" lon="17.3672786"><ele>52.0</ele><time>2026-04-06T16:06:30.398Z</time></trkpt><trkpt lat="40.5203794" lon="17.3671988"><ele>51.8</ele><time>2026-04-06T16:06:31.398Z</time></trkpt><trkpt lat="40.5204877" lon="17.3671297"><ele>51.6</ele><time>2026-04-06T16:06:32.398Z</time></trkpt><trkpt lat="40.5205856" lon="17.3670683"><ele>51.4</ele><time>2026-04-06T16:06:33.398Z</time></trkpt><trkpt lat="40.5206708" lon="17.3670091"><ele>51.199999999999996</ele><time>2026-04-06T16:06:34.398Z</time></trkpt><trkpt lat="40.5207555" lon="17.3669538"><ele>51.0</ele><time>2026-04-06T16:06:35.398Z</time></trkpt><trkpt lat="40.5208381" lon="17.3668985"><ele>51.0</ele><time>2026-04-06T16:06:36.399Z</time></trkpt><trkpt lat="40.5209155" lon="17.3668528"><ele>51.0</ele><time>2026-04-06T16:06:37.398Z</time></trkpt><trkpt lat="40.5209829" lon="17.3668103"><ele>51.0</ele><time>2026-04-06T16:06:38.398Z</time></trkpt><trkpt lat="40.5210575" lon="17.3667576"><ele>51.0</ele><time>2026-04-06T16:06:40.398Z</time></trkpt><trkpt lat="40.5209928" lon="17.3667423"><ele>51.0</ele><time>2026-04-06T16:06:45.398Z</time></trkpt><trkpt lat="40.5208904" lon="17.3668148"><ele>51.0</ele><time>2026-04-06T16:06:47.398Z</time></trkpt><trkpt lat="40.5207894" lon="17.3668865"><ele>51.0</ele><time>2026-04-06T16:06:49.398Z</time></trkpt><trkpt lat="40.5206739" lon="17.366963"><ele>51.0</ele><time>2026-04-06T16:06:51.398Z</time></trkpt><trkpt lat="40.5206029" lon="17.3670126"><ele>51.0</ele><time>2026-04-06T16:06:52.398Z</time></trkpt><trkpt lat="40.5205198" lon="17.3670636"><ele>51.0</ele><time>2026-04-06T16:06:53.398Z</time></trkpt><trkpt lat="40.5204278" lon="17.3671197"><ele>51.0</ele><time>2026-04-06T16:06:54.398Z</time></trkpt><trkpt lat="40.5203313" lon="17.3671818"><ele>51.25</ele><time>2026-04-06T16:06:55.398Z</time></trkpt><trkpt lat="40.5202333" lon="17.3672488"><ele>51.5</ele><time>2026-04-06T16:06:56.398Z</time></trkpt><trkpt lat="40.5201269" lon="17.367324"><ele>51.75</ele><time>2026-04-06T16:06:57.398Z</time></trkpt><trkpt lat="40.5200104" lon="17.367399"><ele>52.0</ele><time>2026-04-06T16:06:58.398Z</time></trkpt><trkpt lat="40.5198881" lon="17.3674765"><ele>52.0</ele><time>2026-04-06T16:06:59.399Z</time></trkpt><trkpt lat="40.519763" lon="17.3675522"><ele>52.0</ele><time>2026-04-06T16:07:00.398Z</time></trkpt><trkpt lat="40.5196311" lon="17.3676335"><ele>52.0</ele><time>2026-04-06T16:07:01.398Z</time></trkpt><trkpt lat="40.5194971" lon="17.3677272"><ele>52.0</ele><time>2026-04-06T16:07:02.398Z</time></trkpt><trkpt lat="40.5193646" lon="17.367821"><ele>52.0</ele><time>2026-04-06T16:07:03.398Z</time></trkpt><trkpt lat="40.5192291" lon="17.367907"><ele>52.0</ele><time>2026-04-06T16:07:04.398Z</time></trkpt><trkpt lat="40.5190973" lon="17.3679932"><ele>52.0</ele><time>2026-04-06T16:07:05.398Z</time></trkpt><trkpt lat="40.5189679" lon="17.3680832"><ele>52.0</ele><time>2026-04-06T16:07:06.398Z</time></trkpt><trkpt lat="40.5188413" lon="17.3681714"><ele>52.0</ele><time>2026-04-06T16:07:07.398Z</time></trkpt><trkpt lat="40.51871" lon="17.3682602"><ele>52.0</ele><time>2026-04-06T16:07:08.398Z</time></trkpt><trkpt lat="40.5185793" lon="17.3683426"><ele>52.0</ele><time>2026-04-06T16:07:09.398Z</time></trkpt><trkpt lat="40.5184503" lon="17.3684266"><ele>52.0</ele><time>2026-04-06T16:07:10.398Z</time></trkpt><trkpt lat="40.5183217" lon="17.3685131"><ele>52.0</ele><time>2026-04-06T16:07:11.398Z</time></trkpt><trkpt lat="40.5181937" lon="17.3685911"><ele>52.0</ele><time>2026-04-06T16:07:12.398Z</time></trkpt><trkpt lat="40.5180621" lon="17.3686725"><ele>52.0</ele><time>2026-04-06T16:07:13.398Z</time></trkpt><trkpt lat="40.5179345" lon="17.3687534"><ele>52.0</ele><time>2026-04-06T16:07:14.398Z</time></trkpt><trkpt lat="40.5178066" lon="17.3688279"><ele>52.5</ele><time>2026-04-06T16:07:15.398Z</time></trkpt><trkpt lat="40.5176789" lon="17.3689025"><ele>53.0</ele><time>2026-04-06T16:07:16.398Z</time></trkpt><trkpt lat="40.5175576" lon="17.3689728"><ele>53.5</ele><time>2026-04-06T16:07:17.398Z</time></trkpt><trkpt lat="40.5174379" lon="17.3690392"><ele>54.0</ele><time>2026-04-06T16:07:18.398Z</time></trkpt><trkpt lat="40.5173227" lon="17.3691007"><ele>54.0</ele><time>2026-04-06T16:07:19.398Z</time></trkpt><trkpt lat="40.5172047" lon="17.3691622"><ele>54.0</ele><time>2026-04-06T16:07:20.398Z</time></trkpt><trkpt lat="40.5170899" lon="17.3692255"><ele>54.0</ele><time>2026-04-06T16:07:21.398Z</time></trkpt><trkpt lat="40.5169769" lon="17.369285"><ele>54.0</ele><time>2026-04-06T16:07:22.398Z</time></trkpt><trkpt lat="40.5168559" lon="17.3693476"><ele>54.25</ele><time>2026-04-06T16:07:23.398Z</time></trkpt><trkpt lat="40.5167333" lon="17.3694097"><ele>54.5</ele><time>2026-04-06T16:07:24.398Z</time></trkpt><trkpt lat="40.5166058" lon="17.3694718"><ele>54.75</ele><time>2026-04-06T16:07:25.399Z</time></trkpt><trkpt lat="40.5164785" lon="17.3695356"><ele>55.0</ele><time>2026-04-06T16:07:26.398Z</time></trkpt><trkpt lat="40.5163509" lon="17.3696028"><ele>55.0</ele><time>2026-04-06T16:07:27.398Z</time></trkpt><trkpt lat="40.5162194" lon="17.3696684"><ele>55.0</ele><time>2026-04-06T16:07:28.398Z</time></trkpt><trkpt lat="40.516089" lon="17.3697339"><ele>55.0</ele><time>2026-04-06T16:07:29.399Z</time></trkpt><trkpt lat="40.5159648" lon="17.3697977"><ele>55.0</ele><time>2026-04-06T16:07:30.398Z</time></trkpt><trkpt lat="40.5158353" lon="17.369861"><ele>54.75</ele><time>2026-04-06T16:07:31.399Z</time></trkpt><trkpt lat="40.5157" lon="17.3699206"><ele>54.5</ele><time>2026-04-06T16:07:32.398Z</time></trkpt><trkpt lat="40.5155626" lon="17.3699813"><ele>54.25</ele><time>2026-04-06T16:07:33.398Z</time></trkpt><trkpt lat="40.5154239" lon="17.3700444"><ele>54.0</ele><time>2026-04-06T16:07:34.398Z</time></trkpt><trkpt lat="40.5152844" lon="17.3701108"><ele>54.0</ele><time>2026-04-06T16:07:35.398Z</time></trkpt><trkpt lat="40.5151427" lon="17.3701771"><ele>54.0</ele><time>2026-04-06T16:07:36.398Z</time></trkpt><trkpt lat="40.5149932" lon="17.3702457"><ele>54.0</ele><time>2026-04-06T16:07:37.398Z</time></trkpt><trkpt lat="40.5148469" lon="17.370311"><ele>54.0</ele><time>2026-04-06T16:07:38.398Z</time></trkpt><trkpt lat="40.514698" lon="17.3703816"><ele>54.0</ele><time>2026-04-06T16:07:39.399Z</time></trkpt><trkpt lat="40.5145451" lon="17.3704542"><ele>54.0</ele><time>2026-04-06T16:07:40.398Z</time></trkpt><trkpt lat="40.5143949" lon="17.370525"><ele>54.0</ele><time>2026-04-06T16:07:41.399Z</time></trkpt><trkpt lat="40.5142488" lon="17.3705911"><ele>54.0</ele><time>2026-04-06T16:07:42.398Z</time></trkpt><trkpt lat="40.5141016" lon="17.370659"><ele>54.0</ele><time>2026-04-06T16:07:43.398Z</time></trkpt><trkpt lat="40.5139483" lon="17.3707219"><ele>54.0</ele><time>2026-04-06T16:07:44.398Z</time></trkpt><trkpt lat="40.5137935" lon="17.3707906"><ele>54.0</ele><time>2026-04-06T16:07:45.398Z</time></trkpt><trkpt lat="40.5136336" lon="17.3708608"><ele>54.0</ele><time>2026-04-06T16:07:46.398Z</time></trkpt><trkpt lat="40.5134718" lon="17.3709402"><ele>54.0</ele><time>2026-04-06T16:07:47.398Z</time></trkpt><trkpt lat="40.5133058" lon="17.3710165"><ele>54.0</ele><time>2026-04-06T16:07:48.398Z</time></trkpt><trkpt lat="40.5131368" lon="17.3710943"><ele>54.0</ele><time>2026-04-06T16:07:49.398Z</time></trkpt><trkpt lat="40.5129633" lon="17.3711765"><ele>53.33333333333333</ele><time>2026-04-06T16:07:50.398Z</time></trkpt><trkpt lat="40.5127817" lon="17.3712523"><ele>52.666666666666664</ele><time>2026-04-06T16:07:51.399Z</time></trkpt><trkpt lat="40.5126053" lon="17.3713338"><ele>52.0</ele><time>2026-04-06T16:07:52.398Z</time></trkpt><trkpt lat="40.512427" lon="17.3714162"><ele>52.0</ele><time>2026-04-06T16:07:53.398Z</time></trkpt><trkpt lat="40.5122468" lon="17.371501"><ele>52.0</ele><time>2026-04-06T16:07:54.398Z</time></trkpt><trkpt lat="40.5120621" lon="17.3715838"><ele>52.0</ele><time>2026-04-06T16:07:55.398Z</time></trkpt><trkpt lat="40.5118782" lon="17.3716615"><ele>52.0</ele><time>2026-04-06T16:07:56.398Z</time></trkpt><trkpt lat="40.5117014" lon="17.3717361"><ele>52.0</ele><time>2026-04-06T16:07:57.398Z</time></trkpt><trkpt lat="40.5115232" lon="17.3718124"><ele>52.0</ele><time>2026-04-06T16:07:58.398Z</time></trkpt><trkpt lat="40.511349" lon="17.3718915"><ele>51.666666666666664</ele><time>2026-04-06T16:07:59.398Z</time></trkpt><trkpt lat="40.5111739" lon="17.3719697"><ele>51.33333333333333</ele><time>2026-04-06T16:08:00.398Z</time></trkpt><trkpt lat="40.5110018" lon="17.372056"><ele>51.0</ele><time>2026-04-06T16:08:01.399Z</time></trkpt><trkpt lat="40.5108316" lon="17.3721381"><ele>51.33333333333333</ele><time>2026-04-06T16:08:02.399Z</time></trkpt><trkpt lat="40.5106669" lon="17.3722141"><ele>51.666666666666664</ele><time>2026-04-06T16:08:03.398Z</time></trkpt><trkpt lat="40.5105185" lon="17.3722809"><ele>52.0</ele><time>2026-04-06T16:08:04.398Z</time></trkpt><trkpt lat="40.5103914" lon="17.3723247"><ele>52.0</ele><time>2026-04-06T16:08:05.398Z</time></trkpt><trkpt lat="40.5102816" lon="17.3723426"><ele>52.0</ele><time>2026-04-06T16:08:06.398Z</time></trkpt><trkpt lat="40.5101806" lon="17.3723522"><ele>52.0</ele><time>2026-04-06T16:08:07.398Z</time></trkpt><trkpt lat="40.5100903" lon="17.3723391"><ele>52.0</ele><time>2026-04-06T16:08:08.399Z</time></trkpt><trkpt lat="40.5100016" lon="17.3723189"><ele>52.0</ele><time>2026-04-06T16:08:09.398Z</time></trkpt><trkpt lat="40.5099166" lon="17.3723228"><ele>51.99999999999999</ele><time>2026-04-06T16:08:10.399Z</time></trkpt><trkpt lat="40.5098413" lon="17.3723665"><ele>52.0</ele><time>2026-04-06T16:08:11.398Z</time></trkpt><trkpt lat="40.5097819" lon="17.3724468"><ele>52.0</ele><time>2026-04-06T16:08:12.398Z</time></trkpt><trkpt lat="40.5097446" lon="17.3725471"><ele>52.0</ele><time>2026-04-06T16:08:13.399Z</time></trkpt><trkpt lat="40.5097526" lon="17.3726482"><ele>51.99999999999999</ele><time>2026-04-06T16:08:14.398Z</time></trkpt><trkpt lat="40.5097745" lon="17.3727268"><ele>52.0</ele><time>2026-04-06T16:08:15.398Z</time></trkpt><trkpt lat="40.5098349" lon="17.3727815"><ele>51.99999999999999</ele><time>2026-04-06T16:08:16.398Z</time></trkpt><trkpt lat="40.5099017" lon="17.3728165"><ele>52.0</ele><time>2026-04-06T16:08:17.398Z</time></trkpt><trkpt lat="40.5099647" lon="17.3728378"><ele>52.0</ele><time>2026-04-06T16:08:18.398Z</time></trkpt><trkpt lat="40.5100961" lon="17.3728467"><ele>52.0</ele><time>2026-04-06T16:08:20.398Z</time></trkpt><trkpt lat="40.5101719" lon="17.3728713"><ele>51.99999999999999</ele><time>2026-04-06T16:08:21.398Z</time></trkpt><trkpt lat="40.5102542" lon="17.3729324"><ele>52.0</ele><time>2026-04-06T16:08:22.399Z</time></trkpt><trkpt lat="40.5103388" lon="17.3730033"><ele>52.166666666666664</ele><time>2026-04-06T16:08:23.398Z</time></trkpt><trkpt lat="40.5104013" lon="17.373043"><ele>52.33333333333333</ele><time>2026-04-06T16:08:24.398Z</time></trkpt><trkpt lat="40.5105035" lon="17.3730688"><ele>52.5</ele><time>2026-04-06T16:08:26.399Z</time></trkpt><trkpt lat="40.5105422" lon="17.3729602"><ele>52.66666666666667</ele><time>2026-04-06T16:08:28.398Z</time></trkpt><trkpt lat="40.5105375" lon="17.3728452"><ele>52.833333333333336</ele><time>2026-04-06T16:08:29.398Z</time></trkpt><trkpt lat="40.5105282" lon="17.3727208"><ele>53.0</ele><time>2026-04-06T16:08:30.399Z</time></trkpt><trkpt lat="40.510528" lon="17.3726136"><ele>53.0</ele><time>2026-04-06T16:08:31.398Z</time></trkpt><trkpt lat="40.5105514" lon="17.3725287"><ele>53.0</ele><time>2026-04-06T16:08:32.398Z</time></trkpt><trkpt lat="40.5105924" lon="17.3724616"><ele>53.0</ele><time>2026-04-06T16:08:33.398Z</time></trkpt><trkpt lat="40.5106569" lon="17.3724095"><ele>53.0</ele><time>2026-04-06T16:08:34.398Z</time></trkpt><trkpt lat="40.5107572" lon="17.3723602"><ele>53.0</ele><time>2026-04-06T16:08:35.398Z</time></trkpt><trkpt lat="40.5108954" lon="17.372303"><ele>53.0</ele><time>2026-04-06T16:08:36.398Z</time></trkpt><trkpt lat="40.5110312" lon="17.3722478"><ele>53.0</ele><time>2026-04-06T16:08:37.398Z</time></trkpt><trkpt lat="40.5111477" lon="17.3721809"><ele>53.0</ele><time>2026-04-06T16:08:38.398Z</time></trkpt><trkpt lat="40.5112585" lon="17.3721168"><ele>53.0</ele><time>2026-04-06T16:08:39.398Z</time></trkpt><trkpt lat="40.5113581" lon="17.3720642"><ele>52.75</ele><time>2026-04-06T16:08:40.398Z</time></trkpt><trkpt lat="40.5114564" lon="17.3720272"><ele>52.5</ele><time>2026-04-06T16:08:41.399Z</time></trkpt><trkpt lat="40.5115662" lon="17.3720131"><ele>52.25</ele><time>2026-04-06T16:08:42.398Z</time></trkpt><trkpt lat="40.5117102" lon="17.3720163"><ele>52.0</ele><time>2026-04-06T16:08:43.398Z</time></trkpt><trkpt lat="40.5118638" lon="17.3720089"><ele>52.0</ele><time>2026-04-06T16:08:44.398Z</time></trkpt><trkpt lat="40.5119994" lon="17.3720087"><ele>52.0</ele><time>2026-04-06T16:08:45.398Z</time></trkpt><trkpt lat="40.5121325" lon="17.3720167"><ele>52.0</ele><time>2026-04-06T16:08:46.398Z</time></trkpt><trkpt lat="40.5122663" lon="17.3720257"><ele>52.0</ele><time>2026-04-06T16:08:47.398Z</time></trkpt><trkpt lat="40.5123954" lon="17.3720308"><ele>51.75</ele><time>2026-04-06T16:08:48.398Z</time></trkpt><trkpt lat="40.5125238" lon="17.3720299"><ele>51.5</ele><time>2026-04-06T16:08:49.398Z</time></trkpt><trkpt lat="40.5126437" lon="17.3720237"><ele>51.25</ele><time>2026-04-06T16:08:50.399Z</time></trkpt><trkpt lat="40.5127607" lon="17.3720198"><ele>51.0</ele><time>2026-04-06T16:08:51.398Z</time></trkpt><trkpt lat="40.5128817" lon="17.3720184"><ele>51.199999999999996</ele><time>2026-04-06T16:08:52.398Z</time></trkpt><trkpt lat="40.513002" lon="17.3720185"><ele>51.4</ele><time>2026-04-06T16:08:53.398Z</time></trkpt><trkpt lat="40.513117" lon="17.3720194"><ele>51.6</ele><time>2026-04-06T16:08:54.398Z</time></trkpt><trkpt lat="40.5132271" lon="17.3720186"><ele>51.8</ele><time>2026-04-06T16:08:55.398Z</time></trkpt><trkpt lat="40.5133298" lon="17.3720223"><ele>52.0</ele><time>2026-04-06T16:08:56.398Z</time></trkpt><trkpt lat="40.5134293" lon="17.372021"><ele>52.0</ele><time>2026-04-06T16:08:57.398Z</time></trkpt><trkpt lat="40.5135166" lon="17.3720174"><ele>52.0</ele><time>2026-04-06T16:08:58.398Z</time></trkpt><trkpt lat="40.5135925" lon="17.372008"><ele>52.0</ele><time>2026-04-06T16:08:59.398Z</time></trkpt><trkpt lat="40.513657" lon="17.3719834"><ele>52.0</ele><time>2026-04-06T16:09:00.398Z</time></trkpt><trkpt lat="40.513715" lon="17.371949"><ele>52.0</ele><time>2026-04-06T16:09:01.398Z</time></trkpt><trkpt lat="40.5137761" lon="17.3719039"><ele>52.0</ele><time>2026-04-06T16:09:02.398Z</time></trkpt><trkpt lat="40.5138358" lon="17.3718463"><ele>52.0</ele><time>2026-04-06T16:09:03.398Z</time></trkpt><trkpt lat="40.5138908" lon="17.3717907"><ele>52.400000000000006</ele><time>2026-04-06T16:09:04.398Z</time></trkpt><trkpt lat="40.5139905" lon="17.3717002"><ele>52.800000000000004</ele><time>2026-04-06T16:09:06.398Z</time></trkpt><trkpt lat="40.5140761" lon="17.3716556"><ele>53.2</ele><time>2026-04-06T16:09:08.398Z</time></trkpt><trkpt lat="40.5141496" lon="17.3716914"><ele>53.6</ele><time>2026-04-06T16:09:10.398Z</time></trkpt><trkpt lat="40.5141834" lon="17.3718089"><ele>54.0</ele><time>2026-04-06T16:09:12.398Z</time></trkpt><trkpt lat="40.5142135" lon="17.3719775"><ele>54.0</ele><time>2026-04-06T16:09:14.398Z</time></trkpt><trkpt lat="40.5142261" lon="17.3720791"><ele>54.00000000000001</ele><time>2026-04-06T16:09:15.398Z</time></trkpt><trkpt lat="40.5142335" lon="17.3721956"><ele>54.00000000000001</ele><time>2026-04-06T16:09:16.398Z</time></trkpt><trkpt lat="40.5142382" lon="17.3723339"><ele>54.0</ele><time>2026-04-06T16:09:17.398Z</time></trkpt><trkpt lat="40.5142418" lon="17.3724895"><ele>54.0</ele><time>2026-04-06T16:09:18.398Z</time></trkpt><trkpt lat="40.5142427" lon="17.3726549"><ele>53.75</ele><time>2026-04-06T16:09:19.399Z</time></trkpt><trkpt lat="40.5142441" lon="17.3728321"><ele>53.5</ele><time>2026-04-06T16:09:20.398Z</time></trkpt><trkpt lat="40.5142465" lon="17.3730071"><ele>53.25</ele><time>2026-04-06T16:09:21.398Z</time></trkpt><trkpt lat="40.5142498" lon="17.3731865"><ele>53.0</ele><time>2026-04-06T16:09:22.398Z</time></trkpt><trkpt lat="40.5142562" lon="17.3733737"><ele>53.0</ele><time>2026-04-06T16:09:23.398Z</time></trkpt><trkpt lat="40.5142581" lon="17.3735476"><ele>53.0</ele><time>2026-04-06T16:09:24.398Z</time></trkpt><trkpt lat="40.5142568" lon="17.3737253"><ele>53.0</ele><time>2026-04-06T16:09:25.398Z</time></trkpt><trkpt lat="40.5142554" lon="17.3739071"><ele>53.0</ele><time>2026-04-06T16:09:26.398Z</time></trkpt><trkpt lat="40.5142524" lon="17.3740835"><ele>53.25</ele><time>2026-04-06T16:09:27.398Z</time></trkpt><trkpt lat="40.5142491" lon="17.3742476"><ele>53.5</ele><time>2026-04-06T16:09:28.398Z</time></trkpt><trkpt lat="40.5142459" lon="17.3744051"><ele>53.75</ele><time>2026-04-06T16:09:29.398Z</time></trkpt><trkpt lat="40.5142451" lon="17.3745571"><ele>54.0</ele><time>2026-04-06T16:09:30.398Z</time></trkpt><trkpt lat="40.5142378" lon="17.3747027"><ele>54.0</ele><time>2026-04-06T16:09:31.398Z</time></trkpt><trkpt lat="40.5142346" lon="17.374837"><ele>54.0</ele><time>2026-04-06T16:09:32.398Z</time></trkpt><trkpt lat="40.5142303" lon="17.3749568"><ele>54.0</ele><time>2026-04-06T16:09:33.398Z</time></trkpt><trkpt lat="40.514225" lon="17.3750784"><ele>54.0</ele><time>2026-04-06T16:09:34.398Z</time></trkpt><trkpt lat="40.5142261" lon="17.3751765"><ele>54.0</ele><time>2026-04-06T16:09:35.398Z</time></trkpt><trkpt lat="40.5142296" lon="17.3752653"><ele>54.0</ele><time>2026-04-06T16:09:36.398Z</time></trkpt><trkpt lat="40.5142671" lon="17.3753551"><ele>54.0</ele><time>2026-04-06T16:09:38.398Z</time></trkpt><trkpt lat="40.5142367" lon="17.375228"><ele>54.00000000000001</ele><time>2026-04-06T16:11:05.398Z</time></trkpt><trkpt lat="40.5142397" lon="17.3751389"><ele>54.00000000000001</ele><time>2026-04-06T16:11:06.398Z</time></trkpt><trkpt lat="40.5142468" lon="17.3750222"><ele>54.0</ele><time>2026-04-06T16:11:07.398Z</time></trkpt><trkpt lat="40.5142517" lon="17.3748874"><ele>54.0</ele><time>2026-04-06T16:11:08.398Z</time></trkpt><trkpt lat="40.5142599" lon="17.3747478"><ele>54.0</ele><time>2026-04-06T16:11:09.398Z</time></trkpt><trkpt lat="40.5142648" lon="17.3746143"><ele>54.00000000000001</ele><time>2026-04-06T16:11:10.398Z</time></trkpt><trkpt lat="40.5142629" lon="17.3744761"><ele>54.00000000000001</ele><time>2026-04-06T16:11:11.398Z</time></trkpt><trkpt lat="40.514262" lon="17.3743308"><ele>54.0</ele><time>2026-04-06T16:11:12.398Z</time></trkpt><trkpt lat="40.5142617" lon="17.3741795"><ele>54.0</ele><time>2026-04-06T16:11:13.398Z</time></trkpt><trkpt lat="40.5142625" lon="17.3740288"><ele>54.0</ele><time>2026-04-06T16:11:14.398Z</time></trkpt><trkpt lat="40.5142611" lon="17.3738883"><ele>54.00000000000001</ele><time>2026-04-06T16:11:15.398Z</time></trkpt><trkpt lat="40.5142627" lon="17.373751"><ele>54.00000000000001</ele><time>2026-04-06T16:11:16.398Z</time></trkpt><trkpt lat="40.5142635" lon="17.373611"><ele>54.0</ele><time>2026-04-06T16:11:17.398Z</time></trkpt><trkpt lat="40.5142674" lon="17.3734693"><ele>54.0</ele><time>2026-04-06T16:11:18.399Z</time></trkpt><trkpt lat="40.5142661" lon="17.3733248"><ele>53.800000000000004</ele><time>2026-04-06T16:11:19.398Z</time></trkpt><trkpt lat="40.5142636" lon="17.3731844"><ele>53.60000000000001</ele><time>2026-04-06T16:11:20.398Z</time></trkpt><trkpt lat="40.5142608" lon="17.3730379"><ele>53.4</ele><time>2026-04-06T16:11:21.398Z</time></trkpt><trkpt lat="40.5142588" lon="17.37289"><ele>53.2</ele><time>2026-04-06T16:11:22.398Z</time></trkpt><trkpt lat="40.5142577" lon="17.3727484"><ele>53.0</ele><time>2026-04-06T16:11:23.398Z</time></trkpt><trkpt lat="40.5142519" lon="17.3726182"><ele>53.00000000000001</ele><time>2026-04-06T16:11:24.398Z</time></trkpt><trkpt lat="40.51425" lon="17.3724949"><ele>53.0</ele><time>2026-04-06T16:11:25.399Z</time></trkpt><trkpt lat="40.5142485" lon="17.3723733"><ele>53.0</ele><time>2026-04-06T16:11:26.398Z</time></trkpt><trkpt lat="40.5142457" lon="17.372255"><ele>53.0</ele><time>2026-04-06T16:11:27.398Z</time></trkpt><trkpt lat="40.5142417" lon="17.3721402"><ele>53.00000000000001</ele><time>2026-04-06T16:11:28.398Z</time></trkpt><trkpt lat="40.5142313" lon="17.3720371"><ele>53.0</ele><time>2026-04-06T16:11:29.398Z</time></trkpt><trkpt lat="40.5142151" lon="17.3719396"><ele>53.16666666666667</ele><time>2026-04-06T16:11:30.398Z</time></trkpt><trkpt lat="40.5141938" lon="17.3718419"><ele>53.333333333333336</ele><time>2026-04-06T16:11:31.398Z</time></trkpt><trkpt lat="40.514165" lon="17.3716996"><ele>53.5</ele><time>2026-04-06T16:11:33.398Z</time></trkpt><trkpt lat="40.514117" lon="17.3716387"><ele>53.66666666666667</ele><time>2026-04-06T16:11:35.398Z</time></trkpt><trkpt lat="40.5140355" lon="17.3716688"><ele>53.833333333333336</ele><time>2026-04-06T16:11:37.398Z</time></trkpt><trkpt lat="40.5139726" lon="17.3717272"><ele>54.0</ele><time>2026-04-06T16:11:38.398Z</time></trkpt><trkpt lat="40.5138963" lon="17.3717904"><ele>54.0</ele><time>2026-04-06T16:11:39.398Z</time></trkpt><trkpt lat="40.5138197" lon="17.3718537"><ele>54.00000000000001</ele><time>2026-04-06T16:11:40.398Z</time></trkpt><trkpt lat="40.5137464" lon="17.371911"><ele>54.00000000000001</ele><time>2026-04-06T16:11:41.398Z</time></trkpt><trkpt lat="40.5136737" lon="17.371958"><ele>54.0</ele><time>2026-04-06T16:11:42.398Z</time></trkpt><trkpt lat="40.5135889" lon="17.3719928"><ele>54.0</ele><time>2026-04-06T16:11:43.398Z</time></trkpt><trkpt lat="40.5134806" lon="17.372008"><ele>53.33333333333333</ele><time>2026-04-06T16:11:44.398Z</time></trkpt><trkpt lat="40.5133278" lon="17.3720127"><ele>52.666666666666664</ele><time>2026-04-06T16:11:45.399Z</time></trkpt><trkpt lat="40.5131645" lon="17.3720137"><ele>52.0</ele><time>2026-04-06T16:11:46.398Z</time></trkpt><trkpt lat="40.5129951" lon="17.3720186"><ele>51.666666666666664</ele><time>2026-04-06T16:11:47.398Z</time></trkpt><trkpt lat="40.5128387" lon="17.3720153"><ele>51.33333333333333</ele><time>2026-04-06T16:11:48.398Z</time></trkpt><trkpt lat="40.5126916" lon="17.3720116"><ele>51.0</ele><time>2026-04-06T16:11:49.398Z</time></trkpt><trkpt lat="40.5125427" lon="17.3720127"><ele>51.0</ele><time>2026-04-06T16:11:50.398Z</time></trkpt><trkpt lat="40.5123935" lon="17.3720127"><ele>51.0</ele><time>2026-04-06T16:11:51.398Z</time></trkpt><trkpt lat="40.512245" lon="17.3720144"><ele>51.0</ele><time>2026-04-06T16:11:52.398Z</time></trkpt><trkpt lat="40.5120995" lon="17.3720075"><ele>51.0</ele><time>2026-04-06T16:11:53.398Z</time></trkpt><trkpt lat="40.5119573" lon="17.3720052"><ele>51.25</ele><time>2026-04-06T16:11:54.398Z</time></trkpt><trkpt lat="40.5118204" lon="17.3720025"><ele>51.5</ele><time>2026-04-06T16:11:55.398Z</time></trkpt><trkpt lat="40.5116946" lon="17.372002"><ele>51.75</ele><time>2026-04-06T16:11:56.398Z</time></trkpt><trkpt lat="40.5115766" lon="17.3720117"><ele>52.0</ele><time>2026-04-06T16:11:57.398Z</time></trkpt><trkpt lat="40.5114629" lon="17.3720253"><ele>52.0</ele><time>2026-04-06T16:11:58.398Z</time></trkpt><trkpt lat="40.511359" lon="17.3720517"><ele>52.0</ele><time>2026-04-06T16:11:59.398Z</time></trkpt><trkpt lat="40.5112612" lon="17.3721096"><ele>52.0</ele><time>2026-04-06T16:12:00.399Z</time></trkpt><trkpt lat="40.5111491" lon="17.3721693"><ele>52.0</ele><time>2026-04-06T16:12:01.398Z</time></trkpt><trkpt lat="40.5110288" lon="17.3722303"><ele>52.2</ele><time>2026-04-06T16:12:02.398Z</time></trkpt><trkpt lat="40.5109076" lon="17.3722879"><ele>52.400000000000006</ele><time>2026-04-06T16:12:03.398Z</time></trkpt><trkpt lat="40.5107898" lon="17.3723436"><ele>52.599999999999994</ele><time>2026-04-06T16:12:04.398Z</time></trkpt><trkpt lat="40.510689" lon="17.3723929"><ele>52.8</ele><time>2026-04-06T16:12:05.398Z</time></trkpt><trkpt lat="40.5106155" lon="17.3724349"><ele>53.0</ele><time>2026-04-06T16:12:06.398Z</time></trkpt><trkpt lat="40.5105676" lon="17.3724898"><ele>53.0</ele><time>2026-04-06T16:12:07.398Z</time></trkpt><trkpt lat="40.5105356" lon="17.3725638"><ele>53.0</ele><time>2026-04-06T16:12:08.398Z</time></trkpt><trkpt lat="40.5105211" lon="17.3726509"><ele>53.0</ele><time>2026-04-06T16:12:09.398Z</time></trkpt><trkpt lat="40.5105216" lon="17.3727564"><ele>53.0</ele><time>2026-04-06T16:12:10.398Z</time></trkpt><trkpt lat="40.5105315" lon="17.3728542"><ele>53.0</ele><time>2026-04-06T16:12:11.398Z</time></trkpt><trkpt lat="40.5105368" lon="17.37294"><ele>53.0</ele><time>2026-04-06T16:12:12.398Z</time></trkpt><trkpt lat="40.5105164" lon="17.3730436"><ele>53.0</ele><time>2026-04-06T16:12:14.398Z</time></trkpt><trkpt lat="40.5104113" lon="17.3730346"><ele>52.833333333333336</ele><time>2026-04-06T16:12:25.398Z</time></trkpt><trkpt lat="40.5103527" lon="17.3729899"><ele>52.66666666666667</ele><time>2026-04-06T16:12:26.398Z</time></trkpt><trkpt lat="40.5102946" lon="17.3729244"><ele>52.5</ele><time>2026-04-06T16:12:27.398Z</time></trkpt><trkpt lat="40.5102431" lon="17.3728353"><ele>52.33333333333333</ele><time>2026-04-06T16:12:28.398Z</time></trkpt><trkpt lat="40.510208" lon="17.3727452"><ele>52.166666666666664</ele><time>2026-04-06T16:12:29.398Z</time></trkpt><trkpt lat="40.5101863" lon="17.3726376"><ele>52.0</ele><time>2026-04-06T16:12:30.398Z</time></trkpt><trkpt lat="40.5101627" lon="17.3725311"><ele>51.99999999999999</ele><time>2026-04-06T16:12:31.399Z</time></trkpt><trkpt lat="40.5101314" lon="17.3724377"><ele>52.0</ele><time>2026-04-06T16:12:32.398Z</time></trkpt><trkpt lat="40.510082" lon="17.3723507"><ele>52.0</ele><time>2026-04-06T16:12:33.398Z</time></trkpt><trkpt lat="40.5100135" lon="17.3723138"><ele>52.0</ele><time>2026-04-06T16:12:34.398Z</time></trkpt><trkpt lat="40.5099376" lon="17.3723251"><ele>51.99999999999999</ele><time>2026-04-06T16:12:35.398Z</time></trkpt><trkpt lat="40.5098703" lon="17.3723669"><ele>52.0</ele><time>2026-04-06T16:12:36.398Z</time></trkpt><trkpt lat="40.5097938" lon="17.3724335"><ele>52.0</ele><time>2026-04-06T16:12:37.398Z</time></trkpt><trkpt lat="40.5097364" lon="17.3725157"><ele>52.0</ele><time>2026-04-06T16:12:38.398Z</time></trkpt><trkpt lat="40.5096692" lon="17.3725934"><ele>52.0</ele><time>2026-04-06T16:12:39.398Z</time></trkpt><trkpt lat="40.5095853" lon="17.3726586"><ele>52.0</ele><time>2026-04-06T16:12:40.398Z</time></trkpt><trkpt lat="40.5094722" lon="17.3727237"><ele>52.0</ele><time>2026-04-06T16:12:41.398Z</time></trkpt><trkpt lat="40.509341" lon="17.3727819"><ele>51.666666666666664</ele><time>2026-04-06T16:12:42.398Z</time></trkpt><trkpt lat="40.5092015" lon="17.3728516"><ele>51.33333333333333</ele><time>2026-04-06T16:12:43.398Z</time></trkpt><trkpt lat="40.5090529" lon="17.3729232"><ele>51.0</ele><time>2026-04-06T16:12:44.398Z</time></trkpt><trkpt lat="40.5088935" lon="17.3729881"><ele>51.33333333333333</ele><time>2026-04-06T16:12:45.398Z</time></trkpt><trkpt lat="40.5087296" lon="17.3730552"><ele>51.666666666666664</ele><time>2026-04-06T16:12:46.398Z</time></trkpt><trkpt lat="40.5085593" lon="17.3731197"><ele>52.0</ele><time>2026-04-06T16:12:47.398Z</time></trkpt><trkpt lat="40.5083799" lon="17.3731872"><ele>52.0</ele><time>2026-04-06T16:12:48.399Z</time></trkpt><trkpt lat="40.5082018" lon="17.3732595"><ele>52.0</ele><time>2026-04-06T16:12:49.398Z</time></trkpt><trkpt lat="40.5080273" lon="17.3733336"><ele>52.0</ele><time>2026-04-06T16:12:50.398Z</time></trkpt><trkpt lat="40.507852" lon="17.3734036"><ele>51.666666666666664</ele><time>2026-04-06T16:12:51.398Z</time></trkpt><trkpt lat="40.5076792" lon="17.3734717"><ele>51.33333333333333</ele><time>2026-04-06T16:12:52.398Z</time></trkpt><trkpt lat="40.5075026" lon="17.3735402"><ele>51.0</ele><time>2026-04-06T16:12:53.398Z</time></trkpt><trkpt lat="40.5073241" lon="17.3736126"><ele>51.0</ele><time>2026-04-06T16:12:54.398Z</time></trkpt><trkpt lat="40.5071491" lon="17.3736876"><ele>51.0</ele><time>2026-04-06T16:12:55.398Z</time></trkpt><trkpt lat="40.5069729" lon="17.3737638"><ele>51.0</ele><time>2026-04-06T16:12:56.398Z</time></trkpt><trkpt lat="40.506793" lon="17.3738384"><ele>51.0</ele><time>2026-04-06T16:12:57.398Z</time></trkpt><trkpt lat="40.5066089" lon="17.3739125"><ele>51.0</ele><time>2026-04-06T16:12:58.398Z</time></trkpt><trkpt lat="40.5064115" lon="17.3739934"><ele>51.0</ele><time>2026-04-06T16:12:59.398Z</time></trkpt><trkpt lat="40.506205" lon="17.374079"><ele>50.33333333333333</ele><time>2026-04-06T16:13:00.398Z</time></trkpt><trkpt lat="40.5059979" lon="17.3741617"><ele>49.666666666666664</ele><time>2026-04-06T16:13:01.398Z</time></trkpt><trkpt lat="40.5057953" lon="17.3742372"><ele>49.0</ele><time>2026-04-06T16:13:02.398Z</time></trkpt><trkpt lat="40.5055968" lon="17.3743082"><ele>48.666666666666664</ele><time>2026-04-06T16:13:03.398Z</time></trkpt><trkpt lat="40.5054048" lon="17.3743866"><ele>48.33333333333333</ele><time>2026-04-06T16:13:04.398Z</time></trkpt><trkpt lat="40.5052094" lon="17.3744634"><ele>48.0</ele><time>2026-04-06T16:13:05.398Z</time></trkpt><trkpt lat="40.5050141" lon="17.3745409"><ele>48.0</ele><time>2026-04-06T16:13:06.398Z</time></trkpt><trkpt lat="40.5048233" lon="17.3746159"><ele>48.0</ele><time>2026-04-06T16:13:07.398Z</time></trkpt><trkpt lat="40.5046265" lon="17.3746926"><ele>48.0</ele><time>2026-04-06T16:13:08.398Z</time></trkpt><trkpt lat="40.5044322" lon="17.3747658"><ele>48.66666666666667</ele><time>2026-04-06T16:13:09.398Z</time></trkpt><trkpt lat="40.5042438" lon="17.3748345"><ele>49.333333333333336</ele><time>2026-04-06T16:13:10.398Z</time></trkpt><trkpt lat="40.5040659" lon="17.3748987"><ele>50.0</ele><time>2026-04-06T16:13:11.398Z</time></trkpt><trkpt lat="40.5038882" lon="17.3749674"><ele>49.333333333333336</ele><time>2026-04-06T16:13:12.398Z</time></trkpt><trkpt lat="40.5037134" lon="17.3750351"><ele>48.66666666666667</ele><time>2026-04-06T16:13:13.398Z</time></trkpt><trkpt lat="40.5035438" lon="17.3750991"><ele>48.0</ele><time>2026-04-06T16:13:14.398Z</time></trkpt><trkpt lat="40.5033829" lon="17.3751582"><ele>48.0</ele><time>2026-04-06T16:13:15.398Z</time></trkpt><trkpt lat="40.5032345" lon="17.3752195"><ele>48.0</ele><time>2026-04-06T16:13:16.398Z</time></trkpt><trkpt lat="40.5030916" lon="17.3752877"><ele>48.0</ele><time>2026-04-06T16:13:17.398Z</time></trkpt><trkpt lat="40.5029448" lon="17.3753666"><ele>47.0</ele><time>2026-04-06T16:13:18.398Z</time></trkpt><trkpt lat="40.5027983" lon="17.3754557"><ele>46.0</ele><time>2026-04-06T16:13:19.398Z</time></trkpt><trkpt lat="40.5026582" lon="17.3755563"><ele>45.0</ele><time>2026-04-06T16:13:20.398Z</time></trkpt><trkpt lat="40.5025302" lon="17.3756643"><ele>45.0</ele><time>2026-04-06T16:13:21.399Z</time></trkpt><trkpt lat="40.5024176" lon="17.3757649"><ele>45.0</ele><time>2026-04-06T16:13:22.398Z</time></trkpt><trkpt lat="40.5023132" lon="17.3758545"><ele>45.0</ele><time>2026-04-06T16:13:23.398Z</time></trkpt><trkpt lat="40.5022237" lon="17.3759289"><ele>45.0</ele><time>2026-04-06T16:13:24.398Z</time></trkpt><trkpt lat="40.5021534" lon="17.3759853"><ele>45.0</ele><time>2026-04-06T16:13:25.398Z</time></trkpt><trkpt lat="40.5020946" lon="17.3760242"><ele>45.166666666666664</ele><time>2026-04-06T16:13:26.398Z</time></trkpt><trkpt lat="40.5020281" lon="17.3760612"><ele>45.333333333333336</ele><time>2026-04-06T16:13:27.398Z</time></trkpt><trkpt lat="40.5019555" lon="17.376095"><ele>45.5</ele><time>2026-04-06T16:13:28.398Z</time></trkpt><trkpt lat="40.5018757" lon="17.3761295"><ele>45.66666666666667</ele><time>2026-04-06T16:13:29.398Z</time></trkpt><trkpt lat="40.5018068" lon="17.3761972"><ele>45.833333333333336</ele><time>2026-04-06T16:13:30.398Z</time></trkpt><trkpt lat="40.50175" lon="17.3762845"><ele>46.0</ele><time>2026-04-06T16:13:31.398Z</time></trkpt><trkpt lat="40.5016906" lon="17.3763343"><ele>46.0</ele><time>2026-04-06T16:13:32.399Z</time></trkpt><trkpt lat="40.5015706" lon="17.3762974"><ele>46.0</ele><time>2026-04-06T16:13:34.398Z</time></trkpt><trkpt lat="40.5015043" lon="17.3762206"><ele>46.0</ele><time>2026-04-06T16:13:35.398Z</time></trkpt><trkpt lat="40.501426" lon="17.376111"><ele>46.0</ele><time>2026-04-06T16:13:36.398Z</time></trkpt><trkpt lat="40.5013264" lon="17.3759814"><ele>47.0</ele><time>2026-04-06T16:13:37.399Z</time></trkpt><trkpt lat="40.5012093" lon="17.3758472"><ele>48.0</ele><time>2026-04-06T16:13:38.398Z</time></trkpt><trkpt lat="40.501094" lon="17.3757067"><ele>49.0</ele><time>2026-04-06T16:13:39.398Z</time></trkpt><trkpt lat="40.5009737" lon="17.3755511"><ele>48.666666666666664</ele><time>2026-04-06T16:13:40.398Z</time></trkpt><trkpt lat="40.5008365" lon="17.3753856"><ele>48.33333333333333</ele><time>2026-04-06T16:13:41.398Z</time></trkpt><trkpt lat="40.5007006" lon="17.3752171"><ele>48.0</ele><time>2026-04-06T16:13:42.398Z</time></trkpt><trkpt lat="40.5005702" lon="17.3750556"><ele>48.0</ele><time>2026-04-06T16:13:43.398Z</time></trkpt><trkpt lat="40.5004413" lon="17.3748899"><ele>48.0</ele><time>2026-04-06T16:13:44.399Z</time></trkpt><trkpt lat="40.5003103" lon="17.3747305"><ele>48.0</ele><time>2026-04-06T16:13:45.398Z</time></trkpt><trkpt lat="40.5001756" lon="17.374568"><ele>48.0</ele><time>2026-04-06T16:13:46.399Z</time></trkpt><trkpt lat="40.5000366" lon="17.3743946"><ele>48.0</ele><time>2026-04-06T16:13:47.398Z</time></trkpt><trkpt lat="40.4998991" lon="17.3742277"><ele>48.0</ele><time>2026-04-06T16:13:48.398Z</time></trkpt><trkpt lat="40.4997594" lon="17.3740599"><ele>48.0</ele><time>2026-04-06T16:13:49.398Z</time></trkpt><trkpt lat="40.4996283" lon="17.3738869"><ele>48.0</ele><time>2026-04-06T16:13:50.398Z</time></trkpt><trkpt lat="40.499501" lon="17.3737221"><ele>48.0</ele><time>2026-04-06T16:13:51.398Z</time></trkpt><trkpt lat="40.4993717" lon="17.3735572"><ele>48.33333333333333</ele><time>2026-04-06T16:13:52.398Z</time></trkpt><trkpt lat="40.4992424" lon="17.3733961"><ele>48.666666666666664</ele><time>2026-04-06T16:13:53.399Z</time></trkpt><trkpt lat="40.4991072" lon="17.3732363"><ele>49.0</ele><time>2026-04-06T16:13:54.398Z</time></trkpt><trkpt lat="40.4989532" lon="17.3730683"><ele>49.0</ele><time>2026-04-06T16:13:55.398Z</time></trkpt><trkpt lat="40.4987955" lon="17.3728869"><ele>49.0</ele><time>2026-04-06T16:13:56.398Z</time></trkpt><trkpt lat="40.498638" lon="17.3727089"><ele>49.0</ele><time>2026-04-06T16:13:57.398Z</time></trkpt><trkpt lat="40.4984883" lon="17.3725363"><ele>48.666666666666664</ele><time>2026-04-06T16:13:58.398Z</time></trkpt><trkpt lat="40.4983406" lon="17.3723652"><ele>48.33333333333333</ele><time>2026-04-06T16:13:59.398Z</time></trkpt><trkpt lat="40.4981947" lon="17.3721969"><ele>48.0</ele><time>2026-04-06T16:14:00.399Z</time></trkpt><trkpt lat="40.4980451" lon="17.3720317"><ele>48.0</ele><time>2026-04-06T16:14:01.398Z</time></trkpt><trkpt lat="40.4979001" lon="17.37187"><ele>48.0</ele><time>2026-04-06T16:14:02.398Z</time></trkpt><trkpt lat="40.4977539" lon="17.3717096"><ele>48.0</ele><time>2026-04-06T16:14:03.399Z</time></trkpt><trkpt lat="40.4976098" lon="17.3715585"><ele>48.0</ele><time>2026-04-06T16:14:04.399Z</time></trkpt><trkpt lat="40.4974776" lon="17.3714141"><ele>48.0</ele><time>2026-04-06T16:14:05.398Z</time></trkpt><trkpt lat="40.4973451" lon="17.3712701"><ele>48.0</ele><time>2026-04-06T16:14:06.398Z</time></trkpt><trkpt lat="40.4972158" lon="17.3711343"><ele>48.0</ele><time>2026-04-06T16:14:07.398Z</time></trkpt><trkpt lat="40.4970901" lon="17.3709988"><ele>48.0</ele><time>2026-04-06T16:14:08.398Z</time></trkpt><trkpt lat="40.4969636" lon="17.3708624"><ele>48.0</ele><time>2026-04-06T16:14:09.398Z</time></trkpt><trkpt lat="40.4968397" lon="17.3707157"><ele>48.0</ele><time>2026-04-06T16:14:10.398Z</time></trkpt><trkpt lat="40.4967303" lon="17.3705623"><ele>48.0</ele><time>2026-04-06T16:14:11.398Z</time></trkpt><trkpt lat="40.4966199" lon="17.3703998"><ele>48.0</ele><time>2026-04-06T16:14:12.398Z</time></trkpt><trkpt lat="40.4965071" lon="17.3702377"><ele>48.0</ele><time>2026-04-06T16:14:13.398Z</time></trkpt><trkpt lat="40.4963919" lon="17.3700701"><ele>48.0</ele><time>2026-04-06T16:14:14.398Z</time></trkpt><trkpt lat="40.4962731" lon="17.3698956"><ele>48.0</ele><time>2026-04-06T16:14:15.398Z</time></trkpt><trkpt lat="40.4961605" lon="17.3697221"><ele>47.333333333333336</ele><time>2026-04-06T16:14:16.398Z</time></trkpt><trkpt lat="40.4960505" lon="17.3695512"><ele>46.66666666666667</ele><time>2026-04-06T16:14:17.398Z</time></trkpt><trkpt lat="40.4959519" lon="17.3693963"><ele>46.0</ele><time>2026-04-06T16:14:18.398Z</time></trkpt><trkpt lat="40.4958635" lon="17.3692606"><ele>46.0</ele><time>2026-04-06T16:14:19.398Z</time></trkpt><trkpt lat="40.4957812" lon="17.3691409"><ele>46.0</ele><time>2026-04-06T16:14:20.398Z</time></trkpt><trkpt lat="40.495705" lon="17.3690321"><ele>46.0</ele><time>2026-04-06T16:14:21.398Z</time></trkpt><trkpt lat="40.4956273" lon="17.3689185"><ele>46.0</ele><time>2026-04-06T16:14:22.398Z</time></trkpt><trkpt lat="40.4955518" lon="17.3688071"><ele>46.0</ele><time>2026-04-06T16:14:23.398Z</time></trkpt><trkpt lat="40.4954692" lon="17.3686858"><ele>46.0</ele><time>2026-04-06T16:14:24.398Z</time></trkpt><trkpt lat="40.4953846" lon="17.3685539"><ele>46.0</ele><time>2026-04-06T16:14:25.398Z</time></trkpt><trkpt lat="40.4952888" lon="17.3684129"><ele>46.0</ele><time>2026-04-06T16:14:26.398Z</time></trkpt><trkpt lat="40.4951818" lon="17.3682545"><ele>46.0</ele><time>2026-04-06T16:14:27.398Z</time></trkpt><trkpt lat="40.4950754" lon="17.3680962"><ele>46.0</ele><time>2026-04-06T16:14:28.398Z</time></trkpt><trkpt lat="40.4949679" lon="17.3679374"><ele>46.0</ele><time>2026-04-06T16:14:29.398Z</time></trkpt><trkpt lat="40.4948573" lon="17.3677687"><ele>46.333333333333336</ele><time>2026-04-06T16:14:30.398Z</time></trkpt><trkpt lat="40.4947382" lon="17.3675975"><ele>46.666666666666664</ele><time>2026-04-06T16:14:31.398Z</time></trkpt><trkpt lat="40.4946168" lon="17.3674178"><ele>47.0</ele><time>2026-04-06T16:14:32.399Z</time></trkpt><trkpt lat="40.4944937" lon="17.3672362"><ele>46.33333333333333</ele><time>2026-04-06T16:14:33.399Z</time></trkpt><trkpt lat="40.4943683" lon="17.3670577"><ele>45.666666666666664</ele><time>2026-04-06T16:14:34.398Z</time></trkpt><trkpt lat="40.4942388" lon="17.3668838"><ele>45.0</ele><time>2026-04-06T16:14:35.398Z</time></trkpt><trkpt lat="40.4941093" lon="17.3667007"><ele>45.0</ele><time>2026-04-06T16:14:36.398Z</time></trkpt><trkpt lat="40.4939791" lon="17.3665182"><ele>45.0</ele><time>2026-04-06T16:14:37.398Z</time></trkpt><trkpt lat="40.4938557" lon="17.3663334"><ele>45.0</ele><time>2026-04-06T16:14:38.398Z</time></trkpt><trkpt lat="40.4937337" lon="17.366162"><ele>45.0</ele><time>2026-04-06T16:14:39.398Z</time></trkpt><trkpt lat="40.4936064" lon="17.3659874"><ele>45.0</ele><time>2026-04-06T16:14:40.398Z</time></trkpt><trkpt lat="40.4934812" lon="17.3658223"><ele>45.0</ele><time>2026-04-06T16:14:41.398Z</time></trkpt><trkpt lat="40.4933516" lon="17.3656646"><ele>44.666666666666664</ele><time>2026-04-06T16:14:42.398Z</time></trkpt><trkpt lat="40.4932126" lon="17.3655065"><ele>44.33333333333333</ele><time>2026-04-06T16:14:43.398Z</time></trkpt><trkpt lat="40.4930709" lon="17.3653554"><ele>44.0</ele><time>2026-04-06T16:14:44.398Z</time></trkpt><trkpt lat="40.4929227" lon="17.3652115"><ele>44.33333333333333</ele><time>2026-04-06T16:14:45.398Z</time></trkpt><trkpt lat="40.4927766" lon="17.3650665"><ele>44.666666666666664</ele><time>2026-04-06T16:14:46.398Z</time></trkpt><trkpt lat="40.4926312" lon="17.3649222"><ele>45.0</ele><time>2026-04-06T16:14:47.398Z</time></trkpt><trkpt lat="40.4924882" lon="17.3647751"><ele>44.333333333333336</ele><time>2026-04-06T16:14:48.398Z</time></trkpt><trkpt lat="40.4923424" lon="17.3646326"><ele>43.66666666666667</ele><time>2026-04-06T16:14:49.398Z</time></trkpt><trkpt lat="40.4922022" lon="17.364494"><ele>43.0</ele><time>2026-04-06T16:14:50.398Z</time></trkpt><trkpt lat="40.4920741" lon="17.3643711"><ele>43.0</ele><time>2026-04-06T16:14:51.398Z</time></trkpt><trkpt lat="40.4919704" lon="17.3642724"><ele>43.0</ele><time>2026-04-06T16:14:52.398Z</time></trkpt><trkpt lat="40.4918789" lon="17.3641832"><ele>43.0</ele><time>2026-04-06T16:14:53.398Z</time></trkpt><trkpt lat="40.4917888" lon="17.3640888"><ele>43.0</ele><time>2026-04-06T16:14:54.397Z</time></trkpt><trkpt lat="40.4917021" lon="17.3639743"><ele>43.0</ele><time>2026-04-06T16:14:55.397Z</time></trkpt><trkpt lat="40.491622" lon="17.3638238"><ele>43.0</ele><time>2026-04-06T16:14:56.397Z</time></trkpt><trkpt lat="40.4915381" lon="17.3636457"><ele>43.0</ele><time>2026-04-06T16:14:57.397Z</time></trkpt><trkpt lat="40.4914531" lon="17.363453"><ele>43.0</ele><time>2026-04-06T16:14:58.397Z</time></trkpt><trkpt lat="40.4913629" lon="17.3632644"><ele>43.0</ele><time>2026-04-06T16:14:59.398Z</time></trkpt><trkpt lat="40.4912734" lon="17.363067"><ele>43.0</ele><time>2026-04-06T16:15:00.397Z</time></trkpt><trkpt lat="40.4911808" lon="17.3628724"><ele>42.333333333333336</ele><time>2026-04-06T16:15:01.397Z</time></trkpt><trkpt lat="40.491085" lon="17.3626813"><ele>41.666666666666664</ele><time>2026-04-06T16:15:02.397Z</time></trkpt><trkpt lat="40.4909908" lon="17.362495"><ele>41.0</ele><time>2026-04-06T16:15:03.397Z</time></trkpt><trkpt lat="40.490898" lon="17.3623098"><ele>40.666666666666664</ele><time>2026-04-06T16:15:04.397Z</time></trkpt><trkpt lat="40.4907969" lon="17.3621298"><ele>40.333333333333336</ele><time>2026-04-06T16:15:05.397Z</time></trkpt><trkpt lat="40.4906861" lon="17.3619555"><ele>40.0</ele><time>2026-04-06T16:15:06.397Z</time></trkpt><trkpt lat="40.4905704" lon="17.3617802"><ele>40.0</ele><time>2026-04-06T16:15:07.397Z</time></trkpt><trkpt lat="40.4904599" lon="17.3616137"><ele>40.0</ele><time>2026-04-06T16:15:08.397Z</time></trkpt><trkpt lat="40.4903473" lon="17.3614453"><ele>40.0</ele><time>2026-04-06T16:15:09.397Z</time></trkpt><trkpt lat="40.4902381" lon="17.3612744"><ele>39.0</ele><time>2026-04-06T16:15:10.397Z</time></trkpt><trkpt lat="40.4901307" lon="17.3610983"><ele>38.0</ele><time>2026-04-06T16:15:11.397Z</time></trkpt><trkpt lat="40.4900311" lon="17.3609149"><ele>37.0</ele><time>2026-04-06T16:15:12.397Z</time></trkpt><trkpt lat="40.4899303" lon="17.3607339"><ele>37.0</ele><time>2026-04-06T16:15:13.397Z</time></trkpt><trkpt lat="40.4898329" lon="17.3605526"><ele>37.0</ele><time>2026-04-06T16:15:14.397Z</time></trkpt><trkpt lat="40.4897391" lon="17.3603675"><ele>37.0</ele><time>2026-04-06T16:15:15.397Z</time></trkpt><trkpt lat="40.4896412" lon="17.3601849"><ele>36.0</ele><time>2026-04-06T16:15:16.397Z</time></trkpt><trkpt lat="40.4895446" lon="17.3600012"><ele>35.0</ele><time>2026-04-06T16:15:17.397Z</time></trkpt><trkpt lat="40.4894485" lon="17.3598161"><ele>34.0</ele><time>2026-04-06T16:15:18.397Z</time></trkpt><trkpt lat="40.4893531" lon="17.3596299"><ele>34.0</ele><time>2026-04-06T16:15:19.397Z</time></trkpt><trkpt lat="40.4892545" lon="17.359438"><ele>34.0</ele><time>2026-04-06T16:15:20.397Z</time></trkpt><trkpt lat="40.4891582" lon="17.3592465"><ele>34.0</ele><time>2026-04-06T16:15:21.397Z</time></trkpt><trkpt lat="40.4890558" lon="17.3590524"><ele>33.66666666666667</ele><time>2026-04-06T16:15:22.397Z</time></trkpt><trkpt lat="40.488953" lon="17.3588614"><ele>33.333333333333336</ele><time>2026-04-06T16:15:23.397Z</time></trkpt><trkpt lat="40.4888478" lon="17.3586753"><ele>33.0</ele><time>2026-04-06T16:15:24.397Z</time></trkpt><trkpt lat="40.4887467" lon="17.3584852"><ele>32.666666666666664</ele><time>2026-04-06T16:15:25.397Z</time></trkpt><trkpt lat="40.4886539" lon="17.3583025"><ele>32.33333333333333</ele><time>2026-04-06T16:15:26.397Z</time></trkpt><trkpt lat="40.488564" lon="17.3581249"><ele>32.0</ele><time>2026-04-06T16:15:27.397Z</time></trkpt><trkpt lat="40.4884751" lon="17.3579537"><ele>32.0</ele><time>2026-04-06T16:15:28.397Z</time></trkpt><trkpt lat="40.4883898" lon="17.3577922"><ele>32.0</ele><time>2026-04-06T16:15:29.398Z</time></trkpt><trkpt lat="40.488297" lon="17.3576296"><ele>32.0</ele><time>2026-04-06T16:15:30.397Z</time></trkpt><trkpt lat="40.488207" lon="17.3574634"><ele>32.0</ele><time>2026-04-06T16:15:31.397Z</time></trkpt><trkpt lat="40.4881095" lon="17.3572954"><ele>32.0</ele><time>2026-04-06T16:15:32.397Z</time></trkpt><trkpt lat="40.4880091" lon="17.3571289"><ele>32.0</ele><time>2026-04-06T16:15:33.397Z</time></trkpt><trkpt lat="40.4879051" lon="17.3569559"><ele>32.0</ele><time>2026-04-06T16:15:34.397Z</time></trkpt><trkpt lat="40.4878018" lon="17.3567848"><ele>32.0</ele><time>2026-04-06T16:15:35.397Z</time></trkpt><trkpt lat="40.4877048" lon="17.3566194"><ele>32.0</ele><time>2026-04-06T16:15:36.397Z</time></trkpt><trkpt lat="40.4876089" lon="17.3564734"><ele>31.75</ele><time>2026-04-06T16:15:37.397Z</time></trkpt><trkpt lat="40.4875196" lon="17.3563337"><ele>31.5</ele><time>2026-04-06T16:15:38.397Z</time></trkpt><trkpt lat="40.4874299" lon="17.3561918"><ele>31.25</ele><time>2026-04-06T16:15:39.397Z</time></trkpt><trkpt lat="40.4873411" lon="17.3560559"><ele>31.0</ele><time>2026-04-06T16:15:40.397Z</time></trkpt><trkpt lat="40.4872569" lon="17.3559208"><ele>31.0</ele><time>2026-04-06T16:15:41.397Z</time></trkpt><trkpt lat="40.4871729" lon="17.3557748"><ele>31.0</ele><time>2026-04-06T16:15:42.397Z</time></trkpt><trkpt lat="40.4870847" lon="17.3556287"><ele>31.0</ele><time>2026-04-06T16:15:43.397Z</time></trkpt><trkpt lat="40.4869988" lon="17.3554845"><ele>31.0</ele><time>2026-04-06T16:15:44.397Z</time></trkpt><trkpt lat="40.4869138" lon="17.3553452"><ele>30.5</ele><time>2026-04-06T16:15:45.397Z</time></trkpt><trkpt lat="40.4868274" lon="17.3552028"><ele>30.0</ele><time>2026-04-06T16:15:46.397Z</time></trkpt><trkpt lat="40.486738" lon="17.3550585"><ele>29.5</ele><time>2026-04-06T16:15:47.397Z</time></trkpt><trkpt lat="40.4866541" lon="17.3549133"><ele>29.0</ele><time>2026-04-06T16:15:48.397Z</time></trkpt><trkpt lat="40.4865664" lon="17.354771"><ele>28.75</ele><time>2026-04-06T16:15:49.397Z</time></trkpt><trkpt lat="40.4864808" lon="17.3546313"><ele>28.5</ele><time>2026-04-06T16:15:50.397Z</time></trkpt><trkpt lat="40.4863998" lon="17.3544926"><ele>28.25</ele><time>2026-04-06T16:15:51.398Z</time></trkpt><trkpt lat="40.4863177" lon="17.3543509"><ele>28.0</ele><time>2026-04-06T16:15:52.397Z</time></trkpt><trkpt lat="40.4862425" lon="17.3542233"><ele>27.799999999999997</ele><time>2026-04-06T16:15:53.398Z</time></trkpt><trkpt lat="40.48617" lon="17.3541085"><ele>27.599999999999998</ele><time>2026-04-06T16:15:54.397Z</time></trkpt><trkpt lat="40.4860939" lon="17.3539945"><ele>27.400000000000002</ele><time>2026-04-06T16:15:55.397Z</time></trkpt><trkpt lat="40.4860204" lon="17.3538875"><ele>27.200000000000003</ele><time>2026-04-06T16:15:56.397Z</time></trkpt><trkpt lat="40.4859584" lon="17.3537956"><ele>27.0</ele><time>2026-04-06T16:15:57.398Z</time></trkpt><trkpt lat="40.4859181" lon="17.353721"><ele>26.8</ele><time>2026-04-06T16:15:58.397Z</time></trkpt><trkpt lat="40.4858878" lon="17.3536339"><ele>26.6</ele><time>2026-04-06T16:15:59.397Z</time></trkpt><trkpt lat="40.485875" lon="17.3535127"><ele>26.400000000000002</ele><time>2026-04-06T16:16:00.397Z</time></trkpt><trkpt lat="40.4858703" lon="17.3533655"><ele>26.200000000000003</ele><time>2026-04-06T16:16:01.397Z</time></trkpt><trkpt lat="40.485868" lon="17.3532118"><ele>26.0</ele><time>2026-04-06T16:16:02.397Z</time></trkpt><trkpt lat="40.4858709" lon="17.3530722"><ele>26.0</ele><time>2026-04-06T16:16:03.397Z</time></trkpt><trkpt lat="40.4858704" lon="17.3529281"><ele>26.0</ele><time>2026-04-06T16:16:04.398Z</time></trkpt><trkpt lat="40.4858622" lon="17.3527734"><ele>26.0</ele><time>2026-04-06T16:16:05.397Z</time></trkpt><trkpt lat="40.4858535" lon="17.3526065"><ele>26.0</ele><time>2026-04-06T16:16:06.398Z</time></trkpt><trkpt lat="40.4858488" lon="17.3524431"><ele>26.0</ele><time>2026-04-06T16:16:07.397Z</time></trkpt><trkpt lat="40.4858455" lon="17.3522786"><ele>26.0</ele><time>2026-04-06T16:16:08.397Z</time></trkpt><trkpt lat="40.4858432" lon="17.3521085"><ele>26.0</ele><time>2026-04-06T16:16:09.397Z</time></trkpt><trkpt lat="40.4858406" lon="17.3519403"><ele>26.0</ele><time>2026-04-06T16:16:10.397Z</time></trkpt><trkpt lat="40.485837" lon="17.3517852"><ele>26.0</ele><time>2026-04-06T16:16:11.397Z</time></trkpt><trkpt lat="40.4858332" lon="17.3516337"><ele>26.0</ele><time>2026-04-06T16:16:12.397Z</time></trkpt><trkpt lat="40.4858313" lon="17.3514807"><ele>26.0</ele><time>2026-04-06T16:16:13.397Z</time></trkpt><trkpt lat="40.4858288" lon="17.3513348"><ele>26.0</ele><time>2026-04-06T16:16:14.397Z</time></trkpt><trkpt lat="40.4858262" lon="17.3512048"><ele>26.0</ele><time>2026-04-06T16:16:15.397Z</time></trkpt><trkpt lat="40.4858211" lon="17.3510998"><ele>25.833333333333332</ele><time>2026-04-06T16:16:16.397Z</time></trkpt><trkpt lat="40.4858198" lon="17.3510167"><ele>25.666666666666664</ele><time>2026-04-06T16:16:17.398Z</time></trkpt><trkpt lat="40.4857797" lon="17.3508871"><ele>25.5</ele><time>2026-04-06T16:16:19.398Z</time></trkpt><trkpt lat="40.4857382" lon="17.3508239"><ele>25.333333333333336</ele><time>2026-04-06T16:16:20.397Z</time></trkpt><trkpt lat="40.4856831" lon="17.3507588"><ele>25.166666666666668</ele><time>2026-04-06T16:16:21.397Z</time></trkpt><trkpt lat="40.4856178" lon="17.3506971"><ele>25.0</ele><time>2026-04-06T16:16:22.397Z</time></trkpt><trkpt lat="40.4855636" lon="17.3506467"><ele>25.0</ele><time>2026-04-06T16:16:23.397Z</time></trkpt><trkpt lat="40.4855065" lon="17.3505899"><ele>25.0</ele><time>2026-04-06T16:16:24.397Z</time></trkpt><trkpt lat="40.485443" lon="17.3505217"><ele>25.0</ele><time>2026-04-06T16:16:25.398Z</time></trkpt><trkpt lat="40.4853642" lon="17.350449"><ele>25.0</ele><time>2026-04-06T16:16:26.397Z</time></trkpt><trkpt lat="40.4852782" lon="17.3503734"><ele>25.0</ele><time>2026-04-06T16:16:27.397Z</time></trkpt><trkpt lat="40.4851906" lon="17.350295"><ele>24.5</ele><time>2026-04-06T16:16:28.398Z</time></trkpt><trkpt lat="40.4851035" lon="17.3502176"><ele>24.0</ele><time>2026-04-06T16:16:29.397Z</time></trkpt><trkpt lat="40.4850118" lon="17.3501441"><ele>23.5</ele><time>2026-04-06T16:16:30.397Z</time></trkpt><trkpt lat="40.484912" lon="17.350062"><ele>23.0</ele><time>2026-04-06T16:16:31.397Z</time></trkpt><trkpt lat="40.4848042" lon="17.3499685"><ele>23.0</ele><time>2026-04-06T16:16:32.397Z</time></trkpt><trkpt lat="40.4846749" lon="17.349852"><ele>23.0</ele><time>2026-04-06T16:16:33.397Z</time></trkpt><trkpt lat="40.4845362" lon="17.3497233"><ele>23.0</ele><time>2026-04-06T16:16:34.397Z</time></trkpt><trkpt lat="40.4844101" lon="17.3496076"><ele>22.5</ele><time>2026-04-06T16:16:35.397Z</time></trkpt><trkpt lat="40.484293" lon="17.3495054"><ele>22.0</ele><time>2026-04-06T16:16:36.397Z</time></trkpt><trkpt lat="40.4841826" lon="17.3494026"><ele>21.5</ele><time>2026-04-06T16:16:37.397Z</time></trkpt><trkpt lat="40.4840691" lon="17.3492922"><ele>21.0</ele><time>2026-04-06T16:16:38.397Z</time></trkpt><trkpt lat="40.4839586" lon="17.3491832"><ele>21.0</ele><time>2026-04-06T16:16:39.397Z</time></trkpt><trkpt lat="40.48385" lon="17.3490839"><ele>21.0</ele><time>2026-04-06T16:16:40.397Z</time></trkpt><trkpt lat="40.4837414" lon="17.3489813"><ele>21.0</ele><time>2026-04-06T16:16:41.397Z</time></trkpt><trkpt lat="40.4836251" lon="17.3488809"><ele>21.0</ele><time>2026-04-06T16:16:42.397Z</time></trkpt><trkpt lat="40.4835046" lon="17.3487834"><ele>20.75</ele><time>2026-04-06T16:16:43.397Z</time></trkpt><trkpt lat="40.4833876" lon="17.3486732"><ele>20.5</ele><time>2026-04-06T16:16:44.397Z</time></trkpt><trkpt lat="40.4832678" lon="17.3485542"><ele>20.25</ele><time>2026-04-06T16:16:45.397Z</time></trkpt><trkpt lat="40.4831429" lon="17.3484419"><ele>20.0</ele><time>2026-04-06T16:16:46.397Z</time></trkpt><trkpt lat="40.4830206" lon="17.3483288"><ele>19.5</ele><time>2026-04-06T16:16:47.397Z</time></trkpt><trkpt lat="40.4828988" lon="17.348217"><ele>19.0</ele><time>2026-04-06T16:16:48.397Z</time></trkpt><trkpt lat="40.4827774" lon="17.3481054"><ele>18.5</ele><time>2026-04-06T16:16:49.397Z</time></trkpt><trkpt lat="40.4826557" lon="17.3479994"><ele>18.0</ele><time>2026-04-06T16:16:50.398Z</time></trkpt><trkpt lat="40.4825391" lon="17.3478932"><ele>18.0</ele><time>2026-04-06T16:16:51.397Z</time></trkpt><trkpt lat="40.4824293" lon="17.3477946"><ele>18.0</ele><time>2026-04-06T16:16:52.397Z</time></trkpt><trkpt lat="40.4823228" lon="17.3476938"><ele>18.0</ele><time>2026-04-06T16:16:53.397Z</time></trkpt><trkpt lat="40.4822165" lon="17.3475961"><ele>18.0</ele><time>2026-04-06T16:16:54.397Z</time></trkpt><trkpt lat="40.4821124" lon="17.3475021"><ele>17.25</ele><time>2026-04-06T16:16:55.397Z</time></trkpt><trkpt lat="40.4819997" lon="17.347404"><ele>16.5</ele><time>2026-04-06T16:16:56.397Z</time></trkpt><trkpt lat="40.4818809" lon="17.3473095"><ele>15.75</ele><time>2026-04-06T16:16:57.397Z</time></trkpt><trkpt lat="40.4817663" lon="17.3472129"><ele>15.0</ele><time>2026-04-06T16:16:58.397Z</time></trkpt><trkpt lat="40.4816579" lon="17.3471101"><ele>14.75</ele><time>2026-04-06T16:16:59.397Z</time></trkpt><trkpt lat="40.4815454" lon="17.3470058"><ele>14.5</ele><time>2026-04-06T16:17:00.397Z</time></trkpt><trkpt lat="40.4814355" lon="17.3468982"><ele>14.25</ele><time>2026-04-06T16:17:01.397Z</time></trkpt><trkpt lat="40.4813248" lon="17.3467877"><ele>14.0</ele><time>2026-04-06T16:17:02.397Z</time></trkpt><trkpt lat="40.4812159" lon="17.3466798"><ele>14.0</ele><time>2026-04-06T16:17:03.397Z</time></trkpt><trkpt lat="40.4811047" lon="17.3465715"><ele>14.0</ele><time>2026-04-06T16:17:04.397Z</time></trkpt><trkpt lat="40.4809928" lon="17.3464608"><ele>14.0</ele><time>2026-04-06T16:17:05.397Z</time></trkpt><trkpt lat="40.4808837" lon="17.3463583"><ele>14.0</ele><time>2026-04-06T16:17:06.397Z</time></trkpt><trkpt lat="40.4807799" lon="17.3462619"><ele>13.25</ele><time>2026-04-06T16:17:07.397Z</time></trkpt><trkpt lat="40.480669" lon="17.3461746"><ele>12.5</ele><time>2026-04-06T16:17:08.397Z</time></trkpt><trkpt lat="40.4805607" lon="17.3460924"><ele>11.75</ele><time>2026-04-06T16:17:09.397Z</time></trkpt><trkpt lat="40.4804582" lon="17.3460072"><ele>11.0</ele><time>2026-04-06T16:17:10.397Z</time></trkpt><trkpt lat="40.4803604" lon="17.3459218"><ele>11.0</ele><time>2026-04-06T16:17:11.397Z</time></trkpt><trkpt lat="40.4802693" lon="17.3458382"><ele>11.0</ele><time>2026-04-06T16:17:12.397Z</time></trkpt><trkpt lat="40.4801807" lon="17.3457519"><ele>11.0</ele><time>2026-04-06T16:17:13.397Z</time></trkpt><trkpt lat="40.4800905" lon="17.3456646"><ele>11.0</ele><time>2026-04-06T16:17:14.397Z</time></trkpt><trkpt lat="40.4800005" lon="17.3455834"><ele>11.0</ele><time>2026-04-06T16:17:15.397Z</time></trkpt><trkpt lat="40.4799035" lon="17.3455136"><ele>10.4</ele><time>2026-04-06T16:17:16.397Z</time></trkpt><trkpt lat="40.4798072" lon="17.3454479"><ele>9.8</ele><time>2026-04-06T16:17:17.397Z</time></trkpt><trkpt lat="40.4797084" lon="17.3453895"><ele>9.200000000000001</ele><time>2026-04-06T16:17:18.397Z</time></trkpt><trkpt lat="40.4796162" lon="17.3453328"><ele>8.600000000000001</ele><time>2026-04-06T16:17:19.397Z</time></trkpt><trkpt lat="40.4795271" lon="17.3452752"><ele>8.0</ele><time>2026-04-06T16:17:20.397Z</time></trkpt><trkpt lat="40.479444" lon="17.3452269"><ele>8.0</ele><time>2026-04-06T16:17:21.397Z</time></trkpt><trkpt lat="40.4793753" lon="17.3451839"><ele>8.0</ele><time>2026-04-06T16:17:22.397Z</time></trkpt><trkpt lat="40.4793103" lon="17.3450981"><ele>8.0</ele><time>2026-04-06T16:17:24.397Z</time></trkpt><trkpt lat="40.4793225" lon="17.34497"><ele>8.0</ele><time>2026-04-06T16:17:26.397Z</time></trkpt><trkpt lat="40.4793701" lon="17.3448778"><ele>8.0</ele><time>2026-04-06T16:17:27.397Z</time></trkpt><trkpt lat="40.4794281" lon="17.3447665"><ele>7.666666666666666</ele><time>2026-04-06T16:17:28.397Z</time></trkpt><trkpt lat="40.4794874" lon="17.3446623"><ele>7.333333333333333</ele><time>2026-04-06T16:17:29.397Z</time></trkpt><trkpt lat="40.479525" lon="17.344568"><ele>7.0</ele><time>2026-04-06T16:17:30.397Z</time></trkpt><trkpt lat="40.4795629" lon="17.3444853"><ele>6.666666666666666</ele><time>2026-04-06T16:17:31.397Z</time></trkpt><trkpt lat="40.4795998" lon="17.3444108"><ele>6.333333333333333</ele><time>2026-04-06T16:17:32.397Z</time></trkpt><trkpt lat="40.4796674" lon="17.3443007"><ele>6.0</ele><time>2026-04-06T16:17:34.397Z</time></trkpt><trkpt lat="40.4797047" lon="17.3442211"><ele>6.0</ele><time>2026-04-06T16:17:36.398Z</time></trkpt><trkpt lat="40.4796656" lon="17.3441336"><ele>6.0</ele><time>2026-04-06T16:17:42.397Z</time></trkpt><trkpt lat="40.479599" lon="17.3440741"><ele>6.0</ele><time>2026-04-06T16:17:44.397Z</time></trkpt><trkpt lat="40.4795061" lon="17.3439801"><ele>6.0</ele><time>2026-04-06T16:17:46.397Z</time></trkpt><trkpt lat="40.4794132" lon="17.3438832"><ele>6.0</ele><time>2026-04-06T16:17:48.397Z</time></trkpt><trkpt lat="40.4793614" lon="17.3438235"><ele>5.857142857142857</ele><time>2026-04-06T16:17:49.397Z</time></trkpt><trkpt lat="40.4793159" lon="17.3437661"><ele>5.714285714285714</ele><time>2026-04-06T16:17:50.397Z</time></trkpt><trkpt lat="40.4792667" lon="17.3437064"><ele>5.571428571428571</ele><time>2026-04-06T16:17:51.397Z</time></trkpt><trkpt lat="40.4792136" lon="17.3436397"><ele>5.428571428571429</ele><time>2026-04-06T16:17:52.397Z</time></trkpt><trkpt lat="40.4791591" lon="17.3435712"><ele>5.285714285714286</ele><time>2026-04-06T16:17:53.397Z</time></trkpt><trkpt lat="40.4791089" lon="17.3435027"><ele>5.142857142857142</ele><time>2026-04-06T16:17:54.397Z</time></trkpt><trkpt lat="40.479055" lon="17.3434357"><ele>5.0</ele><time>2026-04-06T16:17:55.397Z</time></trkpt><trkpt lat="40.4790052" lon="17.3433744"><ele>5.0</ele><time>2026-04-06T16:17:56.397Z</time></trkpt><trkpt lat="40.4789618" lon="17.3433093"><ele>5.0</ele><time>2026-04-06T16:17:57.397Z</time></trkpt><trkpt lat="40.4789161" lon="17.3432433"><ele>5.0</ele><time>2026-04-06T16:17:58.397Z</time></trkpt><trkpt lat="40.4788761" lon="17.3431775"><ele>5.0</ele><time>2026-04-06T16:17:59.397Z</time></trkpt><trkpt lat="40.4788373" lon="17.3431102"><ele>5.0</ele><time>2026-04-06T16:18:00.398Z</time></trkpt><trkpt lat="40.4787543" lon="17.3429935"><ele>5.0</ele><time>2026-04-06T16:18:02.397Z</time></trkpt><trkpt lat="40.4786785" lon="17.3428584"><ele>5.0</ele><time>2026-04-06T16:18:04.398Z</time></trkpt><trkpt lat="40.4786409" lon="17.3427816"><ele>5.0</ele><time>2026-04-06T16:18:05.397Z</time></trkpt><trkpt lat="40.4786042" lon="17.3427078"><ele>5.0</ele><time>2026-04-06T16:18:06.397Z</time></trkpt><trkpt lat="40.4785681" lon="17.3426323"><ele>5.0</ele><time>2026-04-06T16:18:07.397Z</time></trkpt><trkpt lat="40.4785287" lon="17.3425519"><ele>5.0</ele><time>2026-04-06T16:18:08.397Z</time></trkpt><trkpt lat="40.4784892" lon="17.3424716"><ele>5.0</ele><time>2026-04-06T16:18:09.397Z</time></trkpt><trkpt lat="40.4784556" lon="17.3423864"><ele>5.0</ele><time>2026-04-06T16:18:10.397Z</time></trkpt><trkpt lat="40.4784233" lon="17.3423016"><ele>5.0</ele><time>2026-04-06T16:18:11.397Z</time></trkpt><trkpt lat="40.478393" lon="17.3422187"><ele>5.0</ele><time>2026-04-06T16:18:12.397Z</time></trkpt><trkpt lat="40.4783651" lon="17.3421348"><ele>5.0</ele><time>2026-04-06T16:18:13.397Z</time></trkpt><trkpt lat="40.4783365" lon="17.3420553"><ele>5.0</ele><time>2026-04-06T16:18:14.397Z</time></trkpt><trkpt lat="40.478309" lon="17.3419741"><ele>5.0</ele><time>2026-04-06T16:18:15.397Z</time></trkpt><trkpt lat="40.4782795" lon="17.3418947"><ele>5.0</ele><time>2026-04-06T16:18:16.397Z</time></trkpt><trkpt lat="40.47825" lon="17.3418112"><ele>5.0</ele><time>2026-04-06T16:18:17.398Z</time></trkpt><trkpt lat="40.4782231" lon="17.3417275"><ele>5.0</ele><time>2026-04-06T16:18:18.397Z</time></trkpt><trkpt lat="40.4781954" lon="17.3416519"><ele>5.0</ele><time>2026-04-06T16:18:19.397Z</time></trkpt><trkpt lat="40.4781383" lon="17.3414874"><ele>5.0</ele><time>2026-04-06T16:21:28.397Z</time></trkpt><trkpt lat="40.4781029" lon="17.3414033"><ele>5.0</ele><time>2026-04-06T16:21:30.398Z</time></trkpt><trkpt lat="40.4780748" lon="17.3413128"><ele>5.0</ele><time>2026-04-06T16:21:32.397Z</time></trkpt><trkpt lat="40.4780276" lon="17.3411752"><ele>4.8</ele><time>2026-04-06T16:21:34.397Z</time></trkpt><trkpt lat="40.4779989" lon="17.3410872"><ele>4.6</ele><time>2026-04-06T16:21:35.397Z</time></trkpt><trkpt lat="40.4779697" lon="17.3410026"><ele>4.4</ele><time>2026-04-06T16:21:36.397Z</time></trkpt><trkpt lat="40.4779424" lon="17.3409259"><ele>4.2</ele><time>2026-04-06T16:21:37.397Z</time></trkpt><trkpt lat="40.4778887" lon="17.3407803"><ele>4.0</ele><time>2026-04-06T16:21:39.397Z</time></trkpt><trkpt lat="40.4778337" lon="17.3406379"><ele>3.833333333333333</ele><time>2026-04-06T16:21:41.397Z</time></trkpt><trkpt lat="40.4777798" lon="17.3404982"><ele>3.6666666666666665</ele><time>2026-04-06T16:21:43.397Z</time></trkpt><trkpt lat="40.4777588" lon="17.3404162"><ele>3.5</ele><time>2026-04-06T16:21:44.397Z</time></trkpt><trkpt lat="40.4777098" lon="17.3402688"><ele>3.333333333333333</ele><time>2026-04-06T16:21:46.397Z</time></trkpt><trkpt lat="40.4776784" lon="17.3401933"><ele>3.1666666666666665</ele><time>2026-04-06T16:21:47.397Z</time></trkpt><trkpt lat="40.477647" lon="17.3401082"><ele>3.0</ele><time>2026-04-06T16:21:48.397Z</time></trkpt><trkpt lat="40.4776151" lon="17.3400196"><ele>2.9999999999999996</ele><time>2026-04-06T16:21:49.398Z</time></trkpt><trkpt lat="40.4775864" lon="17.3399345"><ele>3.0</ele><time>2026-04-06T16:21:50.397Z</time></trkpt><trkpt lat="40.4775572" lon="17.3398526"><ele>3.0</ele><time>2026-04-06T16:21:51.397Z</time></trkpt><trkpt lat="40.4775287" lon="17.339771"><ele>3.0</ele><time>2026-04-06T16:21:52.397Z</time></trkpt><trkpt lat="40.4774979" lon="17.3396828"><ele>3.0</ele><time>2026-04-06T16:21:53.397Z</time></trkpt><trkpt lat="40.4774662" lon="17.3395904"><ele>2.9999999999999996</ele><time>2026-04-06T16:21:54.397Z</time></trkpt><trkpt lat="40.4774361" lon="17.3395014"><ele>3.0</ele><time>2026-04-06T16:21:55.398Z</time></trkpt><trkpt lat="40.477408" lon="17.339418"><ele>2.9999999999999996</ele><time>2026-04-06T16:21:56.397Z</time></trkpt><trkpt lat="40.4773801" lon="17.3393342"><ele>3.0</ele><time>2026-04-06T16:21:57.397Z</time></trkpt><trkpt lat="40.4773528" lon="17.3392531"><ele>3.0</ele><time>2026-04-06T16:21:58.397Z</time></trkpt><trkpt lat="40.4773265" lon="17.3391717"><ele>3.0</ele><time>2026-04-06T16:21:59.397Z</time></trkpt><trkpt lat="40.4773" lon="17.3390915"><ele>3.0</ele><time>2026-04-06T16:22:00.397Z</time></trkpt><trkpt lat="40.4772686" lon="17.3390046"><ele>2.9999999999999996</ele><time>2026-04-06T16:22:01.397Z</time></trkpt><trkpt lat="40.4772364" lon="17.3389204"><ele>3.0</ele><time>2026-04-06T16:22:02.397Z</time></trkpt><trkpt lat="40.4771858" lon="17.3387761"><ele>3.2</ele><time>2026-04-06T16:22:04.397Z</time></trkpt><trkpt lat="40.4771483" lon="17.3386304"><ele>3.4</ele><time>2026-04-06T16:22:06.397Z</time></trkpt><trkpt lat="40.4771237" lon="17.3385006"><ele>3.6000000000000005</ele><time>2026-04-06T16:22:08.397Z</time></trkpt><trkpt lat="40.4771119" lon="17.3384106"><ele>3.8000000000000003</ele><time>2026-04-06T16:22:10.398Z</time></trkpt><trkpt lat="40.4770592" lon="17.3382813"><ele>4.0</ele><time>2026-04-06T16:23:09.398Z</time></trkpt><trkpt lat="40.4770188" lon="17.3381808"><ele>4.0</ele><time>2026-04-06T16:23:10.397Z</time></trkpt><trkpt lat="40.4769731" lon="17.3380771"><ele>4.0</ele><time>2026-04-06T16:23:11.397Z</time></trkpt><trkpt lat="40.4769356" lon="17.3379748"><ele>4.0</ele><time>2026-04-06T16:23:12.397Z</time></trkpt><trkpt lat="40.476907" lon="17.3378541"><ele>4.0</ele><time>2026-04-06T16:23:13.397Z</time></trkpt><trkpt lat="40.4768805" lon="17.3377222"><ele>4.0</ele><time>2026-04-06T16:23:14.397Z</time></trkpt><trkpt lat="40.4768598" lon="17.3375879"><ele>4.0</ele><time>2026-04-06T16:23:15.397Z</time></trkpt><trkpt lat="40.4768375" lon="17.3374624"><ele>4.0</ele><time>2026-04-06T16:23:16.397Z</time></trkpt><trkpt lat="40.4768183" lon="17.3373474"><ele>4.0</ele><time>2026-04-06T16:23:17.397Z</time></trkpt><trkpt lat="40.4768114" lon="17.3372277"><ele>4.0</ele><time>2026-04-06T16:23:18.397Z</time></trkpt><trkpt lat="40.4768119" lon="17.3370957"><ele>4.0</ele><time>2026-04-06T16:23:19.397Z</time></trkpt><trkpt lat="40.4768122" lon="17.336959"><ele>3.833333333333333</ele><time>2026-04-06T16:23:20.398Z</time></trkpt><trkpt lat="40.4768111" lon="17.336833"><ele>3.6666666666666665</ele><time>2026-04-06T16:23:21.397Z</time></trkpt><trkpt lat="40.4768193" lon="17.3367249"><ele>3.5</ele><time>2026-04-06T16:23:22.397Z</time></trkpt><trkpt lat="40.4768254" lon="17.3366271"><ele>3.333333333333333</ele><time>2026-04-06T16:23:23.397Z</time></trkpt><trkpt lat="40.4768296" lon="17.3365359"><ele>3.1666666666666665</ele><time>2026-04-06T16:23:24.397Z</time></trkpt><trkpt lat="40.4768295" lon="17.3364522"><ele>3.0</ele><time>2026-04-06T16:23:25.397Z</time></trkpt><trkpt lat="40.4768286" lon="17.3363005"><ele>3.0</ele><time>2026-04-06T16:23:27.397Z</time></trkpt><trkpt lat="40.4768258" lon="17.3361623"><ele>3.0</ele><time>2026-04-06T16:23:29.397Z</time></trkpt><trkpt lat="40.4768271" lon="17.3360771"><ele>3.0</ele><time>2026-04-06T16:23:30.398Z</time></trkpt><trkpt lat="40.4768258" lon="17.3359247"><ele>3.0</ele><time>2026-04-06T16:23:32.397Z</time></trkpt><trkpt lat="40.4768231" lon="17.3358274"><ele>3.0</ele><time>2026-04-06T16:23:33.397Z</time></trkpt><trkpt lat="40.4768265" lon="17.335718"><ele>3.0</ele><time>2026-04-06T16:23:34.397Z</time></trkpt><trkpt lat="40.4768322" lon="17.3355872"><ele>3.0</ele><time>2026-04-06T16:23:35.397Z</time></trkpt><trkpt lat="40.4768325" lon="17.3354601"><ele>3.0</ele><time>2026-04-06T16:23:36.397Z</time></trkpt><trkpt lat="40.4768335" lon="17.3353218"><ele>3.0</ele><time>2026-04-06T16:23:37.397Z</time></trkpt><trkpt lat="40.4768351" lon="17.3351864"><ele>3.0</ele><time>2026-04-06T16:23:38.397Z</time></trkpt><trkpt lat="40.4768339" lon="17.3350535"><ele>3.0</ele><time>2026-04-06T16:23:39.397Z</time></trkpt><trkpt lat="40.4768322" lon="17.3349192"><ele>3.0</ele><time>2026-04-06T16:23:40.397Z</time></trkpt><trkpt lat="40.4768352" lon="17.3347754"><ele>3.0</ele><time>2026-04-06T16:23:41.397Z</time></trkpt><trkpt lat="40.4768409" lon="17.3346341"><ele>3.0</ele><time>2026-04-06T16:23:42.397Z</time></trkpt><trkpt lat="40.4768418" lon="17.3344831"><ele>3.0</ele><time>2026-04-06T16:23:43.398Z</time></trkpt><trkpt lat="40.4768461" lon="17.3343287"><ele>3.0</ele><time>2026-04-06T16:23:44.397Z</time></trkpt><trkpt lat="40.4768548" lon="17.3341821"><ele>2.8</ele><time>2026-04-06T16:23:45.397Z</time></trkpt><trkpt lat="40.4768594" lon="17.334037"><ele>2.5999999999999996</ele><time>2026-04-06T16:23:46.397Z</time></trkpt><trkpt lat="40.4768629" lon="17.3338897"><ele>2.4000000000000004</ele><time>2026-04-06T16:23:47.397Z</time></trkpt><trkpt lat="40.4768641" lon="17.3337495"><ele>2.2</ele><time>2026-04-06T16:23:48.398Z</time></trkpt><trkpt lat="40.4768674" lon="17.3336072"><ele>2.0</ele><time>2026-04-06T16:23:49.397Z</time></trkpt><trkpt lat="40.4768666" lon="17.3334718"><ele>1.9999999999999998</ele><time>2026-04-06T16:23:50.397Z</time></trkpt><trkpt lat="40.4768668" lon="17.3333435"><ele>2.0</ele><time>2026-04-06T16:23:51.397Z</time></trkpt><trkpt lat="40.4768666" lon="17.3332272"><ele>2.0</ele><time>2026-04-06T16:23:52.397Z</time></trkpt><trkpt lat="40.4768725" lon="17.3331271"><ele>2.0</ele><time>2026-04-06T16:23:53.397Z</time></trkpt><trkpt lat="40.4768824" lon="17.3330408"><ele>1.9999999999999998</ele><time>2026-04-06T16:23:54.397Z</time></trkpt><trkpt lat="40.4769054" lon="17.3329472"><ele>2.0</ele><time>2026-04-06T16:23:55.397Z</time></trkpt><trkpt lat="40.4769403" lon="17.3328321"><ele>2.0</ele><time>2026-04-06T16:23:56.397Z</time></trkpt><trkpt lat="40.4769842" lon="17.3327193"><ele>2.0</ele><time>2026-04-06T16:23:57.397Z</time></trkpt><trkpt lat="40.4770303" lon="17.3326148"><ele>2.0</ele><time>2026-04-06T16:23:58.397Z</time></trkpt><trkpt lat="40.4770762" lon="17.3325137"><ele>2.0</ele><time>2026-04-06T16:23:59.397Z</time></trkpt><trkpt lat="40.477116" lon="17.3324098"><ele>2.0</ele><time>2026-04-06T16:24:00.397Z</time></trkpt><trkpt lat="40.4771633" lon="17.3322939"><ele>2.0</ele><time>2026-04-06T16:24:01.397Z</time></trkpt><trkpt lat="40.4772092" lon="17.3321669"><ele>2.0</ele><time>2026-04-06T16:24:02.397Z</time></trkpt><trkpt lat="40.4772531" lon="17.332042"><ele>2.0</ele><time>2026-04-06T16:24:03.397Z</time></trkpt><trkpt lat="40.4772904" lon="17.3319252"><ele>2.0</ele><time>2026-04-06T16:24:04.397Z</time></trkpt><trkpt lat="40.4773327" lon="17.3318203"><ele>2.0</ele><time>2026-04-06T16:24:05.397Z</time></trkpt><trkpt lat="40.477373" lon="17.3317203"><ele>2.0</ele><time>2026-04-06T16:24:06.397Z</time></trkpt><trkpt lat="40.4774277" lon="17.3316042"><ele>2.0</ele><time>2026-04-06T16:24:07.397Z</time></trkpt><trkpt lat="40.4774919" lon="17.3314715"><ele>2.0</ele><time>2026-04-06T16:24:08.397Z</time></trkpt><trkpt lat="40.4775489" lon="17.3313451"><ele>2.0</ele><time>2026-04-06T16:24:09.397Z</time></trkpt><trkpt lat="40.4776022" lon="17.3312319"><ele>2.0</ele><time>2026-04-06T16:24:10.397Z</time></trkpt><trkpt lat="40.4776491" lon="17.3311337"><ele>1.9999999999999998</ele><time>2026-04-06T16:24:11.397Z</time></trkpt><trkpt lat="40.477692" lon="17.3310382"><ele>2.0</ele><time>2026-04-06T16:24:12.397Z</time></trkpt><trkpt lat="40.477735" lon="17.330949"><ele>2.0</ele><time>2026-04-06T16:24:13.397Z</time></trkpt><trkpt lat="40.4777765" lon="17.330864"><ele>2.0</ele><time>2026-04-06T16:24:14.397Z</time></trkpt><trkpt lat="40.477821" lon="17.3307857"><ele>1.9999999999999998</ele><time>2026-04-06T16:24:15.397Z</time></trkpt><trkpt lat="40.477861" lon="17.3306944"><ele>2.0</ele><time>2026-04-06T16:24:16.397Z</time></trkpt><trkpt lat="40.4779104" lon="17.3306007"><ele>1.6</ele><time>2026-04-06T16:24:17.397Z</time></trkpt><trkpt lat="40.477963" lon="17.3305077"><ele>1.2000000000000002</ele><time>2026-04-06T16:24:18.397Z</time></trkpt><trkpt lat="40.478027" lon="17.3304175"><ele>0.8</ele><time>2026-04-06T16:24:19.397Z</time></trkpt><trkpt lat="40.4780925" lon="17.3303227"><ele>0.4</ele><time>2026-04-06T16:24:20.397Z</time></trkpt><trkpt lat="40.4781605" lon="17.3302292"><ele>0.0</ele><time>2026-04-06T16:24:21.397Z</time></trkpt><trkpt lat="40.4782293" lon="17.3301374"><ele>0.0</ele><time>2026-04-06T16:24:22.397Z</time></trkpt><trkpt lat="40.4782962" lon="17.3300518"><ele>0.0</ele><time>2026-04-06T16:24:23.397Z</time></trkpt><trkpt lat="40.4783511" lon="17.3299767"><ele>0.0</ele><time>2026-04-06T16:24:24.397Z</time></trkpt><trkpt lat="40.4784037" lon="17.3299125"><ele>0.0</ele><time>2026-04-06T16:24:25.397Z</time></trkpt><trkpt lat="40.4784494" lon="17.3298463"><ele>0.0</ele><time>2026-04-06T16:24:26.397Z</time></trkpt><trkpt lat="40.4784965" lon="17.3297743"><ele>0.0</ele><time>2026-04-06T16:24:27.398Z</time></trkpt><trkpt lat="40.4785467" lon="17.3297009"><ele>0.2</ele><time>2026-04-06T16:24:28.397Z</time></trkpt><trkpt lat="40.4785987" lon="17.3296186"><ele>0.4</ele><time>2026-04-06T16:24:29.397Z</time></trkpt><trkpt lat="40.478665" lon="17.329528"><ele>0.6000000000000001</ele><time>2026-04-06T16:24:30.397Z</time></trkpt><trkpt lat="40.4787325" lon="17.3294356"><ele>0.8</ele><time>2026-04-06T16:24:31.397Z</time></trkpt><trkpt lat="40.478798" lon="17.3293443"><ele>1.0</ele><time>2026-04-06T16:24:32.397Z</time></trkpt><trkpt lat="40.4788568" lon="17.3292634"><ele>1.1666666666666665</ele><time>2026-04-06T16:24:33.397Z</time></trkpt><trkpt lat="40.4789115" lon="17.3291783"><ele>1.3333333333333333</ele><time>2026-04-06T16:24:34.397Z</time></trkpt><trkpt lat="40.478974" lon="17.3290859"><ele>1.5</ele><time>2026-04-06T16:24:35.397Z</time></trkpt><trkpt lat="40.4790361" lon="17.3290004"><ele>1.6666666666666665</ele><time>2026-04-06T16:24:36.397Z</time></trkpt><trkpt lat="40.4790929" lon="17.3289221"><ele>1.8333333333333333</ele><time>2026-04-06T16:24:37.397Z</time></trkpt><trkpt lat="40.4791405" lon="17.3288579"><ele>2.0</ele><time>2026-04-06T16:24:38.397Z</time></trkpt><trkpt lat="40.4791885" lon="17.3287857"><ele>1.6666666666666665</ele><time>2026-04-06T16:24:39.397Z</time></trkpt><trkpt lat="40.4792429" lon="17.3287102"><ele>1.3333333333333333</ele><time>2026-04-06T16:24:40.397Z</time></trkpt><trkpt lat="40.4792944" lon="17.328635"><ele>1.0</ele><time>2026-04-06T16:24:41.398Z</time></trkpt><trkpt lat="40.4793423" lon="17.3285594"><ele>0.6666666666666666</ele><time>2026-04-06T16:24:42.397Z</time></trkpt><trkpt lat="40.4793904" lon="17.3284844"><ele>0.3333333333333333</ele><time>2026-04-06T16:24:43.398Z</time></trkpt><trkpt lat="40.479443" lon="17.328419"><ele>0.0</ele><time>2026-04-06T16:24:44.397Z</time></trkpt><trkpt lat="40.4794932" lon="17.3283471"><ele>0.0</ele><time>2026-04-06T16:24:45.397Z</time></trkpt><trkpt lat="40.479541" lon="17.3282725"><ele>0.0</ele><time>2026-04-06T16:24:46.397Z</time></trkpt><trkpt lat="40.479587" lon="17.3282093"><ele>0.0</ele><time>2026-04-06T16:24:47.397Z</time></trkpt><trkpt lat="40.479648" lon="17.3281171"><ele>0.0</ele><time>2026-04-06T16:24:49.398Z</time></trkpt><trkpt lat="40.4796884" lon="17.3280285"><ele>0.0</ele><time>2026-04-06T16:24:52.397Z</time></trkpt><trkpt lat="40.4796595" lon="17.327939"><ele>0.0</ele><time>2026-04-06T16:24:55.397Z</time></trkpt><trkpt lat="40.4795521" lon="17.3278617"><ele>0.0</ele><time>2026-04-06T16:24:57.397Z</time></trkpt><trkpt lat="40.4794708" lon="17.327817"><ele>0.0</ele><time>2026-04-06T16:24:58.397Z</time></trkpt><trkpt lat="40.4793689" lon="17.3277591"><ele>0.0</ele><time>2026-04-06T16:24:59.397Z</time></trkpt><trkpt lat="40.4792407" lon="17.3276868"><ele>0.0</ele><time>2026-04-06T16:25:00.397Z</time></trkpt><trkpt lat="40.4791151" lon="17.3276069"><ele>0.0</ele><time>2026-04-06T16:25:01.397Z</time></trkpt><trkpt lat="40.478985" lon="17.3275286"><ele>0.0</ele><time>2026-04-06T16:25:02.397Z</time></trkpt><trkpt lat="40.4788463" lon="17.3274505"><ele>0.0</ele><time>2026-04-06T16:25:03.397Z</time></trkpt><trkpt lat="40.4787096" lon="17.3273736"><ele>0.0</ele><time>2026-04-06T16:25:04.397Z</time></trkpt><trkpt lat="40.4785742" lon="17.3272847"><ele>0.0</ele><time>2026-04-06T16:25:05.397Z</time></trkpt><trkpt lat="40.478425" lon="17.3271994"><ele>0.0</ele><time>2026-04-06T16:25:06.397Z</time></trkpt><trkpt lat="40.4782597" lon="17.3271029"><ele>0.0</ele><time>2026-04-06T16:25:07.397Z</time></trkpt><trkpt lat="40.4780765" lon="17.3269937"><ele>0.3333333333333333</ele><time>2026-04-06T16:25:08.397Z</time></trkpt><trkpt lat="40.4779078" lon="17.3268977"><ele>0.6666666666666666</ele><time>2026-04-06T16:25:09.397Z</time></trkpt><trkpt lat="40.4777471" lon="17.3268052"><ele>1.0</ele><time>2026-04-06T16:25:10.397Z</time></trkpt><trkpt lat="40.4775875" lon="17.326709"><ele>1.0</ele><time>2026-04-06T16:25:11.397Z</time></trkpt><trkpt lat="40.4774328" lon="17.3266187"><ele>1.0</ele><time>2026-04-06T16:25:12.397Z</time></trkpt><trkpt lat="40.4772828" lon="17.3265279"><ele>1.0</ele><time>2026-04-06T16:25:13.398Z</time></trkpt><trkpt lat="40.4771303" lon="17.3264376"><ele>1.0</ele><time>2026-04-06T16:25:14.397Z</time></trkpt><trkpt lat="40.4769713" lon="17.3263416"><ele>1.0</ele><time>2026-04-06T16:25:15.398Z</time></trkpt><trkpt lat="40.4768062" lon="17.3262464"><ele>1.0</ele><time>2026-04-06T16:25:16.398Z</time></trkpt><trkpt lat="40.4766424" lon="17.3261447"><ele>1.0</ele><time>2026-04-06T16:25:17.397Z</time></trkpt><trkpt lat="40.4764838" lon="17.3260507"><ele>1.0</ele><time>2026-04-06T16:25:18.397Z</time></trkpt><trkpt lat="40.4763278" lon="17.3259585"><ele>1.0</ele><time>2026-04-06T16:25:19.397Z</time></trkpt><trkpt lat="40.4761783" lon="17.3258707"><ele>1.3333333333333333</ele><time>2026-04-06T16:25:20.397Z</time></trkpt><trkpt lat="40.4760344" lon="17.3257862"><ele>1.6666666666666665</ele><time>2026-04-06T16:25:21.397Z</time></trkpt><trkpt lat="40.4758904" lon="17.3257023"><ele>2.0</ele><time>2026-04-06T16:25:22.397Z</time></trkpt><trkpt lat="40.4757336" lon="17.3256068"><ele>1.6666666666666665</ele><time>2026-04-06T16:25:23.397Z</time></trkpt><trkpt lat="40.4755682" lon="17.3255102"><ele>1.3333333333333333</ele><time>2026-04-06T16:25:24.397Z</time></trkpt><trkpt lat="40.4753957" lon="17.3254164"><ele>1.0</ele><time>2026-04-06T16:25:25.397Z</time></trkpt><trkpt lat="40.4752294" lon="17.3253157"><ele>0.6666666666666666</ele><time>2026-04-06T16:25:26.397Z</time></trkpt><trkpt lat="40.4750685" lon="17.3252179"><ele>0.3333333333333333</ele><time>2026-04-06T16:25:27.398Z</time></trkpt><trkpt lat="40.4749113" lon="17.3251276"><ele>0.0</ele><time>2026-04-06T16:25:28.397Z</time></trkpt><trkpt lat="40.4747524" lon="17.325036"><ele>2.6666666666666665</ele><time>2026-04-06T16:25:29.397Z</time></trkpt><trkpt lat="40.4745871" lon="17.3249386"><ele>5.333333333333333</ele><time>2026-04-06T16:25:30.397Z</time></trkpt><trkpt lat="40.4744164" lon="17.3248443"><ele>8.0</ele><time>2026-04-06T16:25:31.397Z</time></trkpt><trkpt lat="40.4742575" lon="17.3247479"><ele>6.0</ele><time>2026-04-06T16:25:32.397Z</time></trkpt><trkpt lat="40.4741053" lon="17.3246621"><ele>4.0</ele><time>2026-04-06T16:25:33.397Z</time></trkpt><trkpt lat="40.473956" lon="17.3245742"><ele>2.0</ele><time>2026-04-06T16:25:34.397Z</time></trkpt><trkpt lat="40.473821" lon="17.3244894"><ele>3.5</ele><time>2026-04-06T16:25:35.397Z</time></trkpt><trkpt lat="40.4736984" lon="17.3244151"><ele>5.0</ele><time>2026-04-06T16:25:36.398Z</time></trkpt><trkpt lat="40.473579" lon="17.3243441"><ele>6.5</ele><time>2026-04-06T16:25:37.397Z</time></trkpt><trkpt lat="40.4734669" lon="17.3242755"><ele>8.0</ele><time>2026-04-06T16:25:38.397Z</time></trkpt><trkpt lat="40.473362" lon="17.324219"><ele>8.0</ele><time>2026-04-06T16:25:39.397Z</time></trkpt><trkpt lat="40.4732584" lon="17.3241725"><ele>8.0</ele><time>2026-04-06T16:25:40.397Z</time></trkpt><trkpt lat="40.4731556" lon="17.3241284"><ele>8.0</ele><time>2026-04-06T16:25:41.397Z</time></trkpt><trkpt lat="40.4730423" lon="17.3241013"><ele>8.0</ele><time>2026-04-06T16:25:42.397Z</time></trkpt><trkpt lat="40.4729329" lon="17.3240956"><ele>8.0</ele><time>2026-04-06T16:25:43.397Z</time></trkpt><trkpt lat="40.4728314" lon="17.3241049"><ele>8.0</ele><time>2026-04-06T16:25:44.397Z</time></trkpt><trkpt lat="40.4727414" lon="17.324129"><ele>8.0</ele><time>2026-04-06T16:25:45.397Z</time></trkpt><trkpt lat="40.4726497" lon="17.3241714"><ele>8.0</ele><time>2026-04-06T16:25:46.398Z</time></trkpt><trkpt lat="40.4725574" lon="17.3242322"><ele>8.0</ele><time>2026-04-06T16:25:47.398Z</time></trkpt><trkpt lat="40.472466" lon="17.3243245"><ele>8.0</ele><time>2026-04-06T16:25:48.397Z</time></trkpt><trkpt lat="40.4723659" lon="17.3244378"><ele>8.0</ele><time>2026-04-06T16:25:49.397Z</time></trkpt><trkpt lat="40.4722753" lon="17.3245509"><ele>8.0</ele><time>2026-04-06T16:25:50.397Z</time></trkpt><trkpt lat="40.4721947" lon="17.3246581"><ele>8.0</ele><time>2026-04-06T16:25:51.397Z</time></trkpt><trkpt lat="40.4721096" lon="17.3247733"><ele>8.0</ele><time>2026-04-06T16:25:52.398Z</time></trkpt><trkpt lat="40.4720212" lon="17.3249035"><ele>9.5</ele><time>2026-04-06T16:25:53.397Z</time></trkpt><trkpt lat="40.4719286" lon="17.3250376"><ele>11.0</ele><time>2026-04-06T16:25:54.397Z</time></trkpt><trkpt lat="40.471843" lon="17.3251625"><ele>12.5</ele><time>2026-04-06T16:25:55.397Z</time></trkpt><trkpt lat="40.4717656" lon="17.3252712"><ele>14.0</ele><time>2026-04-06T16:25:56.397Z</time></trkpt><trkpt lat="40.4716936" lon="17.3253706"><ele>14.000000000000002</ele><time>2026-04-06T16:25:57.397Z</time></trkpt><trkpt lat="40.4716247" lon="17.3254664"><ele>14.0</ele><time>2026-04-06T16:25:58.397Z</time></trkpt><trkpt lat="40.4715667" lon="17.3255545"><ele>14.0</ele><time>2026-04-06T16:25:59.398Z</time></trkpt><trkpt lat="40.4715151" lon="17.3256358"><ele>14.0</ele><time>2026-04-06T16:26:00.397Z</time></trkpt><trkpt lat="40.4714734" lon="17.3256995"><ele>14.000000000000002</ele><time>2026-04-06T16:26:01.397Z</time></trkpt><trkpt lat="40.4713936" lon="17.3258041"><ele>14.0</ele><time>2026-04-06T16:26:03.397Z</time></trkpt><trkpt lat="40.471343" lon="17.3258817"><ele>14.000000000000002</ele><time>2026-04-06T16:26:04.397Z</time></trkpt><trkpt lat="40.471282" lon="17.3259717"><ele>14.0</ele><time>2026-04-06T16:26:05.397Z</time></trkpt><trkpt lat="40.4712246" lon="17.3260588"><ele>14.0</ele><time>2026-04-06T16:26:06.397Z</time></trkpt><trkpt lat="40.4711731" lon="17.326137"><ele>14.0</ele><time>2026-04-06T16:26:07.398Z</time></trkpt><trkpt lat="40.471125" lon="17.3262139"><ele>14.000000000000002</ele><time>2026-04-06T16:26:08.397Z</time></trkpt><trkpt lat="40.4710808" lon="17.3262803"><ele>14.0</ele><time>2026-04-06T16:26:09.398Z</time></trkpt><trkpt lat="40.4710067" lon="17.3263624"><ele>14.000000000000002</ele><time>2026-04-06T16:26:11.397Z</time></trkpt><trkpt lat="40.4709421" lon="17.3263408"><ele>14.0</ele><time>2026-04-06T16:26:13.397Z</time></trkpt><trkpt lat="40.4709176" lon="17.3262457"><ele>14.0</ele><time>2026-04-06T16:26:15.397Z</time></trkpt><trkpt lat="40.4709581" lon="17.3260818"><ele>14.0</ele><time>2026-04-06T16:26:17.398Z</time></trkpt><trkpt lat="40.4709874" lon="17.325993"><ele>14.000000000000002</ele><time>2026-04-06T16:26:18.397Z</time></trkpt><trkpt lat="40.4710169" lon="17.3259031"><ele>14.0</ele><time>2026-04-06T16:26:19.397Z</time></trkpt><trkpt lat="40.4710787" lon="17.3257713"><ele>14.0</ele><time>2026-04-06T16:26:21.397Z</time></trkpt><trkpt lat="40.47107" lon="17.3256641"><ele>13.999999999999998</ele><time>2026-04-06T16:26:23.397Z</time></trkpt><trkpt lat="40.471011" lon="17.3256051"><ele>13.999999999999998</ele><time>2026-04-06T16:26:25.398Z</time></trkpt><trkpt lat="40.4709129" lon="17.3256013"><ele>14.0</ele><time>2026-04-06T16:26:27.398Z</time></trkpt><trkpt lat="40.4708283" lon="17.3256115"><ele>14.0</ele><time>2026-04-06T16:26:28.397Z</time></trkpt><trkpt lat="40.4707029" lon="17.3256131"><ele>14.0</ele><time>2026-04-06T16:26:29.397Z</time></trkpt><trkpt lat="40.4705618" lon="17.3256139"><ele>14.0</ele><time>2026-04-06T16:26:30.397Z</time></trkpt><trkpt lat="40.4704199" lon="17.3256127"><ele>14.0</ele><time>2026-04-06T16:26:31.397Z</time></trkpt><trkpt lat="40.4702779" lon="17.3256118"><ele>14.0</ele><time>2026-04-06T16:26:32.397Z</time></trkpt><trkpt lat="40.4701299" lon="17.3256131"><ele>14.333333333333334</ele><time>2026-04-06T16:26:33.397Z</time></trkpt><trkpt lat="40.4699818" lon="17.3256067"><ele>14.666666666666668</ele><time>2026-04-06T16:26:34.397Z</time></trkpt><trkpt lat="40.4698321" lon="17.3256045"><ele>15.0</ele><time>2026-04-06T16:26:35.397Z</time></trkpt><trkpt lat="40.4696776" lon="17.325601"><ele>15.333333333333332</ele><time>2026-04-06T16:26:36.398Z</time></trkpt><trkpt lat="40.4695265" lon="17.3255923"><ele>15.666666666666666</ele><time>2026-04-06T16:26:37.397Z</time></trkpt><trkpt lat="40.4693743" lon="17.3255892"><ele>16.0</ele><time>2026-04-06T16:26:38.397Z</time></trkpt><trkpt lat="40.4692279" lon="17.3255842"><ele>16.0</ele><time>2026-04-06T16:26:39.398Z</time></trkpt><trkpt lat="40.4690805" lon="17.3255772"><ele>16.0</ele><time>2026-04-06T16:26:40.398Z</time></trkpt><trkpt lat="40.4689345" lon="17.3255681"><ele>16.0</ele><time>2026-04-06T16:26:41.398Z</time></trkpt><trkpt lat="40.4687887" lon="17.3255625"><ele>16.0</ele><time>2026-04-06T16:26:42.397Z</time></trkpt><trkpt lat="40.4686433" lon="17.3255615"><ele>16.0</ele><time>2026-04-06T16:26:43.397Z</time></trkpt><trkpt lat="40.4685068" lon="17.3255609"><ele>16.0</ele><time>2026-04-06T16:26:44.397Z</time></trkpt><trkpt lat="40.46837" lon="17.3255566"><ele>16.0</ele><time>2026-04-06T16:26:45.397Z</time></trkpt><trkpt lat="40.4682409" lon="17.3255545"><ele>16.0</ele><time>2026-04-06T16:26:46.397Z</time></trkpt><trkpt lat="40.4681202" lon="17.3255589"><ele>16.0</ele><time>2026-04-06T16:26:47.397Z</time></trkpt><trkpt lat="40.468001" lon="17.3255569"><ele>16.0</ele><time>2026-04-06T16:26:48.397Z</time></trkpt><trkpt lat="40.4678806" lon="17.3255514"><ele>16.0</ele><time>2026-04-06T16:26:49.397Z</time></trkpt><trkpt lat="40.4677577" lon="17.3255485"><ele>16.0</ele><time>2026-04-06T16:26:50.397Z</time></trkpt><trkpt lat="40.4676362" lon="17.3255453"><ele>16.0</ele><time>2026-04-06T16:26:51.397Z</time></trkpt><trkpt lat="40.4675074" lon="17.3255402"><ele>16.0</ele><time>2026-04-06T16:26:52.397Z</time></trkpt><trkpt lat="40.4673796" lon="17.3255336"><ele>16.0</ele><time>2026-04-06T16:26:53.397Z</time></trkpt><trkpt lat="40.4672561" lon="17.325529"><ele>16.0</ele><time>2026-04-06T16:26:54.397Z</time></trkpt><trkpt lat="40.4671384" lon="17.3255257"><ele>16.0</ele><time>2026-04-06T16:26:55.397Z</time></trkpt><trkpt lat="40.4670304" lon="17.3255193"><ele>16.0</ele><time>2026-04-06T16:26:56.397Z</time></trkpt><trkpt lat="40.466931" lon="17.325515"><ele>16.0</ele><time>2026-04-06T16:26:57.397Z</time></trkpt><trkpt lat="40.4668233" lon="17.3255118"><ele>16.0</ele><time>2026-04-06T16:26:58.397Z</time></trkpt><trkpt lat="40.4666994" lon="17.3255095"><ele>16.0</ele><time>2026-04-06T16:26:59.397Z</time></trkpt><trkpt lat="40.4665674" lon="17.3255043"><ele>16.0</ele><time>2026-04-06T16:27:00.397Z</time></trkpt><trkpt lat="40.4664304" lon="17.3255015"><ele>16.0</ele><time>2026-04-06T16:27:01.397Z</time></trkpt><trkpt lat="40.4662905" lon="17.3255033"><ele>16.0</ele><time>2026-04-06T16:27:02.397Z</time></trkpt><trkpt lat="40.4661452" lon="17.3255048"><ele>16.0</ele><time>2026-04-06T16:27:03.397Z</time></trkpt><trkpt lat="40.4659982" lon="17.3254981"><ele>15.75</ele><time>2026-04-06T16:27:04.397Z</time></trkpt><trkpt lat="40.4658518" lon="17.3254946"><ele>15.5</ele><time>2026-04-06T16:27:05.397Z</time></trkpt><trkpt lat="40.465721" lon="17.3254883"><ele>15.25</ele><time>2026-04-06T16:27:06.397Z</time></trkpt><trkpt lat="40.465602" lon="17.3254808"><ele>15.0</ele><time>2026-04-06T16:27:07.397Z</time></trkpt><trkpt lat="40.46549" lon="17.3254757"><ele>15.0</ele><time>2026-04-06T16:27:08.397Z</time></trkpt><trkpt lat="40.4653674" lon="17.3254766"><ele>15.0</ele><time>2026-04-06T16:27:09.397Z</time></trkpt><trkpt lat="40.4652411" lon="17.3254746"><ele>15.0</ele><time>2026-04-06T16:27:10.397Z</time></trkpt><trkpt lat="40.4651163" lon="17.3254717"><ele>15.0</ele><time>2026-04-06T16:27:11.397Z</time></trkpt><trkpt lat="40.4649956" lon="17.3254716"><ele>15.0</ele><time>2026-04-06T16:27:12.397Z</time></trkpt><trkpt lat="40.4648809" lon="17.3254729"><ele>15.0</ele><time>2026-04-06T16:27:13.397Z</time></trkpt><trkpt lat="40.4647677" lon="17.3254681"><ele>15.0</ele><time>2026-04-06T16:27:14.397Z</time></trkpt><trkpt lat="40.4646548" lon="17.3254603"><ele>15.0</ele><time>2026-04-06T16:27:15.397Z</time></trkpt><trkpt lat="40.4645526" lon="17.3254491"><ele>15.0</ele><time>2026-04-06T16:27:16.397Z</time></trkpt><trkpt lat="40.4644571" lon="17.3254564"><ele>15.2</ele><time>2026-04-06T16:27:17.397Z</time></trkpt><trkpt lat="40.4643689" lon="17.325457"><ele>15.4</ele><time>2026-04-06T16:27:18.397Z</time></trkpt><trkpt lat="40.4642774" lon="17.3254535"><ele>15.600000000000001</ele><time>2026-04-06T16:27:19.398Z</time></trkpt><trkpt lat="40.4641724" lon="17.3254545"><ele>15.8</ele><time>2026-04-06T16:27:20.397Z</time></trkpt><trkpt lat="40.4640598" lon="17.3254566"><ele>16.0</ele><time>2026-04-06T16:27:21.397Z</time></trkpt><trkpt lat="40.4639441" lon="17.3254585"><ele>16.0</ele><time>2026-04-06T16:27:22.397Z</time></trkpt><trkpt lat="40.4638318" lon="17.3254528"><ele>16.0</ele><time>2026-04-06T16:27:23.397Z</time></trkpt><trkpt lat="40.4637258" lon="17.325446"><ele>16.0</ele><time>2026-04-06T16:27:24.397Z</time></trkpt><trkpt lat="40.4636441" lon="17.3254396"><ele>16.0</ele><time>2026-04-06T16:27:25.397Z</time></trkpt><trkpt lat="40.4635448" lon="17.3254272"><ele>16.0</ele><time>2026-04-06T16:27:27.397Z</time></trkpt><trkpt lat="40.4634294" lon="17.3254286"><ele>16.2</ele><time>2026-04-06T16:27:33.397Z</time></trkpt><trkpt lat="40.4633577" lon="17.3254299"><ele>16.400000000000002</ele><time>2026-04-06T16:27:34.397Z</time></trkpt><trkpt lat="40.4632608" lon="17.3254356"><ele>16.6</ele><time>2026-04-06T16:27:35.397Z</time></trkpt><trkpt lat="40.4631433" lon="17.3254322"><ele>16.8</ele><time>2026-04-06T16:27:36.398Z</time></trkpt><trkpt lat="40.4629898" lon="17.3254307"><ele>17.0</ele><time>2026-04-06T16:27:37.397Z</time></trkpt><trkpt lat="40.4628198" lon="17.3254261"><ele>17.25</ele><time>2026-04-06T16:27:38.397Z</time></trkpt><trkpt lat="40.4626518" lon="17.3254291"><ele>17.5</ele><time>2026-04-06T16:27:39.397Z</time></trkpt><trkpt lat="40.4625045" lon="17.3254276"><ele>17.75</ele><time>2026-04-06T16:27:40.397Z</time></trkpt><trkpt lat="40.4623728" lon="17.3254206"><ele>18.0</ele><time>2026-04-06T16:27:41.397Z</time></trkpt><trkpt lat="40.462252" lon="17.325419"><ele>18.0</ele><time>2026-04-06T16:27:42.397Z</time></trkpt><trkpt lat="40.4621307" lon="17.3254193"><ele>18.0</ele><time>2026-04-06T16:27:43.397Z</time></trkpt><trkpt lat="40.4620064" lon="17.3254105"><ele>18.0</ele><time>2026-04-06T16:27:44.397Z</time></trkpt><trkpt lat="40.4618846" lon="17.325391"><ele>18.0</ele><time>2026-04-06T16:27:45.398Z</time></trkpt><trkpt lat="40.4617607" lon="17.3253804"><ele>18.25</ele><time>2026-04-06T16:27:46.397Z</time></trkpt><trkpt lat="40.4616432" lon="17.3253784"><ele>18.5</ele><time>2026-04-06T16:27:47.397Z</time></trkpt><trkpt lat="40.4615301" lon="17.3253746"><ele>18.75</ele><time>2026-04-06T16:27:48.397Z</time></trkpt><trkpt lat="40.4614196" lon="17.3253699"><ele>19.0</ele><time>2026-04-06T16:27:49.397Z</time></trkpt><trkpt lat="40.4613107" lon="17.3253623"><ele>18.8</ele><time>2026-04-06T16:27:50.397Z</time></trkpt><trkpt lat="40.4612045" lon="17.3253519"><ele>18.599999999999998</ele><time>2026-04-06T16:27:51.397Z</time></trkpt><trkpt lat="40.4611096" lon="17.3253424"><ele>18.4</ele><time>2026-04-06T16:27:52.397Z</time></trkpt><trkpt lat="40.4610294" lon="17.3253361"><ele>18.2</ele><time>2026-04-06T16:27:53.397Z</time></trkpt><trkpt lat="40.4609283" lon="17.3253361"><ele>18.0</ele><time>2026-04-06T16:27:55.397Z</time></trkpt><trkpt lat="40.460829" lon="17.3253361"><ele>18.0</ele><time>2026-04-06T16:27:57.397Z</time></trkpt><trkpt lat="40.4607462" lon="17.3253384"><ele>18.0</ele><time>2026-04-06T16:27:58.397Z</time></trkpt><trkpt lat="40.4606372" lon="17.3253402"><ele>18.0</ele><time>2026-04-06T16:27:59.397Z</time></trkpt><trkpt lat="40.4605234" lon="17.3253412"><ele>18.0</ele><time>2026-04-06T16:28:00.397Z</time></trkpt><trkpt lat="40.4604159" lon="17.3253392"><ele>18.0</ele><time>2026-04-06T16:28:01.397Z</time></trkpt><trkpt lat="40.4603159" lon="17.3253347"><ele>18.0</ele><time>2026-04-06T16:28:02.397Z</time></trkpt><trkpt lat="40.4602179" lon="17.3253223"><ele>18.0</ele><time>2026-04-06T16:28:03.397Z</time></trkpt><trkpt lat="40.4601234" lon="17.3253139"><ele>18.0</ele><time>2026-04-06T16:28:04.397Z</time></trkpt><trkpt lat="40.4600294" lon="17.32531"><ele>18.0</ele><time>2026-04-06T16:28:05.397Z</time></trkpt><trkpt lat="40.4599346" lon="17.3253095"><ele>18.0</ele><time>2026-04-06T16:28:06.397Z</time></trkpt><trkpt lat="40.4598492" lon="17.3253038"><ele>18.0</ele><time>2026-04-06T16:28:07.397Z</time></trkpt><trkpt lat="40.45977" lon="17.3252998"><ele>18.0</ele><time>2026-04-06T16:28:08.397Z</time></trkpt><trkpt lat="40.4596943" lon="17.3253017"><ele>18.0</ele><time>2026-04-06T16:28:09.397Z</time></trkpt><trkpt lat="40.459628" lon="17.3252951"><ele>18.0</ele><time>2026-04-06T16:28:10.397Z</time></trkpt><trkpt lat="40.4595322" lon="17.3252784"><ele>18.0</ele><time>2026-04-06T16:28:12.397Z</time></trkpt><trkpt lat="40.4594901" lon="17.325209"><ele>18.0</ele><time>2026-04-06T16:28:14.397Z</time></trkpt><trkpt lat="40.4594945" lon="17.3250712"><ele>18.0</ele><time>2026-04-06T16:28:16.397Z</time></trkpt><trkpt lat="40.4594984" lon="17.3249697"><ele>18.0</ele><time>2026-04-06T16:28:17.397Z</time></trkpt><trkpt lat="40.4595058" lon="17.3248517"><ele>18.0</ele><time>2026-04-06T16:28:18.397Z</time></trkpt><trkpt lat="40.4595099" lon="17.3247229"><ele>18.0</ele><time>2026-04-06T16:28:19.397Z</time></trkpt><trkpt lat="40.4595149" lon="17.3245906"><ele>18.0</ele><time>2026-04-06T16:28:20.398Z</time></trkpt><trkpt lat="40.4595188" lon="17.3244602"><ele>18.0</ele><time>2026-04-06T16:28:21.398Z</time></trkpt><trkpt lat="40.4595249" lon="17.3243359"><ele>18.0</ele><time>2026-04-06T16:28:22.397Z</time></trkpt><trkpt lat="40.4595313" lon="17.3242097"><ele>18.0</ele><time>2026-04-06T16:28:23.397Z</time></trkpt><trkpt lat="40.4595403" lon="17.3240851"><ele>18.0</ele><time>2026-04-06T16:28:24.397Z</time></trkpt><trkpt lat="40.4595452" lon="17.3239653"><ele>18.0</ele><time>2026-04-06T16:28:25.397Z</time></trkpt><trkpt lat="40.4595495" lon="17.3238388"><ele>18.0</ele><time>2026-04-06T16:28:26.397Z</time></trkpt><trkpt lat="40.459552" lon="17.3237106"><ele>18.0</ele><time>2026-04-06T16:28:27.397Z</time></trkpt><trkpt lat="40.4595565" lon="17.3235874"><ele>18.0</ele><time>2026-04-06T16:28:28.397Z</time></trkpt><trkpt lat="40.4595642" lon="17.3234783"><ele>18.0</ele><time>2026-04-06T16:28:29.397Z</time></trkpt><trkpt lat="40.4595665" lon="17.3233828"><ele>18.0</ele><time>2026-04-06T16:28:30.397Z</time></trkpt><trkpt lat="40.4595733" lon="17.3232941"><ele>18.0</ele><time>2026-04-06T16:28:31.397Z</time></trkpt><trkpt lat="40.4595755" lon="17.3231988"><ele>18.0</ele><time>2026-04-06T16:28:32.397Z</time></trkpt><trkpt lat="40.4595808" lon="17.3231148"><ele>18.0</ele><time>2026-04-06T16:28:33.397Z</time></trkpt><trkpt lat="40.4596039" lon="17.3229667"><ele>18.0</ele><time>2026-04-06T16:28:35.397Z</time></trkpt><trkpt lat="40.4596106" lon="17.3228654"><ele>18.0</ele><time>2026-04-06T16:28:36.397Z</time></trkpt><trkpt lat="40.4596184" lon="17.3227704"><ele>18.0</ele><time>2026-04-06T16:28:37.397Z</time></trkpt><trkpt lat="40.4596167" lon="17.3226775"><ele>18.0</ele><time>2026-04-06T16:28:38.397Z</time></trkpt><trkpt lat="40.4596102" lon="17.3225853"><ele>18.0</ele><time>2026-04-06T16:28:39.397Z</time></trkpt><trkpt lat="40.4596069" lon="17.3224871"><ele>18.0</ele><time>2026-04-06T16:28:40.397Z</time></trkpt><trkpt lat="40.4596119" lon="17.3223771"><ele>18.0</ele><time>2026-04-06T16:28:41.397Z</time></trkpt><trkpt lat="40.4596171" lon="17.3222594"><ele>18.0</ele><time>2026-04-06T16:28:42.397Z</time></trkpt><trkpt lat="40.4596199" lon="17.322141"><ele>18.0</ele><time>2026-04-06T16:28:43.397Z</time></trkpt><trkpt lat="40.4596232" lon="17.3220179"><ele>18.0</ele><time>2026-04-06T16:28:44.397Z</time></trkpt><trkpt lat="40.4596287" lon="17.3218829"><ele>18.0</ele><time>2026-04-06T16:28:45.397Z</time></trkpt><trkpt lat="40.4596335" lon="17.3217441"><ele>18.0</ele><time>2026-04-06T16:28:46.397Z</time></trkpt><trkpt lat="40.4596355" lon="17.3216031"><ele>18.0</ele><time>2026-04-06T16:28:47.397Z</time></trkpt><trkpt lat="40.4596385" lon="17.3214623"><ele>18.0</ele><time>2026-04-06T16:28:48.397Z</time></trkpt><trkpt lat="40.4596468" lon="17.3213213"><ele>18.0</ele><time>2026-04-06T16:28:49.397Z</time></trkpt><trkpt lat="40.4596544" lon="17.3211738"><ele>18.0</ele><time>2026-04-06T16:28:50.397Z</time></trkpt><trkpt lat="40.4596614" lon="17.32103"><ele>18.0</ele><time>2026-04-06T16:28:51.397Z</time></trkpt><trkpt lat="40.4596668" lon="17.3208911"><ele>18.0</ele><time>2026-04-06T16:28:52.397Z</time></trkpt><trkpt lat="40.4596692" lon="17.320753"><ele>18.0</ele><time>2026-04-06T16:28:53.397Z</time></trkpt><trkpt lat="40.4596711" lon="17.3206184"><ele>18.0</ele><time>2026-04-06T16:28:54.397Z</time></trkpt><trkpt lat="40.4596741" lon="17.3204949"><ele>18.0</ele><time>2026-04-06T16:28:55.397Z</time></trkpt><trkpt lat="40.4596788" lon="17.3203673"><ele>18.0</ele><time>2026-04-06T16:28:56.397Z</time></trkpt><trkpt lat="40.4596815" lon="17.3202378"><ele>18.0</ele><time>2026-04-06T16:28:57.397Z</time></trkpt><trkpt lat="40.4596917" lon="17.3201044"><ele>18.0</ele><time>2026-04-06T16:28:58.397Z</time></trkpt><trkpt lat="40.4597022" lon="17.3199652"><ele>18.0</ele><time>2026-04-06T16:28:59.397Z</time></trkpt><trkpt lat="40.4597217" lon="17.3198132"><ele>18.0</ele><time>2026-04-06T16:29:00.397Z</time></trkpt><trkpt lat="40.4597475" lon="17.3196312"><ele>18.0</ele><time>2026-04-06T16:29:01.397Z</time></trkpt><trkpt lat="40.4597607" lon="17.3194303"><ele>18.0</ele><time>2026-04-06T16:29:02.397Z</time></trkpt><trkpt lat="40.4597738" lon="17.3192347"><ele>18.0</ele><time>2026-04-06T16:29:03.397Z</time></trkpt><trkpt lat="40.4597906" lon="17.3190523"><ele>18.0</ele><time>2026-04-06T16:29:04.397Z</time></trkpt><trkpt lat="40.4598069" lon="17.3188732"><ele>18.0</ele><time>2026-04-06T16:29:05.397Z</time></trkpt><trkpt lat="40.4598203" lon="17.3186922"><ele>18.0</ele><time>2026-04-06T16:29:06.397Z</time></trkpt><trkpt lat="40.4598312" lon="17.3185094"><ele>18.0</ele><time>2026-04-06T16:29:07.397Z</time></trkpt><trkpt lat="40.4598453" lon="17.3183278"><ele>18.0</ele><time>2026-04-06T16:29:08.397Z</time></trkpt><trkpt lat="40.4598645" lon="17.3181442"><ele>18.0</ele><time>2026-04-06T16:29:09.398Z</time></trkpt><trkpt lat="40.4598811" lon="17.3179668"><ele>18.0</ele><time>2026-04-06T16:29:10.397Z</time></trkpt><trkpt lat="40.459898" lon="17.3177949"><ele>18.0</ele><time>2026-04-06T16:29:11.397Z</time></trkpt><trkpt lat="40.4599113" lon="17.317626"><ele>18.0</ele><time>2026-04-06T16:29:12.397Z</time></trkpt><trkpt lat="40.4599223" lon="17.3174564"><ele>18.0</ele><time>2026-04-06T16:29:13.397Z</time></trkpt><trkpt lat="40.4599364" lon="17.3172869"><ele>18.0</ele><time>2026-04-06T16:29:14.397Z</time></trkpt><trkpt lat="40.4599508" lon="17.3171174"><ele>18.0</ele><time>2026-04-06T16:29:15.397Z</time></trkpt><trkpt lat="40.459964" lon="17.3169585"><ele>18.0</ele><time>2026-04-06T16:29:16.397Z</time></trkpt><trkpt lat="40.4599821" lon="17.3168048"><ele>18.0</ele><time>2026-04-06T16:29:17.397Z</time></trkpt><trkpt lat="40.4599976" lon="17.3166568"><ele>18.0</ele><time>2026-04-06T16:29:18.397Z</time></trkpt><trkpt lat="40.4600088" lon="17.3165197"><ele>18.0</ele><time>2026-04-06T16:29:19.397Z</time></trkpt><trkpt lat="40.4600174" lon="17.3163849"><ele>18.0</ele><time>2026-04-06T16:29:20.397Z</time></trkpt><trkpt lat="40.4600271" lon="17.3162483"><ele>18.2</ele><time>2026-04-06T16:29:21.398Z</time></trkpt><trkpt lat="40.4600349" lon="17.3161223"><ele>18.4</ele><time>2026-04-06T16:29:22.397Z</time></trkpt><trkpt lat="40.4600392" lon="17.3160122"><ele>18.599999999999998</ele><time>2026-04-06T16:29:23.397Z</time></trkpt><trkpt lat="40.4600403" lon="17.315919"><ele>18.8</ele><time>2026-04-06T16:29:24.397Z</time></trkpt><trkpt lat="40.4599915" lon="17.3157832"><ele>19.0</ele><time>2026-04-06T16:29:26.397Z</time></trkpt><trkpt lat="40.459883" lon="17.3157283"><ele>19.0</ele><time>2026-04-06T16:29:28.397Z</time></trkpt><trkpt lat="40.4598152" lon="17.3156106"><ele>19.0</ele><time>2026-04-06T16:29:30.397Z</time></trkpt><trkpt lat="40.4598222" lon="17.3154691"><ele>19.0</ele><time>2026-04-06T16:29:32.397Z</time></trkpt><trkpt lat="40.4598299" lon="17.3153317"><ele>19.0</ele><time>2026-04-06T16:30:47.397Z</time></trkpt><trkpt lat="40.4598404" lon="17.3152023"><ele>19.0</ele><time>2026-04-06T16:30:48.397Z</time></trkpt><trkpt lat="40.4598489" lon="17.3150642"><ele>19.0</ele><time>2026-04-06T16:30:49.397Z</time></trkpt><trkpt lat="40.4598625" lon="17.3149203"><ele>19.0</ele><time>2026-04-06T16:30:50.397Z</time></trkpt><trkpt lat="40.4598774" lon="17.3147921"><ele>19.0</ele><time>2026-04-06T16:30:51.397Z</time></trkpt><trkpt lat="40.4598954" lon="17.3146426"><ele>19.0</ele><time>2026-04-06T16:30:52.397Z</time></trkpt><trkpt lat="40.4599111" lon="17.3144741"><ele>19.166666666666664</ele><time>2026-04-06T16:30:53.397Z</time></trkpt><trkpt lat="40.4599268" lon="17.3143382"><ele>19.333333333333332</ele><time>2026-04-06T16:30:54.397Z</time></trkpt><trkpt lat="40.4599339" lon="17.3142297"><ele>19.5</ele><time>2026-04-06T16:30:55.397Z</time></trkpt><trkpt lat="40.4599317" lon="17.3141365"><ele>19.666666666666668</ele><time>2026-04-06T16:30:56.397Z</time></trkpt><trkpt lat="40.4599116" lon="17.3140529"><ele>19.833333333333336</ele><time>2026-04-06T16:30:57.397Z</time></trkpt><trkpt lat="40.459874" lon="17.313976"><ele>20.0</ele><time>2026-04-06T16:30:58.397Z</time></trkpt><trkpt lat="40.4598129" lon="17.3139107"><ele>20.0</ele><time>2026-04-06T16:30:59.397Z</time></trkpt><trkpt lat="40.4597471" lon="17.3138411"><ele>20.0</ele><time>2026-04-06T16:31:00.397Z</time></trkpt><trkpt lat="40.459692" lon="17.3137529"><ele>20.0</ele><time>2026-04-06T16:31:01.397Z</time></trkpt><trkpt lat="40.4596545" lon="17.3136594"><ele>20.0</ele><time>2026-04-06T16:31:02.397Z</time></trkpt><trkpt lat="40.4596365" lon="17.3135546"><ele>20.0</ele><time>2026-04-06T16:31:03.397Z</time></trkpt><trkpt lat="40.4596305" lon="17.3134356"><ele>20.0</ele><time>2026-04-06T16:31:04.397Z</time></trkpt><trkpt lat="40.459633" lon="17.3133035"><ele>20.0</ele><time>2026-04-06T16:31:05.397Z</time></trkpt><trkpt lat="40.4596388" lon="17.3131647"><ele>20.0</ele><time>2026-04-06T16:31:06.397Z</time></trkpt><trkpt lat="40.4596529" lon="17.313017"><ele>20.0</ele><time>2026-04-06T16:31:07.397Z</time></trkpt><trkpt lat="40.4596647" lon="17.3128523"><ele>20.0</ele><time>2026-04-06T16:31:08.397Z</time></trkpt><trkpt lat="40.4596769" lon="17.3126937"><ele>19.6</ele><time>2026-04-06T16:31:09.397Z</time></trkpt><trkpt lat="40.4596913" lon="17.3125408"><ele>19.2</ele><time>2026-04-06T16:31:10.397Z</time></trkpt><trkpt lat="40.459703" lon="17.3124048"><ele>18.8</ele><time>2026-04-06T16:31:11.397Z</time></trkpt><trkpt lat="40.4597119" lon="17.3122831"><ele>18.4</ele><time>2026-04-06T16:31:12.397Z</time></trkpt><trkpt lat="40.4597238" lon="17.3121777"><ele>18.0</ele><time>2026-04-06T16:31:13.397Z</time></trkpt><trkpt lat="40.4597323" lon="17.3120876"><ele>18.0</ele><time>2026-04-06T16:31:14.397Z</time></trkpt><trkpt lat="40.459745" lon="17.311917"><ele>18.0</ele><time>2026-04-06T16:31:16.397Z</time></trkpt><trkpt lat="40.4597531" lon="17.3118346"><ele>18.0</ele><time>2026-04-06T16:31:17.397Z</time></trkpt><trkpt lat="40.4597375" lon="17.3117008"><ele>18.0</ele><time>2026-04-06T16:31:19.397Z</time></trkpt><trkpt lat="40.4596582" lon="17.3116254"><ele>18.0</ele><time>2026-04-06T16:31:21.397Z</time></trkpt><trkpt lat="40.459594" lon="17.3116033"><ele>18.666666666666668</ele><time>2026-04-06T16:31:22.397Z</time></trkpt><trkpt lat="40.4595156" lon="17.3115932"><ele>19.333333333333332</ele><time>2026-04-06T16:31:23.397Z</time></trkpt><trkpt lat="40.4594255" lon="17.3115718"><ele>20.0</ele><time>2026-04-06T16:31:24.397Z</time></trkpt><trkpt lat="40.4593358" lon="17.3115584"><ele>20.666666666666664</ele><time>2026-04-06T16:31:25.397Z</time></trkpt><trkpt lat="40.4592485" lon="17.3115413"><ele>21.333333333333332</ele><time>2026-04-06T16:31:26.398Z</time></trkpt><trkpt lat="40.4591573" lon="17.3115257"><ele>22.0</ele><time>2026-04-06T16:31:27.397Z</time></trkpt><trkpt lat="40.4590662" lon="17.3115109"><ele>22.0</ele><time>2026-04-06T16:31:28.397Z</time></trkpt><trkpt lat="40.4589716" lon="17.3114903"><ele>22.0</ele><time>2026-04-06T16:31:29.397Z</time></trkpt><trkpt lat="40.4588718" lon="17.3114631"><ele>22.0</ele><time>2026-04-06T16:31:30.397Z</time></trkpt><trkpt lat="40.4587659" lon="17.3114373"><ele>22.0</ele><time>2026-04-06T16:31:31.397Z</time></trkpt><trkpt lat="40.458651" lon="17.3114144"><ele>22.0</ele><time>2026-04-06T16:31:32.397Z</time></trkpt><trkpt lat="40.4585382" lon="17.3113901"><ele>22.0</ele><time>2026-04-06T16:31:33.397Z</time></trkpt><trkpt lat="40.4584383" lon="17.3113617"><ele>22.0</ele><time>2026-04-06T16:31:34.397Z</time></trkpt><trkpt lat="40.4583477" lon="17.3113437"><ele>22.0</ele><time>2026-04-06T16:31:35.397Z</time></trkpt><trkpt lat="40.4582607" lon="17.3113252"><ele>22.0</ele><time>2026-04-06T16:31:36.397Z</time></trkpt><trkpt lat="40.4581729" lon="17.311306"><ele>22.0</ele><time>2026-04-06T16:31:37.397Z</time></trkpt><trkpt lat="40.458092" lon="17.311288"><ele>22.0</ele><time>2026-04-06T16:31:38.398Z</time></trkpt><trkpt lat="40.4580175" lon="17.3112729"><ele>22.0</ele><time>2026-04-06T16:31:39.397Z</time></trkpt><trkpt lat="40.4579076" lon="17.3112553"><ele>22.0</ele><time>2026-04-06T16:31:41.397Z</time></trkpt><trkpt lat="40.4578426" lon="17.3112203"><ele>22.0</ele><time>2026-04-06T16:31:43.397Z</time></trkpt><trkpt lat="40.4578349" lon="17.3110896"><ele>22.0</ele><time>2026-04-06T16:31:46.397Z</time></trkpt><trkpt lat="40.4578524" lon="17.3109396"><ele>22.0</ele><time>2026-04-06T16:31:48.397Z</time></trkpt><trkpt lat="40.4578675" lon="17.310836"><ele>22.0</ele><time>2026-04-06T16:31:49.397Z</time></trkpt><trkpt lat="40.4578787" lon="17.3107301"><ele>22.0</ele><time>2026-04-06T16:31:50.397Z</time></trkpt><trkpt lat="40.4578858" lon="17.3106214"><ele>22.0</ele><time>2026-04-06T16:31:51.397Z</time></trkpt><trkpt lat="40.4579031" lon="17.310522"><ele>22.0</ele><time>2026-04-06T16:31:52.397Z</time></trkpt><trkpt lat="40.4579234" lon="17.3104263"><ele>22.0</ele><time>2026-04-06T16:31:53.397Z</time></trkpt><trkpt lat="40.4579414" lon="17.3103245"><ele>22.0</ele><time>2026-04-06T16:31:54.397Z</time></trkpt><trkpt lat="40.4579517" lon="17.3102157"><ele>22.0</ele><time>2026-04-06T16:31:55.397Z</time></trkpt><trkpt lat="40.4579656" lon="17.3100955"><ele>22.0</ele><time>2026-04-06T16:31:56.397Z</time></trkpt><trkpt lat="40.4579744" lon="17.3099791"><ele>22.0</ele><time>2026-04-06T16:31:57.397Z</time></trkpt><trkpt lat="40.4579828" lon="17.3098734"><ele>22.0</ele><time>2026-04-06T16:31:58.397Z</time></trkpt><trkpt lat="40.4579885" lon="17.3097686"><ele>22.0</ele><time>2026-04-06T16:31:59.397Z</time></trkpt><trkpt lat="40.4579951" lon="17.3096598"><ele>21.571428571428573</ele><time>2026-04-06T16:32:00.397Z</time></trkpt><trkpt lat="40.4580026" lon="17.3095533"><ele>21.142857142857142</ele><time>2026-04-06T16:32:01.397Z</time></trkpt><trkpt lat="40.4580104" lon="17.3094491"><ele>20.714285714285715</ele><time>2026-04-06T16:32:02.397Z</time></trkpt><trkpt lat="40.4580215" lon="17.3093581"><ele>20.285714285714285</ele><time>2026-04-06T16:32:03.397Z</time></trkpt><trkpt lat="40.4580245" lon="17.3092667"><ele>19.857142857142858</ele><time>2026-04-06T16:32:04.397Z</time></trkpt><trkpt lat="40.4580206" lon="17.3091787"><ele>19.428571428571427</ele><time>2026-04-06T16:32:05.397Z</time></trkpt><trkpt lat="40.4580151" lon="17.3090851"><ele>19.0</ele><time>2026-04-06T16:32:06.398Z</time></trkpt><trkpt lat="40.4580077" lon="17.3089878"><ele>19.0</ele><time>2026-04-06T16:32:07.397Z</time></trkpt><trkpt lat="40.4579944" lon="17.3088935"><ele>19.0</ele><time>2026-04-06T16:32:08.397Z</time></trkpt><trkpt lat="40.4579812" lon="17.3088077"><ele>19.0</ele><time>2026-04-06T16:32:09.397Z</time></trkpt><trkpt lat="40.4579269" lon="17.3086717"><ele>19.0</ele><time>2026-04-06T16:32:11.397Z</time></trkpt><trkpt lat="40.4578256" lon="17.308572"><ele>19.0</ele><time>2026-04-06T16:32:13.397Z</time></trkpt><trkpt lat="40.4577576" lon="17.3085196"><ele>19.0</ele><time>2026-04-06T16:32:14.397Z</time></trkpt><trkpt lat="40.4576842" lon="17.308463"><ele>19.0</ele><time>2026-04-06T16:32:15.397Z</time></trkpt><trkpt lat="40.457614" lon="17.3084136"><ele>19.0</ele><time>2026-04-06T16:32:16.397Z</time></trkpt><trkpt lat="40.4575489" lon="17.3083741"><ele>19.0</ele><time>2026-04-06T16:32:17.397Z</time></trkpt><trkpt lat="40.4574701" lon="17.3083362"><ele>19.0</ele><time>2026-04-06T16:32:18.397Z</time></trkpt><trkpt lat="40.4573694" lon="17.308296"><ele>19.0</ele><time>2026-04-06T16:32:19.398Z</time></trkpt><trkpt lat="40.4572689" lon="17.3082653"><ele>19.0</ele><time>2026-04-06T16:32:20.397Z</time></trkpt><trkpt lat="40.4571742" lon="17.3082369"><ele>19.0</ele><time>2026-04-06T16:32:21.397Z</time></trkpt><trkpt lat="40.4570768" lon="17.3082144"><ele>19.0</ele><time>2026-04-06T16:32:22.397Z</time></trkpt><trkpt lat="40.4569755" lon="17.3081882"><ele>19.0</ele><time>2026-04-06T16:32:23.397Z</time></trkpt><trkpt lat="40.4568791" lon="17.3081555"><ele>19.0</ele><time>2026-04-06T16:32:24.397Z</time></trkpt><trkpt lat="40.4567812" lon="17.308127"><ele>19.0</ele><time>2026-04-06T16:32:25.397Z</time></trkpt><trkpt lat="40.4566798" lon="17.3081051"><ele>19.0</ele><time>2026-04-06T16:32:26.397Z</time></trkpt><trkpt lat="40.4565762" lon="17.3080829"><ele>19.0</ele><time>2026-04-06T16:32:27.397Z</time></trkpt><trkpt lat="40.4564715" lon="17.3080563"><ele>19.0</ele><time>2026-04-06T16:32:28.397Z</time></trkpt><trkpt lat="40.4563668" lon="17.3080259"><ele>19.0</ele><time>2026-04-06T16:32:29.397Z</time></trkpt><trkpt lat="40.4562662" lon="17.3079952"><ele>19.0</ele><time>2026-04-06T16:32:30.397Z</time></trkpt><trkpt lat="40.4561683" lon="17.3079682"><ele>19.0</ele><time>2026-04-06T16:32:31.397Z</time></trkpt><trkpt lat="40.4560698" lon="17.3079401"><ele>19.0</ele><time>2026-04-06T16:32:32.397Z</time></trkpt><trkpt lat="40.4559724" lon="17.3079122"><ele>19.0</ele><time>2026-04-06T16:32:33.397Z</time></trkpt><trkpt lat="40.4558715" lon="17.3078735"><ele>19.0</ele><time>2026-04-06T16:32:34.397Z</time></trkpt><trkpt lat="40.4557645" lon="17.3078332"><ele>19.0</ele><time>2026-04-06T16:32:35.397Z</time></trkpt><trkpt lat="40.4556398" lon="17.3077938"><ele>19.0</ele><time>2026-04-06T16:32:36.397Z</time></trkpt><trkpt lat="40.4555069" lon="17.3077543"><ele>19.0</ele><time>2026-04-06T16:32:37.397Z</time></trkpt><trkpt lat="40.4553875" lon="17.3077233"><ele>19.0</ele><time>2026-04-06T16:32:38.397Z</time></trkpt><trkpt lat="40.4552838" lon="17.3076936"><ele>18.833333333333332</ele><time>2026-04-06T16:32:39.397Z</time></trkpt><trkpt lat="40.455187" lon="17.307666"><ele>18.666666666666664</ele><time>2026-04-06T16:32:40.397Z</time></trkpt><trkpt lat="40.4550959" lon="17.3076415"><ele>18.5</ele><time>2026-04-06T16:32:41.397Z</time></trkpt><trkpt lat="40.455012" lon="17.3076183"><ele>18.333333333333332</ele><time>2026-04-06T16:32:42.397Z</time></trkpt><trkpt lat="40.4549326" lon="17.3075981"><ele>18.166666666666668</ele><time>2026-04-06T16:32:43.397Z</time></trkpt><trkpt lat="40.4548585" lon="17.3075786"><ele>18.0</ele><time>2026-04-06T16:32:44.397Z</time></trkpt><trkpt lat="40.4547956" lon="17.3075578"><ele>18.0</ele><time>2026-04-06T16:32:45.397Z</time></trkpt><trkpt lat="40.4546962" lon="17.3075178"><ele>18.0</ele><time>2026-04-06T16:32:47.398Z</time></trkpt><trkpt lat="40.4546281" lon="17.3074542"><ele>18.0</ele><time>2026-04-06T16:32:50.398Z</time></trkpt><trkpt lat="40.4546472" lon="17.3072911"><ele>18.0</ele><time>2026-04-06T16:32:52.397Z</time></trkpt><trkpt lat="40.4546623" lon="17.3072039"><ele>18.0</ele><time>2026-04-06T16:32:53.398Z</time></trkpt><trkpt lat="40.4546748" lon="17.3071106"><ele>17.8</ele><time>2026-04-06T16:32:54.397Z</time></trkpt><trkpt lat="40.4546958" lon="17.3070143"><ele>17.6</ele><time>2026-04-06T16:32:55.397Z</time></trkpt><trkpt lat="40.454719" lon="17.3069009"><ele>17.4</ele><time>2026-04-06T16:32:56.397Z</time></trkpt><trkpt lat="40.4547453" lon="17.3067812"><ele>17.2</ele><time>2026-04-06T16:32:57.397Z</time></trkpt><trkpt lat="40.4547723" lon="17.3066566"><ele>17.0</ele><time>2026-04-06T16:32:58.397Z</time></trkpt><trkpt lat="40.4548093" lon="17.3065394"><ele>17.0</ele><time>2026-04-06T16:32:59.398Z</time></trkpt><trkpt lat="40.4548429" lon="17.3064186"><ele>17.0</ele><time>2026-04-06T16:33:00.397Z</time></trkpt><trkpt lat="40.454885" lon="17.3062861"><ele>17.0</ele><time>2026-04-06T16:33:01.397Z</time></trkpt><trkpt lat="40.4549377" lon="17.3061268"><ele>17.0</ele><time>2026-04-06T16:33:02.397Z</time></trkpt><trkpt lat="40.4550086" lon="17.3059236"><ele>16.333333333333336</ele><time>2026-04-06T16:33:03.397Z</time></trkpt><trkpt lat="40.4550925" lon="17.3057002"><ele>15.666666666666668</ele><time>2026-04-06T16:33:04.397Z</time></trkpt><trkpt lat="40.4551823" lon="17.305453"><ele>15.0</ele><time>2026-04-06T16:33:05.397Z</time></trkpt><trkpt lat="40.4552818" lon="17.3051881"><ele>14.0</ele><time>2026-04-06T16:33:06.397Z</time></trkpt><trkpt lat="40.4553887" lon="17.3049141"><ele>13.0</ele><time>2026-04-06T16:33:07.397Z</time></trkpt><trkpt lat="40.455495" lon="17.3046382"><ele>11.0</ele><time>2026-04-06T16:33:08.397Z</time></trkpt><trkpt lat="40.4556074" lon="17.304364"><ele>9.0</ele><time>2026-04-06T16:33:09.397Z</time></trkpt><trkpt lat="40.4557166" lon="17.3040886"><ele>9.0</ele><time>2026-04-06T16:33:10.397Z</time></trkpt><trkpt lat="40.455826" lon="17.3038134"><ele>9.0</ele><time>2026-04-06T16:33:11.397Z</time></trkpt><trkpt lat="40.4559299" lon="17.3035478"><ele>9.0</ele><time>2026-04-06T16:33:12.397Z</time></trkpt><trkpt lat="40.4560277" lon="17.3032856"><ele>9.0</ele><time>2026-04-06T16:33:13.397Z</time></trkpt><trkpt lat="40.4561266" lon="17.3030287"><ele>9.0</ele><time>2026-04-06T16:33:14.397Z</time></trkpt><trkpt lat="40.4562244" lon="17.3027805"><ele>8.333333333333334</ele><time>2026-04-06T16:33:15.397Z</time></trkpt><trkpt lat="40.4563231" lon="17.3025398"><ele>7.666666666666667</ele><time>2026-04-06T16:33:16.397Z</time></trkpt><trkpt lat="40.4564149" lon="17.3022987"><ele>7.0</ele><time>2026-04-06T16:33:17.397Z</time></trkpt><trkpt lat="40.4565032" lon="17.3020476"><ele>6.5</ele><time>2026-04-06T16:33:18.397Z</time></trkpt><trkpt lat="40.4565914" lon="17.3017762"><ele>6.0</ele><time>2026-04-06T16:33:19.397Z</time></trkpt><trkpt lat="40.4566783" lon="17.3014764"><ele>6.5</ele><time>2026-04-06T16:33:20.397Z</time></trkpt><trkpt lat="40.4567605" lon="17.3011491"><ele>7.0</ele><time>2026-04-06T16:33:21.397Z</time></trkpt><trkpt lat="40.4568409" lon="17.3008169"><ele>7.0</ele><time>2026-04-06T16:33:22.397Z</time></trkpt><trkpt lat="40.456918" lon="17.300515"><ele>7.0</ele><time>2026-04-06T16:33:23.397Z</time></trkpt><trkpt lat="40.4569871" lon="17.3002357"><ele>7.0</ele><time>2026-04-06T16:33:24.397Z</time></trkpt><trkpt lat="40.4570527" lon="17.299963"><ele>7.0</ele><time>2026-04-06T16:33:25.397Z</time></trkpt><trkpt lat="40.457116" lon="17.2996995"><ele>7.0</ele><time>2026-04-06T16:33:26.397Z</time></trkpt><trkpt lat="40.4571811" lon="17.299439"><ele>7.0</ele><time>2026-04-06T16:33:27.397Z</time></trkpt><trkpt lat="40.4572538" lon="17.2991773"><ele>7.0</ele><time>2026-04-06T16:33:28.397Z</time></trkpt><trkpt lat="40.4573357" lon="17.29891"><ele>7.0</ele><time>2026-04-06T16:33:29.397Z</time></trkpt><trkpt lat="40.4574251" lon="17.298643"><ele>8.0</ele><time>2026-04-06T16:33:30.397Z</time></trkpt><trkpt lat="40.4575217" lon="17.2983761"><ele>9.0</ele><time>2026-04-06T16:33:31.397Z</time></trkpt><trkpt lat="40.4576224" lon="17.2980942"><ele>10.0</ele><time>2026-04-06T16:33:32.397Z</time></trkpt><trkpt lat="40.4577177" lon="17.2978218"><ele>11.0</ele><time>2026-04-06T16:33:33.397Z</time></trkpt><trkpt lat="40.4578088" lon="17.2975595"><ele>12.0</ele><time>2026-04-06T16:33:34.397Z</time></trkpt><trkpt lat="40.4578927" lon="17.2973113"><ele>12.666666666666668</ele><time>2026-04-06T16:33:35.398Z</time></trkpt><trkpt lat="40.4579691" lon="17.2970832"><ele>13.333333333333334</ele><time>2026-04-06T16:33:36.397Z</time></trkpt><trkpt lat="40.4580355" lon="17.2968723"><ele>14.0</ele><time>2026-04-06T16:33:37.398Z</time></trkpt><trkpt lat="40.4580991" lon="17.2966721"><ele>14.0</ele><time>2026-04-06T16:33:38.397Z</time></trkpt><trkpt lat="40.4581573" lon="17.2964934"><ele>14.0</ele><time>2026-04-06T16:33:39.397Z</time></trkpt><trkpt lat="40.4582096" lon="17.2963302"><ele>14.0</ele><time>2026-04-06T16:33:40.397Z</time></trkpt><trkpt lat="40.4582608" lon="17.2961832"><ele>14.0</ele><time>2026-04-06T16:33:41.397Z</time></trkpt><trkpt lat="40.4583209" lon="17.2960574"><ele>14.399999999999999</ele><time>2026-04-06T16:33:42.397Z</time></trkpt><trkpt lat="40.4583926" lon="17.2959678"><ele>14.799999999999999</ele><time>2026-04-06T16:33:43.397Z</time></trkpt><trkpt lat="40.4584757" lon="17.2959124"><ele>15.200000000000001</ele><time>2026-04-06T16:33:44.397Z</time></trkpt><trkpt lat="40.4585634" lon="17.2958863"><ele>15.600000000000001</ele><time>2026-04-06T16:33:45.397Z</time></trkpt><trkpt lat="40.4586633" lon="17.2958695"><ele>16.0</ele><time>2026-04-06T16:33:46.397Z</time></trkpt><trkpt lat="40.4587568" lon="17.2958258"><ele>15.999999999999998</ele><time>2026-04-06T16:33:47.397Z</time></trkpt><trkpt lat="40.4588264" lon="17.2957599"><ele>16.0</ele><time>2026-04-06T16:33:48.397Z</time></trkpt><trkpt lat="40.4588747" lon="17.2956861"><ele>16.0</ele><time>2026-04-06T16:33:49.397Z</time></trkpt><trkpt lat="40.4589093" lon="17.2955914"><ele>16.0</ele><time>2026-04-06T16:33:50.397Z</time></trkpt><trkpt lat="40.4589226" lon="17.2954735"><ele>15.999999999999998</ele><time>2026-04-06T16:33:51.398Z</time></trkpt><trkpt lat="40.4589175" lon="17.2953412"><ele>16.0</ele><time>2026-04-06T16:33:52.397Z</time></trkpt><trkpt lat="40.4589107" lon="17.2951901"><ele>16.0</ele><time>2026-04-06T16:33:53.398Z</time></trkpt><trkpt lat="40.4588977" lon="17.2950237"><ele>16.0</ele><time>2026-04-06T16:33:54.397Z</time></trkpt><trkpt lat="40.4588847" lon="17.2948401"><ele>16.0</ele><time>2026-04-06T16:33:55.397Z</time></trkpt><trkpt lat="40.4588657" lon="17.2946541"><ele>16.0</ele><time>2026-04-06T16:33:56.398Z</time></trkpt><trkpt lat="40.4588458" lon="17.2944676"><ele>16.5</ele><time>2026-04-06T16:33:57.397Z</time></trkpt><trkpt lat="40.458819" lon="17.2942883"><ele>17.0</ele><time>2026-04-06T16:33:58.397Z</time></trkpt><trkpt lat="40.4587982" lon="17.2941101"><ele>17.5</ele><time>2026-04-06T16:33:59.397Z</time></trkpt><trkpt lat="40.4588006" lon="17.2939302"><ele>18.0</ele><time>2026-04-06T16:34:00.397Z</time></trkpt><trkpt lat="40.4588237" lon="17.2937418"><ele>19.0</ele><time>2026-04-06T16:34:01.397Z</time></trkpt><trkpt lat="40.4588578" lon="17.2935416"><ele>20.0</ele><time>2026-04-06T16:34:02.397Z</time></trkpt><trkpt lat="40.4588897" lon="17.2933382"><ele>21.0</ele><time>2026-04-06T16:34:03.397Z</time></trkpt><trkpt lat="40.4589146" lon="17.2931362"><ele>21.0</ele><time>2026-04-06T16:34:04.397Z</time></trkpt><trkpt lat="40.4589427" lon="17.2929326"><ele>21.0</ele><time>2026-04-06T16:34:05.397Z</time></trkpt><trkpt lat="40.4589695" lon="17.292733"><ele>21.0</ele><time>2026-04-06T16:34:06.397Z</time></trkpt><trkpt lat="40.4589936" lon="17.2925432"><ele>21.0</ele><time>2026-04-06T16:34:07.397Z</time></trkpt><trkpt lat="40.4590153" lon="17.2923569"><ele>21.0</ele><time>2026-04-06T16:34:08.397Z</time></trkpt><trkpt lat="40.4590381" lon="17.2921742"><ele>21.0</ele><time>2026-04-06T16:34:09.397Z</time></trkpt><trkpt lat="40.459063" lon="17.2920073"><ele>21.0</ele><time>2026-04-06T16:34:10.397Z</time></trkpt><trkpt lat="40.459092" lon="17.2918383"><ele>21.0</ele><time>2026-04-06T16:34:11.397Z</time></trkpt><trkpt lat="40.4591173" lon="17.2916609"><ele>21.0</ele><time>2026-04-06T16:34:12.397Z</time></trkpt><trkpt lat="40.4591466" lon="17.2914817"><ele>21.0</ele><time>2026-04-06T16:34:13.397Z</time></trkpt><trkpt lat="40.459178" lon="17.2913043"><ele>21.0</ele><time>2026-04-06T16:34:14.397Z</time></trkpt><trkpt lat="40.4592089" lon="17.291124"><ele>20.5</ele><time>2026-04-06T16:34:15.397Z</time></trkpt><trkpt lat="40.4592456" lon="17.2909386"><ele>20.0</ele><time>2026-04-06T16:34:16.398Z</time></trkpt><trkpt lat="40.4592843" lon="17.2907513"><ele>19.5</ele><time>2026-04-06T16:34:17.397Z</time></trkpt><trkpt lat="40.4593235" lon="17.2905676"><ele>19.0</ele><time>2026-04-06T16:34:18.397Z</time></trkpt><trkpt lat="40.4593606" lon="17.2903857"><ele>18.75</ele><time>2026-04-06T16:34:19.397Z</time></trkpt><trkpt lat="40.4593933" lon="17.290215"><ele>18.5</ele><time>2026-04-06T16:34:20.398Z</time></trkpt><trkpt lat="40.4594205" lon="17.2900544"><ele>18.25</ele><time>2026-04-06T16:34:21.397Z</time></trkpt><trkpt lat="40.4594484" lon="17.2898981"><ele>18.0</ele><time>2026-04-06T16:34:22.397Z</time></trkpt><trkpt lat="40.4594842" lon="17.2897345"><ele>18.0</ele><time>2026-04-06T16:34:23.397Z</time></trkpt><trkpt lat="40.4595319" lon="17.2895704"><ele>18.0</ele><time>2026-04-06T16:34:24.397Z</time></trkpt><trkpt lat="40.4595754" lon="17.2893944"><ele>18.0</ele><time>2026-04-06T16:34:25.397Z</time></trkpt><trkpt lat="40.4596019" lon="17.2892353"><ele>18.0</ele><time>2026-04-06T16:34:26.397Z</time></trkpt><trkpt lat="40.4596293" lon="17.2890917"><ele>18.0</ele><time>2026-04-06T16:34:27.397Z</time></trkpt><trkpt lat="40.4596694" lon="17.2889421"><ele>18.0</ele><time>2026-04-06T16:34:28.397Z</time></trkpt><trkpt lat="40.459705" lon="17.2887834"><ele>18.0</ele><time>2026-04-06T16:34:29.397Z</time></trkpt><trkpt lat="40.4597336" lon="17.2886104"><ele>18.0</ele><time>2026-04-06T16:34:30.397Z</time></trkpt><trkpt lat="40.4597666" lon="17.2884233"><ele>18.333333333333332</ele><time>2026-04-06T16:34:31.397Z</time></trkpt><trkpt lat="40.4598051" lon="17.2882198"><ele>18.666666666666664</ele><time>2026-04-06T16:34:32.397Z</time></trkpt><trkpt lat="40.4598479" lon="17.2880061"><ele>19.0</ele><time>2026-04-06T16:34:33.397Z</time></trkpt><trkpt lat="40.4598986" lon="17.2877962"><ele>19.0</ele><time>2026-04-06T16:34:34.397Z</time></trkpt><trkpt lat="40.4599552" lon="17.2875849"><ele>19.0</ele><time>2026-04-06T16:34:35.397Z</time></trkpt><trkpt lat="40.4600084" lon="17.2873705"><ele>19.0</ele><time>2026-04-06T16:34:36.397Z</time></trkpt><trkpt lat="40.4600511" lon="17.2871519"><ele>18.666666666666664</ele><time>2026-04-06T16:34:37.397Z</time></trkpt><trkpt lat="40.4600877" lon="17.286929"><ele>18.333333333333332</ele><time>2026-04-06T16:34:38.397Z</time></trkpt><trkpt lat="40.4601298" lon="17.286706"><ele>18.0</ele><time>2026-04-06T16:34:39.397Z</time></trkpt><trkpt lat="40.4601757" lon="17.2864883"><ele>18.0</ele><time>2026-04-06T16:34:40.397Z</time></trkpt><trkpt lat="40.4602201" lon="17.2862778"><ele>18.0</ele><time>2026-04-06T16:34:41.397Z</time></trkpt><trkpt lat="40.4602603" lon="17.2860513"><ele>18.0</ele><time>2026-04-06T16:34:42.397Z</time></trkpt><trkpt lat="40.4602987" lon="17.2858177"><ele>18.0</ele><time>2026-04-06T16:34:43.397Z</time></trkpt><trkpt lat="40.4603356" lon="17.2856044"><ele>18.0</ele><time>2026-04-06T16:34:44.397Z</time></trkpt><trkpt lat="40.4603791" lon="17.2853963"><ele>18.0</ele><time>2026-04-06T16:34:45.397Z</time></trkpt><trkpt lat="40.4604259" lon="17.2851824"><ele>18.0</ele><time>2026-04-06T16:34:46.397Z</time></trkpt><trkpt lat="40.4604709" lon="17.2849721"><ele>18.0</ele><time>2026-04-06T16:34:47.398Z</time></trkpt><trkpt lat="40.4605249" lon="17.2847615"><ele>18.0</ele><time>2026-04-06T16:34:48.398Z</time></trkpt><trkpt lat="40.4605808" lon="17.284544"><ele>18.0</ele><time>2026-04-06T16:34:49.397Z</time></trkpt><trkpt lat="40.4606276" lon="17.2843204"><ele>18.0</ele><time>2026-04-06T16:34:50.397Z</time></trkpt><trkpt lat="40.4606689" lon="17.2840955"><ele>18.0</ele><time>2026-04-06T16:34:51.397Z</time></trkpt><trkpt lat="40.4607134" lon="17.283871"><ele>18.0</ele><time>2026-04-06T16:34:52.397Z</time></trkpt><trkpt lat="40.4607615" lon="17.2836469"><ele>18.0</ele><time>2026-04-06T16:34:53.397Z</time></trkpt><trkpt lat="40.4608048" lon="17.2834244"><ele>18.0</ele><time>2026-04-06T16:34:54.397Z</time></trkpt><trkpt lat="40.4608414" lon="17.2832026"><ele>18.0</ele><time>2026-04-06T16:34:55.397Z</time></trkpt><trkpt lat="40.4608812" lon="17.2829958"><ele>18.0</ele><time>2026-04-06T16:34:56.397Z</time></trkpt><trkpt lat="40.4609168" lon="17.2827954"><ele>18.0</ele><time>2026-04-06T16:34:57.397Z</time></trkpt><trkpt lat="40.4609481" lon="17.2825947"><ele>18.0</ele><time>2026-04-06T16:34:58.397Z</time></trkpt><trkpt lat="40.4609848" lon="17.2824148"><ele>18.0</ele><time>2026-04-06T16:34:59.397Z</time></trkpt><trkpt lat="40.4610161" lon="17.2822545"><ele>18.0</ele><time>2026-04-06T16:35:00.397Z</time></trkpt><trkpt lat="40.4610419" lon="17.2821048"><ele>18.0</ele><time>2026-04-06T16:35:01.397Z</time></trkpt><trkpt lat="40.461066" lon="17.2819619"><ele>18.2</ele><time>2026-04-06T16:35:02.397Z</time></trkpt><trkpt lat="40.4610948" lon="17.281828"><ele>18.4</ele><time>2026-04-06T16:35:03.397Z</time></trkpt><trkpt lat="40.4611413" lon="17.2817136"><ele>18.599999999999998</ele><time>2026-04-06T16:35:04.398Z</time></trkpt><trkpt lat="40.4612066" lon="17.2816205"><ele>18.8</ele><time>2026-04-06T16:35:05.397Z</time></trkpt><trkpt lat="40.4612941" lon="17.2815402"><ele>19.0</ele><time>2026-04-06T16:35:06.397Z</time></trkpt><trkpt lat="40.4613913" lon="17.2814712"><ele>19.25</ele><time>2026-04-06T16:35:07.397Z</time></trkpt><trkpt lat="40.4615076" lon="17.2814264"><ele>19.5</ele><time>2026-04-06T16:35:08.397Z</time></trkpt><trkpt lat="40.4616555" lon="17.2813854"><ele>19.75</ele><time>2026-04-06T16:35:09.397Z</time></trkpt><trkpt lat="40.4618314" lon="17.2813732"><ele>20.0</ele><time>2026-04-06T16:35:10.397Z</time></trkpt><trkpt lat="40.4620057" lon="17.281368"><ele>19.75</ele><time>2026-04-06T16:35:11.397Z</time></trkpt><trkpt lat="40.4621704" lon="17.2813764"><ele>19.5</ele><time>2026-04-06T16:35:12.397Z</time></trkpt><trkpt lat="40.4623205" lon="17.2813727"><ele>19.25</ele><time>2026-04-06T16:35:13.397Z</time></trkpt><trkpt lat="40.4624441" lon="17.2813665"><ele>19.0</ele><time>2026-04-06T16:35:14.397Z</time></trkpt><trkpt lat="40.4625319" lon="17.2813665"><ele>19.0</ele><time>2026-04-06T16:35:15.397Z</time></trkpt><trkpt lat="40.4626028" lon="17.2813711"><ele>19.0</ele><time>2026-04-06T16:35:16.397Z</time></trkpt><trkpt lat="40.4626978" lon="17.281392"><ele>19.0</ele><time>2026-04-06T16:35:17.397Z</time></trkpt><trkpt lat="40.4628303" lon="17.2813915"><ele>19.0</ele><time>2026-04-06T16:35:18.397Z</time></trkpt><trkpt lat="40.463122" lon="17.2814055"><ele>19.0</ele><time>2026-04-06T16:35:20.397Z</time></trkpt><trkpt lat="40.4632836" lon="17.2814133"><ele>19.0</ele><time>2026-04-06T16:35:21.397Z</time></trkpt><trkpt lat="40.4634581" lon="17.2814243"><ele>19.0</ele><time>2026-04-06T16:35:22.397Z</time></trkpt><trkpt lat="40.4636234" lon="17.2814257"><ele>19.333333333333332</ele><time>2026-04-06T16:35:23.397Z</time></trkpt><trkpt lat="40.463782" lon="17.2814225"><ele>19.666666666666668</ele><time>2026-04-06T16:35:24.397Z</time></trkpt><trkpt lat="40.4639422" lon="17.2814199"><ele>20.0</ele><time>2026-04-06T16:35:25.397Z</time></trkpt><trkpt lat="40.4641002" lon="17.2814164"><ele>20.0</ele><time>2026-04-06T16:35:26.397Z</time></trkpt><trkpt lat="40.4642649" lon="17.2814201"><ele>20.0</ele><time>2026-04-06T16:35:27.398Z</time></trkpt><trkpt lat="40.4644309" lon="17.2814269"><ele>20.0</ele><time>2026-04-06T16:35:28.397Z</time></trkpt><trkpt lat="40.4645863" lon="17.281436"><ele>20.0</ele><time>2026-04-06T16:35:29.397Z</time></trkpt><trkpt lat="40.4647355" lon="17.281447"><ele>20.0</ele><time>2026-04-06T16:35:30.397Z</time></trkpt><trkpt lat="40.4648754" lon="17.2814598"><ele>20.0</ele><time>2026-04-06T16:35:31.397Z</time></trkpt><trkpt lat="40.4650043" lon="17.2814698"><ele>20.0</ele><time>2026-04-06T16:35:32.397Z</time></trkpt><trkpt lat="40.465123" lon="17.2814894"><ele>20.0</ele><time>2026-04-06T16:35:33.397Z</time></trkpt><trkpt lat="40.4652197" lon="17.2815075"><ele>20.0</ele><time>2026-04-06T16:35:34.397Z</time></trkpt><trkpt lat="40.4652906" lon="17.281529"><ele>20.0</ele><time>2026-04-06T16:35:35.397Z</time></trkpt><trkpt lat="40.4653997" lon="17.281563"><ele>20.0</ele><time>2026-04-06T16:35:37.397Z</time></trkpt><trkpt lat="40.4655133" lon="17.281565"><ele>20.0</ele><time>2026-04-06T16:35:39.397Z</time></trkpt><trkpt lat="40.4655782" lon="17.2814231"><ele>20.0</ele><time>2026-04-06T16:35:41.397Z</time></trkpt><trkpt lat="40.4655874" lon="17.2813169"><ele>20.0</ele><time>2026-04-06T16:35:42.397Z</time></trkpt><trkpt lat="40.465597" lon="17.2811907"><ele>20.0</ele><time>2026-04-06T16:35:43.398Z</time></trkpt><trkpt lat="40.4655978" lon="17.2810475"><ele>20.0</ele><time>2026-04-06T16:35:44.397Z</time></trkpt><trkpt lat="40.4656037" lon="17.2808954"><ele>20.0</ele><time>2026-04-06T16:35:45.398Z</time></trkpt><trkpt lat="40.4656174" lon="17.2807337"><ele>20.0</ele><time>2026-04-06T16:35:46.397Z</time></trkpt><trkpt lat="40.465639" lon="17.28054"><ele>20.0</ele><time>2026-04-06T16:35:47.397Z</time></trkpt><trkpt lat="40.4656438" lon="17.280304"><ele>20.0</ele><time>2026-04-06T16:35:48.397Z</time></trkpt><trkpt lat="40.4656601" lon="17.280073"><ele>20.0</ele><time>2026-04-06T16:35:49.397Z</time></trkpt><trkpt lat="40.4656641" lon="17.2798336"><ele>20.0</ele><time>2026-04-06T16:35:50.397Z</time></trkpt><trkpt lat="40.465665" lon="17.2795956"><ele>20.0</ele><time>2026-04-06T16:35:51.397Z</time></trkpt><trkpt lat="40.4656741" lon="17.2793776"><ele>19.75</ele><time>2026-04-06T16:35:52.397Z</time></trkpt><trkpt lat="40.4656772" lon="17.2791704"><ele>19.5</ele><time>2026-04-06T16:35:53.397Z</time></trkpt><trkpt lat="40.4656845" lon="17.2789773"><ele>19.25</ele><time>2026-04-06T16:35:54.397Z</time></trkpt><trkpt lat="40.465693" lon="17.2787879"><ele>19.0</ele><time>2026-04-06T16:35:55.397Z</time></trkpt><trkpt lat="40.4656987" lon="17.2785958"><ele>19.0</ele><time>2026-04-06T16:35:56.397Z</time></trkpt><trkpt lat="40.4657038" lon="17.2784091"><ele>19.0</ele><time>2026-04-06T16:35:57.397Z</time></trkpt><trkpt lat="40.4657076" lon="17.2782233"><ele>19.0</ele><time>2026-04-06T16:35:58.397Z</time></trkpt><trkpt lat="40.4657107" lon="17.2780375"><ele>19.0</ele><time>2026-04-06T16:35:59.397Z</time></trkpt><trkpt lat="40.4657238" lon="17.2778399"><ele>18.75</ele><time>2026-04-06T16:36:00.397Z</time></trkpt><trkpt lat="40.4657365" lon="17.2776556"><ele>18.5</ele><time>2026-04-06T16:36:01.397Z</time></trkpt><trkpt lat="40.465747" lon="17.2774666"><ele>18.25</ele><time>2026-04-06T16:36:02.397Z</time></trkpt><trkpt lat="40.4657531" lon="17.2772731"><ele>18.0</ele><time>2026-04-06T16:36:03.397Z</time></trkpt><trkpt lat="40.4657554" lon="17.2770796"><ele>18.0</ele><time>2026-04-06T16:36:04.397Z</time></trkpt><trkpt lat="40.4657604" lon="17.2768867"><ele>18.0</ele><time>2026-04-06T16:36:05.397Z</time></trkpt><trkpt lat="40.4657665" lon="17.2766914"><ele>18.0</ele><time>2026-04-06T16:36:06.398Z</time></trkpt><trkpt lat="40.4657797" lon="17.276499"><ele>18.0</ele><time>2026-04-06T16:36:07.397Z</time></trkpt><trkpt lat="40.4657885" lon="17.2763144"><ele>18.5</ele><time>2026-04-06T16:36:08.397Z</time></trkpt><trkpt lat="40.4657879" lon="17.2761383"><ele>19.0</ele><time>2026-04-06T16:36:09.397Z</time></trkpt><trkpt lat="40.4657883" lon="17.2759748"><ele>19.5</ele><time>2026-04-06T16:36:10.397Z</time></trkpt><trkpt lat="40.4657955" lon="17.2758157"><ele>20.0</ele><time>2026-04-06T16:36:11.397Z</time></trkpt><trkpt lat="40.4657912" lon="17.2756632"><ele>20.142857142857142</ele><time>2026-04-06T16:36:12.397Z</time></trkpt><trkpt lat="40.4658034" lon="17.2755489"><ele>20.285714285714285</ele><time>2026-04-06T16:36:13.398Z</time></trkpt><trkpt lat="40.4658081" lon="17.2754476"><ele>20.42857142857143</ele><time>2026-04-06T16:36:14.397Z</time></trkpt><trkpt lat="40.4658164" lon="17.2753531"><ele>20.57142857142857</ele><time>2026-04-06T16:36:15.397Z</time></trkpt><trkpt lat="40.4658238" lon="17.2752606"><ele>20.714285714285715</ele><time>2026-04-06T16:36:16.398Z</time></trkpt><trkpt lat="40.4658221" lon="17.2751707"><ele>20.857142857142858</ele><time>2026-04-06T16:36:17.398Z</time></trkpt><trkpt lat="40.4658405" lon="17.2750878"><ele>21.0</ele><time>2026-04-06T16:36:18.397Z</time></trkpt><trkpt lat="40.4658684" lon="17.2750077"><ele>21.0</ele><time>2026-04-06T16:36:19.397Z</time></trkpt><trkpt lat="40.4659029" lon="17.2749351"><ele>21.0</ele><time>2026-04-06T16:36:20.397Z</time></trkpt><trkpt lat="40.4659523" lon="17.2748808"><ele>21.0</ele><time>2026-04-06T16:36:21.397Z</time></trkpt><trkpt lat="40.4660217" lon="17.2748431"><ele>21.0</ele><time>2026-04-06T16:36:22.397Z</time></trkpt><trkpt lat="40.4660964" lon="17.2748332"><ele>21.0</ele><time>2026-04-06T16:36:23.397Z</time></trkpt><trkpt lat="40.4661891" lon="17.2748289"><ele>21.0</ele><time>2026-04-06T16:36:24.397Z</time></trkpt><trkpt lat="40.4662903" lon="17.2748433"><ele>20.25</ele><time>2026-04-06T16:36:25.397Z</time></trkpt><trkpt lat="40.4663982" lon="17.2748609"><ele>19.5</ele><time>2026-04-06T16:36:26.397Z</time></trkpt><trkpt lat="40.466526" lon="17.274882"><ele>18.75</ele><time>2026-04-06T16:36:27.397Z</time></trkpt><trkpt lat="40.4666733" lon="17.2748976"><ele>18.0</ele><time>2026-04-06T16:36:28.397Z</time></trkpt><trkpt lat="40.4668224" lon="17.2749093"><ele>18.0</ele><time>2026-04-06T16:36:29.397Z</time></trkpt><trkpt lat="40.466971" lon="17.2749213"><ele>18.0</ele><time>2026-04-06T16:36:30.397Z</time></trkpt><trkpt lat="40.4671281" lon="17.2749382"><ele>18.0</ele><time>2026-04-06T16:36:31.398Z</time></trkpt><trkpt lat="40.4672854" lon="17.2749537"><ele>18.0</ele><time>2026-04-06T16:36:32.398Z</time></trkpt><trkpt lat="40.4674453" lon="17.274976"><ele>18.0</ele><time>2026-04-06T16:36:33.397Z</time></trkpt><trkpt lat="40.4676093" lon="17.2749851"><ele>18.0</ele><time>2026-04-06T16:36:34.397Z</time></trkpt><trkpt lat="40.4678009" lon="17.2749759"><ele>18.0</ele><time>2026-04-06T16:36:35.398Z</time></trkpt><trkpt lat="40.4680185" lon="17.2749394"><ele>18.0</ele><time>2026-04-06T16:36:36.397Z</time></trkpt><trkpt lat="40.4682311" lon="17.2748921"><ele>18.0</ele><time>2026-04-06T16:36:37.397Z</time></trkpt><trkpt lat="40.4684242" lon="17.2748485"><ele>18.0</ele><time>2026-04-06T16:36:38.397Z</time></trkpt><trkpt lat="40.4686107" lon="17.2748272"><ele>18.0</ele><time>2026-04-06T16:36:39.397Z</time></trkpt><trkpt lat="40.4687858" lon="17.2748147"><ele>18.0</ele><time>2026-04-06T16:36:40.397Z</time></trkpt><trkpt lat="40.4689571" lon="17.27481"><ele>19.0</ele><time>2026-04-06T16:36:41.397Z</time></trkpt><trkpt lat="40.4691316" lon="17.2748122"><ele>20.0</ele><time>2026-04-06T16:36:42.397Z</time></trkpt><trkpt lat="40.4693227" lon="17.2748121"><ele>21.0</ele><time>2026-04-06T16:36:43.397Z</time></trkpt><trkpt lat="40.4695191" lon="17.2748114"><ele>20.666666666666668</ele><time>2026-04-06T16:36:44.397Z</time></trkpt><trkpt lat="40.4697151" lon="17.2748135"><ele>20.333333333333336</ele><time>2026-04-06T16:36:45.397Z</time></trkpt><trkpt lat="40.4699036" lon="17.2748216"><ele>20.0</ele><time>2026-04-06T16:36:46.397Z</time></trkpt><trkpt lat="40.470084" lon="17.2748301"><ele>20.0</ele><time>2026-04-06T16:36:47.397Z</time></trkpt><trkpt lat="40.4702498" lon="17.2748342"><ele>20.0</ele><time>2026-04-06T16:36:48.397Z</time></trkpt><trkpt lat="40.4703972" lon="17.2748211"><ele>20.0</ele><time>2026-04-06T16:36:49.397Z</time></trkpt><trkpt lat="40.4705136" lon="17.2748021"><ele>20.0</ele><time>2026-04-06T16:36:50.397Z</time></trkpt><trkpt lat="40.4706352" lon="17.2747525"><ele>19.75</ele><time>2026-04-06T16:36:51.397Z</time></trkpt><trkpt lat="40.4707502" lon="17.274651"><ele>19.5</ele><time>2026-04-06T16:36:52.397Z</time></trkpt><trkpt lat="40.4708593" lon="17.2745379"><ele>19.25</ele><time>2026-04-06T16:36:53.397Z</time></trkpt><trkpt lat="40.4709667" lon="17.2744068"><ele>19.0</ele><time>2026-04-06T16:36:54.397Z</time></trkpt><trkpt lat="40.4710713" lon="17.2742858"><ele>19.0</ele><time>2026-04-06T16:36:55.398Z</time></trkpt><trkpt lat="40.4711729" lon="17.2741872"><ele>19.0</ele><time>2026-04-06T16:36:56.397Z</time></trkpt><trkpt lat="40.4712432" lon="17.2740822"><ele>19.0</ele><time>2026-04-06T16:36:57.397Z</time></trkpt><trkpt lat="40.4712785" lon="17.2739695"><ele>19.0</ele><time>2026-04-06T16:36:58.397Z</time></trkpt><trkpt lat="40.4712947" lon="17.2738499"><ele>19.0</ele><time>2026-04-06T16:36:59.397Z</time></trkpt><trkpt lat="40.4712654" lon="17.2737198"><ele>19.2</ele><time>2026-04-06T16:37:00.397Z</time></trkpt><trkpt lat="40.4712226" lon="17.2736488"><ele>19.4</ele><time>2026-04-06T16:37:01.398Z</time></trkpt><trkpt lat="40.4711308" lon="17.2735325"><ele>19.6</ele><time>2026-04-06T16:37:02.397Z</time></trkpt><trkpt lat="40.471038" lon="17.2734819"><ele>19.8</ele><time>2026-04-06T16:37:03.397Z</time></trkpt><trkpt lat="40.4709324" lon="17.2735193"><ele>20.0</ele><time>2026-04-06T16:37:04.397Z</time></trkpt><trkpt lat="40.4708287" lon="17.2735931"><ele>20.0</ele><time>2026-04-06T16:37:05.398Z</time></trkpt><trkpt lat="40.4707375" lon="17.2736743"><ele>20.0</ele><time>2026-04-06T16:37:06.397Z</time></trkpt><trkpt lat="40.470643" lon="17.2737995"><ele>20.0</ele><time>2026-04-06T16:37:07.397Z</time></trkpt><trkpt lat="40.4705573" lon="17.2739317"><ele>20.0</ele><time>2026-04-06T16:37:08.398Z</time></trkpt><trkpt lat="40.4704726" lon="17.274057"><ele>20.0</ele><time>2026-04-06T16:37:09.397Z</time></trkpt><trkpt lat="40.4703873" lon="17.2741958"><ele>20.0</ele><time>2026-04-06T16:37:10.397Z</time></trkpt><trkpt lat="40.4702844" lon="17.2743273"><ele>20.0</ele><time>2026-04-06T16:37:11.398Z</time></trkpt><trkpt lat="40.4701824" lon="17.2744345"><ele>20.0</ele><time>2026-04-06T16:37:12.397Z</time></trkpt><trkpt lat="40.4700577" lon="17.274501"><ele>20.0</ele><time>2026-04-06T16:37:13.398Z</time></trkpt><trkpt lat="40.4699016" lon="17.2745359"><ele>20.0</ele><time>2026-04-06T16:37:14.397Z</time></trkpt><trkpt lat="40.4697298" lon="17.2745575"><ele>20.0</ele><time>2026-04-06T16:37:15.397Z</time></trkpt><trkpt lat="40.4695605" lon="17.2745563"><ele>19.666666666666668</ele><time>2026-04-06T16:37:16.397Z</time></trkpt><trkpt lat="40.4693968" lon="17.2745354"><ele>19.333333333333332</ele><time>2026-04-06T16:37:17.397Z</time></trkpt><trkpt lat="40.4692422" lon="17.2745088"><ele>19.0</ele><time>2026-04-06T16:37:18.397Z</time></trkpt><trkpt lat="40.4690984" lon="17.2744616"><ele>19.0</ele><time>2026-04-06T16:37:19.397Z</time></trkpt><trkpt lat="40.4689549" lon="17.2743959"><ele>19.0</ele><time>2026-04-06T16:37:20.398Z</time></trkpt><trkpt lat="40.4688111" lon="17.2743159"><ele>19.0</ele><time>2026-04-06T16:37:21.397Z</time></trkpt><trkpt lat="40.4686632" lon="17.2742131"><ele>19.0</ele><time>2026-04-06T16:37:22.397Z</time></trkpt><trkpt lat="40.4685085" lon="17.2740863"><ele>19.0</ele><time>2026-04-06T16:37:23.397Z</time></trkpt><trkpt lat="40.4683604" lon="17.2739351"><ele>19.0</ele><time>2026-04-06T16:37:24.397Z</time></trkpt><trkpt lat="40.4682259" lon="17.2737677"><ele>18.666666666666664</ele><time>2026-04-06T16:37:25.397Z</time></trkpt><trkpt lat="40.4681055" lon="17.2735887"><ele>18.333333333333332</ele><time>2026-04-06T16:37:26.397Z</time></trkpt><trkpt lat="40.4679954" lon="17.273384"><ele>18.0</ele><time>2026-04-06T16:37:27.398Z</time></trkpt><trkpt lat="40.4679054" lon="17.2731754"><ele>17.666666666666668</ele><time>2026-04-06T16:37:28.397Z</time></trkpt><trkpt lat="40.4678325" lon="17.2729664"><ele>17.333333333333336</ele><time>2026-04-06T16:37:29.397Z</time></trkpt><trkpt lat="40.4677784" lon="17.2727572"><ele>17.0</ele><time>2026-04-06T16:37:30.397Z</time></trkpt><trkpt lat="40.4677364" lon="17.2725449"><ele>17.0</ele><time>2026-04-06T16:37:31.397Z</time></trkpt><trkpt lat="40.4677147" lon="17.2723257"><ele>17.0</ele><time>2026-04-06T16:37:32.397Z</time></trkpt><trkpt lat="40.4677148" lon="17.2721022"><ele>17.0</ele><time>2026-04-06T16:37:33.397Z</time></trkpt><trkpt lat="40.4677251" lon="17.2718746"><ele>17.0</ele><time>2026-04-06T16:37:34.397Z</time></trkpt><trkpt lat="40.4677352" lon="17.2716342"><ele>17.0</ele><time>2026-04-06T16:37:35.398Z</time></trkpt><trkpt lat="40.4677423" lon="17.2713766"><ele>17.0</ele><time>2026-04-06T16:37:36.397Z</time></trkpt><trkpt lat="40.4677576" lon="17.2711064"><ele>17.333333333333336</ele><time>2026-04-06T16:37:37.397Z</time></trkpt><trkpt lat="40.4677724" lon="17.2708443"><ele>17.666666666666668</ele><time>2026-04-06T16:37:38.397Z</time></trkpt><trkpt lat="40.4677806" lon="17.2705975"><ele>18.0</ele><time>2026-04-06T16:37:39.397Z</time></trkpt><trkpt lat="40.4677873" lon="17.2703597"><ele>18.0</ele><time>2026-04-06T16:37:40.397Z</time></trkpt><trkpt lat="40.4677933" lon="17.2701347"><ele>18.0</ele><time>2026-04-06T16:37:41.397Z</time></trkpt><trkpt lat="40.4678013" lon="17.269907"><ele>18.0</ele><time>2026-04-06T16:37:42.397Z</time></trkpt><trkpt lat="40.4678121" lon="17.2696787"><ele>17.666666666666668</ele><time>2026-04-06T16:37:43.397Z</time></trkpt><trkpt lat="40.4678217" lon="17.2694556"><ele>17.333333333333336</ele><time>2026-04-06T16:37:44.397Z</time></trkpt><trkpt lat="40.4678317" lon="17.2692312"><ele>17.0</ele><time>2026-04-06T16:37:45.397Z</time></trkpt><trkpt lat="40.4678392" lon="17.2690093"><ele>17.333333333333336</ele><time>2026-04-06T16:37:46.397Z</time></trkpt><trkpt lat="40.4678443" lon="17.2688039"><ele>17.666666666666668</ele><time>2026-04-06T16:37:47.397Z</time></trkpt><trkpt lat="40.4678444" lon="17.2685982"><ele>18.0</ele><time>2026-04-06T16:37:48.397Z</time></trkpt><trkpt lat="40.4678432" lon="17.2684091"><ele>18.0</ele><time>2026-04-06T16:37:49.397Z</time></trkpt><trkpt lat="40.4678586" lon="17.268231"><ele>18.0</ele><time>2026-04-06T16:37:50.397Z</time></trkpt><trkpt lat="40.4678627" lon="17.2680537"><ele>18.0</ele><time>2026-04-06T16:37:51.397Z</time></trkpt><trkpt lat="40.4678651" lon="17.2678704"><ele>18.0</ele><time>2026-04-06T16:37:52.397Z</time></trkpt><trkpt lat="40.4678724" lon="17.2676855"><ele>18.25</ele><time>2026-04-06T16:37:53.397Z</time></trkpt><trkpt lat="40.4678804" lon="17.2675037"><ele>18.5</ele><time>2026-04-06T16:37:54.397Z</time></trkpt><trkpt lat="40.4678946" lon="17.2673327"><ele>18.75</ele><time>2026-04-06T16:37:55.397Z</time></trkpt><trkpt lat="40.4679029" lon="17.2671582"><ele>19.0</ele><time>2026-04-06T16:37:56.397Z</time></trkpt><trkpt lat="40.4679229" lon="17.2669738"><ele>19.0</ele><time>2026-04-06T16:37:57.397Z</time></trkpt><trkpt lat="40.4679532" lon="17.2667863"><ele>19.0</ele><time>2026-04-06T16:37:58.398Z</time></trkpt><trkpt lat="40.4679734" lon="17.2666024"><ele>19.0</ele><time>2026-04-06T16:37:59.397Z</time></trkpt><trkpt lat="40.4679827" lon="17.2664303"><ele>19.0</ele><time>2026-04-06T16:38:00.397Z</time></trkpt><trkpt lat="40.4679902" lon="17.2662653"><ele>19.0</ele><time>2026-04-06T16:38:01.397Z</time></trkpt><trkpt lat="40.4679995" lon="17.2661014"><ele>19.0</ele><time>2026-04-06T16:38:02.397Z</time></trkpt><trkpt lat="40.4680033" lon="17.2659368"><ele>19.0</ele><time>2026-04-06T16:38:03.398Z</time></trkpt><trkpt lat="40.4680018" lon="17.265775"><ele>19.0</ele><time>2026-04-06T16:38:04.397Z</time></trkpt><trkpt lat="40.4679918" lon="17.2656224"><ele>19.0</ele><time>2026-04-06T16:38:05.397Z</time></trkpt><trkpt lat="40.467989" lon="17.26547"><ele>19.0</ele><time>2026-04-06T16:38:06.397Z</time></trkpt><trkpt lat="40.4679791" lon="17.265323"><ele>19.0</ele><time>2026-04-06T16:38:07.397Z</time></trkpt><trkpt lat="40.4679653" lon="17.2651804"><ele>19.0</ele><time>2026-04-06T16:38:08.397Z</time></trkpt><trkpt lat="40.4679495" lon="17.2650427"><ele>19.0</ele><time>2026-04-06T16:38:09.397Z</time></trkpt><trkpt lat="40.4679306" lon="17.2648998"><ele>19.0</ele><time>2026-04-06T16:38:10.397Z</time></trkpt><trkpt lat="40.4679198" lon="17.2647469"><ele>19.0</ele><time>2026-04-06T16:38:11.397Z</time></trkpt><trkpt lat="40.4679204" lon="17.2645738"><ele>19.0</ele><time>2026-04-06T16:38:12.397Z</time></trkpt><trkpt lat="40.4679113" lon="17.2644029"><ele>19.0</ele><time>2026-04-06T16:38:13.397Z</time></trkpt><trkpt lat="40.4679038" lon="17.2642324"><ele>19.0</ele><time>2026-04-06T16:38:14.397Z</time></trkpt><trkpt lat="40.4678984" lon="17.2640734"><ele>19.0</ele><time>2026-04-06T16:38:15.397Z</time></trkpt><trkpt lat="40.4678939" lon="17.2639307"><ele>19.0</ele><time>2026-04-06T16:38:16.397Z</time></trkpt><trkpt lat="40.467883" lon="17.2637878"><ele>19.0</ele><time>2026-04-06T16:38:17.397Z</time></trkpt><trkpt lat="40.4678716" lon="17.263647"><ele>19.0</ele><time>2026-04-06T16:38:18.397Z</time></trkpt><trkpt lat="40.4678589" lon="17.2635041"><ele>19.0</ele><time>2026-04-06T16:38:19.397Z</time></trkpt><trkpt lat="40.4678488" lon="17.2633618"><ele>19.0</ele><time>2026-04-06T16:38:20.397Z</time></trkpt><trkpt lat="40.4678367" lon="17.2632223"><ele>19.0</ele><time>2026-04-06T16:38:21.397Z</time></trkpt><trkpt lat="40.4678237" lon="17.2630819"><ele>19.0</ele><time>2026-04-06T16:38:22.397Z</time></trkpt><trkpt lat="40.4678111" lon="17.26294"><ele>19.0</ele><time>2026-04-06T16:38:23.397Z</time></trkpt><trkpt lat="40.4678054" lon="17.2627692"><ele>19.0</ele><time>2026-04-06T16:38:24.397Z</time></trkpt><trkpt lat="40.467794" lon="17.2625978"><ele>19.0</ele><time>2026-04-06T16:38:25.397Z</time></trkpt><trkpt lat="40.4677723" lon="17.2624138"><ele>19.0</ele><time>2026-04-06T16:38:26.397Z</time></trkpt><trkpt lat="40.4677537" lon="17.2622289"><ele>19.0</ele><time>2026-04-06T16:38:27.398Z</time></trkpt><trkpt lat="40.4677458" lon="17.2620599"><ele>21.0</ele><time>2026-04-06T16:38:28.397Z</time></trkpt><trkpt lat="40.4677354" lon="17.2619109"><ele>23.0</ele><time>2026-04-06T16:38:29.397Z</time></trkpt><trkpt lat="40.4677282" lon="17.2617572"><ele>25.0</ele><time>2026-04-06T16:38:30.398Z</time></trkpt><trkpt lat="40.4677239" lon="17.261598"><ele>27.0</ele><time>2026-04-06T16:38:31.397Z</time></trkpt><trkpt lat="40.4677186" lon="17.2614238"><ele>27.0</ele><time>2026-04-06T16:38:32.397Z</time></trkpt><trkpt lat="40.4677087" lon="17.2612394"><ele>27.0</ele><time>2026-04-06T16:38:33.397Z</time></trkpt><trkpt lat="40.4676929" lon="17.2610414"><ele>27.0</ele><time>2026-04-06T16:38:34.397Z</time></trkpt><trkpt lat="40.4676746" lon="17.2608466"><ele>27.0</ele><time>2026-04-06T16:38:35.397Z</time></trkpt><trkpt lat="40.4676598" lon="17.2606546"><ele>26.5</ele><time>2026-04-06T16:38:36.397Z</time></trkpt><trkpt lat="40.4676468" lon="17.260453"><ele>26.0</ele><time>2026-04-06T16:38:37.397Z</time></trkpt><trkpt lat="40.4676356" lon="17.2602655"><ele>25.5</ele><time>2026-04-06T16:38:38.397Z</time></trkpt><trkpt lat="40.4676275" lon="17.2600841"><ele>25.0</ele><time>2026-04-06T16:38:39.397Z</time></trkpt><trkpt lat="40.4676209" lon="17.2599189"><ele>25.25</ele><time>2026-04-06T16:38:40.397Z</time></trkpt><trkpt lat="40.4676133" lon="17.2597579"><ele>25.5</ele><time>2026-04-06T16:38:41.397Z</time></trkpt><trkpt lat="40.4676056" lon="17.2596038"><ele>25.75</ele><time>2026-04-06T16:38:42.397Z</time></trkpt><trkpt lat="40.4675941" lon="17.2594565"><ele>26.0</ele><time>2026-04-06T16:38:43.398Z</time></trkpt><trkpt lat="40.4675837" lon="17.2593167"><ele>26.0</ele><time>2026-04-06T16:38:44.398Z</time></trkpt><trkpt lat="40.4675785" lon="17.2591737"><ele>26.0</ele><time>2026-04-06T16:38:45.397Z</time></trkpt><trkpt lat="40.4675761" lon="17.2590336"><ele>26.0</ele><time>2026-04-06T16:38:46.396Z</time></trkpt><trkpt lat="40.467567" lon="17.2588848"><ele>26.0</ele><time>2026-04-06T16:38:47.396Z</time></trkpt><trkpt lat="40.4675564" lon="17.25873"><ele>26.0</ele><time>2026-04-06T16:38:48.396Z</time></trkpt><trkpt lat="40.4675486" lon="17.258575"><ele>26.0</ele><time>2026-04-06T16:38:49.396Z</time></trkpt><trkpt lat="40.4675471" lon="17.258415"><ele>26.0</ele><time>2026-04-06T16:38:50.396Z</time></trkpt><trkpt lat="40.4675569" lon="17.2582383"><ele>26.0</ele><time>2026-04-06T16:38:51.396Z</time></trkpt><trkpt lat="40.4675934" lon="17.2580349"><ele>26.0</ele><time>2026-04-06T16:38:52.396Z</time></trkpt><trkpt lat="40.4676524" lon="17.2577997"><ele>25.666666666666664</ele><time>2026-04-06T16:38:53.396Z</time></trkpt><trkpt lat="40.467732" lon="17.2575574"><ele>25.333333333333336</ele><time>2026-04-06T16:38:54.396Z</time></trkpt><trkpt lat="40.4678267" lon="17.257347"><ele>25.0</ele><time>2026-04-06T16:38:55.396Z</time></trkpt><trkpt lat="40.4679216" lon="17.2571559"><ele>20.333333333333336</ele><time>2026-04-06T16:38:56.396Z</time></trkpt><trkpt lat="40.4680066" lon="17.2569714"><ele>15.666666666666668</ele><time>2026-04-06T16:38:57.396Z</time></trkpt><trkpt lat="40.4680898" lon="17.2567876"><ele>11.0</ele><time>2026-04-06T16:38:58.397Z</time></trkpt><trkpt lat="40.468174" lon="17.2566255"><ele>11.0</ele><time>2026-04-06T16:38:59.396Z</time></trkpt><trkpt lat="40.4682533" lon="17.2564742"><ele>11.0</ele><time>2026-04-06T16:39:00.396Z</time></trkpt><trkpt lat="40.4683235" lon="17.2563231"><ele>11.0</ele><time>2026-04-06T16:39:01.396Z</time></trkpt><trkpt lat="40.4683858" lon="17.2561706"><ele>11.0</ele><time>2026-04-06T16:39:02.396Z</time></trkpt><trkpt lat="40.468464" lon="17.2560116"><ele>13.333333333333332</ele><time>2026-04-06T16:39:03.396Z</time></trkpt><trkpt lat="40.4685477" lon="17.2558408"><ele>15.666666666666666</ele><time>2026-04-06T16:39:04.396Z</time></trkpt><trkpt lat="40.4686227" lon="17.2556635"><ele>18.0</ele><time>2026-04-06T16:39:05.396Z</time></trkpt><trkpt lat="40.468697" lon="17.2554885"><ele>19.25</ele><time>2026-04-06T16:39:06.396Z</time></trkpt><trkpt lat="40.4687631" lon="17.2553219"><ele>20.5</ele><time>2026-04-06T16:39:07.396Z</time></trkpt><trkpt lat="40.468828" lon="17.255173"><ele>21.75</ele><time>2026-04-06T16:39:08.396Z</time></trkpt><trkpt lat="40.468889" lon="17.2550316"><ele>23.0</ele><time>2026-04-06T16:39:09.396Z</time></trkpt><trkpt lat="40.4689414" lon="17.2549172"><ele>22.799999999999997</ele><time>2026-04-06T16:39:10.396Z</time></trkpt><trkpt lat="40.4689769" lon="17.2548269"><ele>22.6</ele><time>2026-04-06T16:39:11.397Z</time></trkpt><trkpt lat="40.4689664" lon="17.2546697"><ele>22.4</ele><time>2026-04-06T16:39:13.396Z</time></trkpt><trkpt lat="40.468891" lon="17.2546121"><ele>22.200000000000003</ele><time>2026-04-06T16:39:14.396Z</time></trkpt><trkpt lat="40.4688026" lon="17.2545221"><ele>22.0</ele><time>2026-04-06T16:39:15.396Z</time></trkpt><trkpt lat="40.4687261" lon="17.2544105"><ele>22.0</ele><time>2026-04-06T16:39:16.396Z</time></trkpt><trkpt lat="40.4686506" lon="17.2543019"><ele>22.0</ele><time>2026-04-06T16:39:17.396Z</time></trkpt><trkpt lat="40.4685898" lon="17.254196"><ele>22.0</ele><time>2026-04-06T16:39:18.396Z</time></trkpt><trkpt lat="40.4685497" lon="17.2540841"><ele>22.0</ele><time>2026-04-06T16:39:19.396Z</time></trkpt><trkpt lat="40.4685237" lon="17.2539525"><ele>22.0</ele><time>2026-04-06T16:39:20.396Z</time></trkpt><trkpt lat="40.4685475" lon="17.2538227"><ele>22.0</ele><time>2026-04-06T16:39:21.396Z</time></trkpt><trkpt lat="40.4685973" lon="17.2536715"><ele>22.0</ele><time>2026-04-06T16:39:22.396Z</time></trkpt><trkpt lat="40.4686802" lon="17.2535051"><ele>22.0</ele><time>2026-04-06T16:39:23.397Z</time></trkpt><trkpt lat="40.4687744" lon="17.2533163"><ele>22.0</ele><time>2026-04-06T16:39:24.396Z</time></trkpt><trkpt lat="40.4688524" lon="17.2531227"><ele>21.25</ele><time>2026-04-06T16:39:25.396Z</time></trkpt><trkpt lat="40.4689292" lon="17.2529413"><ele>20.5</ele><time>2026-04-06T16:39:26.396Z</time></trkpt><trkpt lat="40.4689935" lon="17.2527753"><ele>19.75</ele><time>2026-04-06T16:39:27.397Z</time></trkpt><trkpt lat="40.4690541" lon="17.252618"><ele>19.0</ele><time>2026-04-06T16:39:28.396Z</time></trkpt><trkpt lat="40.4691024" lon="17.2524882"><ele>19.0</ele><time>2026-04-06T16:39:29.396Z</time></trkpt><trkpt lat="40.469139" lon="17.2523921"><ele>19.0</ele><time>2026-04-06T16:39:30.396Z</time></trkpt><trkpt lat="40.4691586" lon="17.2523024"><ele>19.0</ele><time>2026-04-06T16:39:31.396Z</time></trkpt><trkpt lat="40.4690959" lon="17.2521664"><ele>19.0</ele><time>2026-04-06T16:39:33.397Z</time></trkpt><trkpt lat="40.4690101" lon="17.2521115"><ele>19.0</ele><time>2026-04-06T16:39:34.396Z</time></trkpt><trkpt lat="40.4688892" lon="17.252079"><ele>19.5</ele><time>2026-04-06T16:39:35.396Z</time></trkpt><trkpt lat="40.468749" lon="17.252044"><ele>20.0</ele><time>2026-04-06T16:39:36.396Z</time></trkpt><trkpt lat="40.4686123" lon="17.2520041"><ele>20.5</ele><time>2026-04-06T16:39:37.396Z</time></trkpt><trkpt lat="40.4684935" lon="17.2519604"><ele>21.0</ele><time>2026-04-06T16:39:38.396Z</time></trkpt><trkpt lat="40.4683946" lon="17.2519222"><ele>21.0</ele><time>2026-04-06T16:39:39.396Z</time></trkpt><trkpt lat="40.4683166" lon="17.2518983"><ele>21.0</ele><time>2026-04-06T16:39:40.396Z</time></trkpt><trkpt lat="40.46823" lon="17.2518728"><ele>21.0</ele><time>2026-04-06T16:39:42.396Z</time></trkpt><trkpt lat="40.4681513" lon="17.2518658"><ele>21.0</ele><time>2026-04-06T16:39:45.396Z</time></trkpt><trkpt lat="40.4680805" lon="17.2518303"><ele>21.0</ele><time>2026-04-06T16:39:49.396Z</time></trkpt><trkpt lat="40.4680384" lon="17.2517474"><ele>21.0</ele><time>2026-04-06T16:40:04.396Z</time></trkpt><trkpt lat="40.4680726" lon="17.2515586"><ele>21.200000000000003</ele><time>2026-04-06T16:40:06.396Z</time></trkpt><trkpt lat="40.4680918" lon="17.2514122"><ele>21.400000000000002</ele><time>2026-04-06T16:40:07.396Z</time></trkpt><trkpt lat="40.4680965" lon="17.2512639"><ele>21.6</ele><time>2026-04-06T16:40:08.396Z</time></trkpt><trkpt lat="40.4681238" lon="17.2511268"><ele>21.8</ele><time>2026-04-06T16:40:09.397Z</time></trkpt><trkpt lat="40.4681415" lon="17.250982"><ele>22.0</ele><time>2026-04-06T16:40:10.396Z</time></trkpt><trkpt lat="40.4681633" lon="17.2508235"><ele>22.0</ele><time>2026-04-06T16:40:11.396Z</time></trkpt><trkpt lat="40.4681974" lon="17.2506655"><ele>22.0</ele><time>2026-04-06T16:40:12.397Z</time></trkpt><trkpt lat="40.4682235" lon="17.2505048"><ele>22.0</ele><time>2026-04-06T16:40:13.396Z</time></trkpt><trkpt lat="40.4682555" lon="17.2503386"><ele>22.0</ele><time>2026-04-06T16:40:14.396Z</time></trkpt><trkpt lat="40.4682865" lon="17.2501737"><ele>23.0</ele><time>2026-04-06T16:40:15.396Z</time></trkpt><trkpt lat="40.4683099" lon="17.2500132"><ele>24.0</ele><time>2026-04-06T16:40:16.396Z</time></trkpt><trkpt lat="40.4683411" lon="17.2498465"><ele>25.0</ele><time>2026-04-06T16:40:17.396Z</time></trkpt><trkpt lat="40.4683624" lon="17.2496755"><ele>26.0</ele><time>2026-04-06T16:40:18.396Z</time></trkpt><trkpt lat="40.4683933" lon="17.2495034"><ele>26.25</ele><time>2026-04-06T16:40:19.396Z</time></trkpt><trkpt lat="40.4684195" lon="17.2493329"><ele>26.5</ele><time>2026-04-06T16:40:20.396Z</time></trkpt><trkpt lat="40.4684491" lon="17.2491705"><ele>26.75</ele><time>2026-04-06T16:40:21.396Z</time></trkpt><trkpt lat="40.4684715" lon="17.2490062"><ele>27.0</ele><time>2026-04-06T16:40:22.396Z</time></trkpt><trkpt lat="40.4684983" lon="17.2488475"><ele>27.0</ele><time>2026-04-06T16:40:23.397Z</time></trkpt><trkpt lat="40.4685192" lon="17.2486807"><ele>27.0</ele><time>2026-04-06T16:40:24.396Z</time></trkpt><trkpt lat="40.4685562" lon="17.2485223"><ele>27.0</ele><time>2026-04-06T16:40:25.396Z</time></trkpt><trkpt lat="40.4685874" lon="17.2483507"><ele>27.0</ele><time>2026-04-06T16:40:26.396Z</time></trkpt><trkpt lat="40.4686206" lon="17.2481816"><ele>27.75</ele><time>2026-04-06T16:40:27.396Z</time></trkpt><trkpt lat="40.4686445" lon="17.2480325"><ele>28.5</ele><time>2026-04-06T16:40:28.396Z</time></trkpt><trkpt lat="40.4686726" lon="17.2478747"><ele>29.25</ele><time>2026-04-06T16:40:29.396Z</time></trkpt><trkpt lat="40.4687001" lon="17.2477177"><ele>30.0</ele><time>2026-04-06T16:40:30.396Z</time></trkpt><trkpt lat="40.4687326" lon="17.2475488"><ele>30.0</ele><time>2026-04-06T16:40:31.396Z</time></trkpt><trkpt lat="40.4687641" lon="17.2473783"><ele>30.0</ele><time>2026-04-06T16:40:32.396Z</time></trkpt><trkpt lat="40.4687978" lon="17.2472078"><ele>30.0</ele><time>2026-04-06T16:40:33.396Z</time></trkpt><trkpt lat="40.468827" lon="17.2470355"><ele>30.0</ele><time>2026-04-06T16:40:34.396Z</time></trkpt><trkpt lat="40.4688464" lon="17.2468527"><ele>30.5</ele><time>2026-04-06T16:40:35.397Z</time></trkpt><trkpt lat="40.468865" lon="17.2466711"><ele>31.0</ele><time>2026-04-06T16:40:36.396Z</time></trkpt><trkpt lat="40.4689011" lon="17.2464932"><ele>31.5</ele><time>2026-04-06T16:40:37.396Z</time></trkpt><trkpt lat="40.4689366" lon="17.2463136"><ele>32.0</ele><time>2026-04-06T16:40:38.396Z</time></trkpt><trkpt lat="40.4689778" lon="17.2461331"><ele>32.0</ele><time>2026-04-06T16:40:39.396Z</time></trkpt><trkpt lat="40.4690181" lon="17.2459685"><ele>32.0</ele><time>2026-04-06T16:40:40.396Z</time></trkpt><trkpt lat="40.4690461" lon="17.2458133"><ele>32.0</ele><time>2026-04-06T16:40:41.396Z</time></trkpt><trkpt lat="40.4690683" lon="17.2456492"><ele>32.0</ele><time>2026-04-06T16:40:42.396Z</time></trkpt><trkpt lat="40.4691054" lon="17.2454797"><ele>31.25</ele><time>2026-04-06T16:40:43.396Z</time></trkpt><trkpt lat="40.4691376" lon="17.2453098"><ele>30.5</ele><time>2026-04-06T16:40:44.396Z</time></trkpt><trkpt lat="40.4691574" lon="17.2451441"><ele>29.75</ele><time>2026-04-06T16:40:45.396Z</time></trkpt><trkpt lat="40.4691764" lon="17.244978"><ele>29.0</ele><time>2026-04-06T16:40:46.396Z</time></trkpt><trkpt lat="40.4691978" lon="17.2448117"><ele>28.5</ele><time>2026-04-06T16:40:47.396Z</time></trkpt><trkpt lat="40.4692256" lon="17.2446358"><ele>28.0</ele><time>2026-04-06T16:40:48.396Z</time></trkpt><trkpt lat="40.4692492" lon="17.2444559"><ele>27.5</ele><time>2026-04-06T16:40:49.396Z</time></trkpt><trkpt lat="40.4692852" lon="17.2442817"><ele>27.0</ele><time>2026-04-06T16:40:50.396Z</time></trkpt><trkpt lat="40.4693175" lon="17.2441116"><ele>27.5</ele><time>2026-04-06T16:40:51.396Z</time></trkpt><trkpt lat="40.4693543" lon="17.2439389"><ele>28.0</ele><time>2026-04-06T16:40:52.397Z</time></trkpt><trkpt lat="40.4693889" lon="17.2437639"><ele>28.5</ele><time>2026-04-06T16:40:53.396Z</time></trkpt><trkpt lat="40.4694155" lon="17.2436094"><ele>29.0</ele><time>2026-04-06T16:40:54.396Z</time></trkpt><trkpt lat="40.4694435" lon="17.2434646"><ele>29.0</ele><time>2026-04-06T16:40:55.397Z</time></trkpt><trkpt lat="40.4694709" lon="17.2433187"><ele>29.0</ele><time>2026-04-06T16:40:56.396Z</time></trkpt><trkpt lat="40.4694896" lon="17.2431588"><ele>29.0</ele><time>2026-04-06T16:40:57.396Z</time></trkpt><trkpt lat="40.4695115" lon="17.2430082"><ele>29.0</ele><time>2026-04-06T16:40:58.396Z</time></trkpt><trkpt lat="40.469531" lon="17.2428877"><ele>29.0</ele><time>2026-04-06T16:40:59.397Z</time></trkpt><trkpt lat="40.4695421" lon="17.2427999"><ele>29.2</ele><time>2026-04-06T16:41:00.396Z</time></trkpt><trkpt lat="40.4695672" lon="17.2426973"><ele>29.4</ele><time>2026-04-06T16:41:02.396Z</time></trkpt><trkpt lat="40.4696828" lon="17.2427009"><ele>29.6</ele><time>2026-04-06T16:41:04.396Z</time></trkpt><trkpt lat="40.4697668" lon="17.2427405"><ele>29.8</ele><time>2026-04-06T16:41:05.396Z</time></trkpt><trkpt lat="40.469845" lon="17.2427736"><ele>30.0</ele><time>2026-04-06T16:41:06.396Z</time></trkpt><trkpt lat="40.4699384" lon="17.2428245"><ele>29.333333333333332</ele><time>2026-04-06T16:41:08.396Z</time></trkpt><trkpt lat="40.4698903" lon="17.2427535"><ele>28.666666666666664</ele><time>2026-04-06T16:42:19.396Z</time></trkpt><trkpt lat="40.469827" lon="17.2427191"><ele>28.0</ele><time>2026-04-06T16:43:28.396Z</time></trkpt><trkpt lat="40.4697854" lon="17.2426261"><ele>27.333333333333332</ele><time>2026-04-06T16:43:30.396Z</time></trkpt><trkpt lat="40.4698649" lon="17.2425649"><ele>26.666666666666664</ele><time>2026-04-06T16:43:35.396Z</time></trkpt><trkpt lat="40.4698888" lon="17.2426558"><ele>26.0</ele><time>2026-04-06T16:43:42.396Z</time></trkpt><trkpt lat="40.469925" lon="17.2427325"><ele>25.999999999999996</ele><time>2026-04-06T16:43:43.396Z</time></trkpt><trkpt lat="40.469943" lon="17.2428357"><ele>26.0</ele><time>2026-04-06T16:43:44.396Z</time></trkpt><trkpt lat="40.4699489" lon="17.2429192"><ele>26.0</ele><time>2026-04-06T16:43:45.396Z</time></trkpt><trkpt lat="40.4699819" lon="17.243003"><ele>26.0</ele><time>2026-04-06T16:43:47.396Z</time></trkpt><trkpt lat="40.4700484" lon="17.2429637"><ele>25.999999999999996</ele><time>2026-04-06T16:43:58.396Z</time></trkpt><trkpt lat="40.4700454" lon="17.2428587"><ele>26.0</ele><time>2026-04-06T16:44:02.396Z</time></trkpt><trkpt lat="40.4700222" lon="17.2427547"><ele>26.0</ele><time>2026-04-06T16:44:05.396Z</time></trkpt><trkpt lat="40.4699573" lon="17.2426613"><ele>26.0</ele><time>2026-04-06T16:44:07.396Z</time></trkpt><trkpt lat="40.4698391" lon="17.2425925"><ele>26.0</ele><time>2026-04-06T16:44:09.396Z</time></trkpt><trkpt lat="40.4697428" lon="17.2425358"><ele>26.0</ele><time>2026-04-06T16:44:11.396Z</time></trkpt><trkpt lat="40.4698073" lon="17.2425448"><ele>26.0</ele><time>2026-04-06T16:44:14.396Z</time></trkpt><trkpt lat="40.4699685" lon="17.2427138"><ele>26.0</ele><time>2026-04-06T16:44:26.543Z</time></trkpt></trkseg></trk></gpx>